     2              OBSERVATION DATA    GPS                 RINEX VERSION / TYPE
teqc 2002Apr3 20050208 23:01:57UTC                          PGM / RUN BY / DATE
                                                            COMMENT
L2: 1 -> 1; 150 -> 5; 250 -> 9                              COMMENT
L2: 1 -> 1; 150 -> 5; 250 -> 9                              COMMENT
L2: 1 -> 1; 150 -> 5; 250 -> 9                              COMMENT
L2: 1 -> 1; 150 -> 5; 250 -> 9                              COMMENT
L2: 1 -> 1; 150 -> 5; 250 -> 9                              COMMENT
Original Marker Name: KELL                                  COMMENT
Campaign Name: CSUSB June 2004                              COMMENT
4-Character Station Name: KELL                              COMMENT
6-Character Antenna Code: DMRCHT                            COMMENT
Vertical Measurement Point: BCR                             COMMENT
Vertical Offset to Rinex Ref. Point: 0.0348                 COMMENT
Radial Measurement Point: ECF                               COMMENT
Radial Offset to Rinex Ref. Point: 0.1897                   COMMENT
Antenna Height from Field Measurement: 1.5450 m             COMMENT
Additional Antenna Identification Info.:                    COMMENT
Turborogue and Ashtech Choke Ring                           COMMENT
Original XYZ: -2402520.3400 -4705155.2200 3565784.0000      COMMENT
New XYZ position is based on association with SCEC monument COMMENT
E1D0T0M9+0011. Position of that monument is believed to be  COMMENT
valid to within 1 m horizontally; vertical accuracy         COMMENT
should be no worse than 3-times this value.                 COMMENT
                                                            COMMENT
Revised Rinex header created by UCSD GPS archive for        COMMENT
GSAC on 20-Apr-2005 (2005:110) 16:26:31 GMT                 COMMENT
For assistance contact dagnew@ucsd.edu                      COMMENT
or anderson@python.ucsd.edu                                 COMMENT
                                                            COMMENT
KELL                                                        MARKER NAME
___ CSUSB                                                   OBSERVER / AGENCY
1012 ASHTECH Z-X ZE00                                       REC # / TYPE / VERS
3005 DORNE-MARGOL. TYPE T                                   ANT # / TYPE
 -2402515.0000 -4705146.0000  3565771.0000                  APPROX POSITION XYZ
        1.4985        0.0000        0.0000                  ANTENNA: DELTA H/E/N
     1     1     0                                          WAVELENGTH FACT L1/2
     7    C1    L1    L2    P1    P2    S1    S2            # / TYPES OF OBSERV
     0                                                      INTERVAL
  2004     6    18    15    32   40.000000                  TIME OF FIRST OBS
  2004     6    19     0    12   20.000000                  TIME OF LAST OBS
                                                            END OF HEADER
 04  6 18 15 32 40.0000000  0  7G22G18G 6G16G15G30G26
  23377967.0384    9071745.71253   7083743.94052  23377966.1274   23377963.8964
        48.0004         41.0004
  21113457.8104    9147714.21054   7131324.84452  21113459.3654   21113457.8024
        58.0004         49.0004
  20462636.5664    9342064.41354   7275633.46152  20462637.9134   20462637.6784
        58.0004         51.0004
  23741342.7464    9219926.91353   7187711.71852  23741344.5514   23741343.4184
        43.0004         37.0004
  23838655.0294    9106155.18053   7100508.73452  23838655.5784   23838659.5884
        47.0004         40.0004
  24235899.3104    9474504.97253   7368693.49352  24235901.5364   24235897.1834
        49.0004         40.0004
  21787297.7684    9231589.51353   7196982.55452  21787300.1524   21787296.1024
        54.0004         44.0004
 04  6 18 15 33  0.0000000  0  7G22G18G 6G16G15G30G26
  23366096.5534    9009371.92943   7035141.03642  23366096.9874   23366096.5314
        49.0004         41.0004
  21106483.1034    9111059.49144   7102762.76242  21106484.6294   21106481.6284
        58.0004         49.0004
  20466975.0814    9364863.22144   7293398.74042  20466976.4494   20466976.0864
        58.0004         51.0004
  23737122.3174    9197731.79643   7170416.75942  23737121.2554   23737121.7794
        43.0004         37.0004
  23829202.7054    9056477.99843   7061799.28542  23829203.1234   23829206.6844
        48.0004         41.0004
  24248631.2034    9541409.80043   7420827.01842  24248634.1574   24248628.3984
        50.0004         40.0004
  21785288.2864    9221033.53643   7188757.14842  21785290.4164   21785288.7124
        54.0004         44.0004
 04  6 18 15 33 20.0000000  0  7G22G18G 6G16G15G30G26
  23354247.7194    8947109.40843   6986624.83442  23354247.2564   23354249.0674
        48.0004         41.0004
  21099544.0874    9074593.72744   7074347.91342  21099545.4974   21099542.6824
        58.0004         49.0004
  20471355.4794    9387880.26344   7311334.07142  20471356.5484   20471355.8054
        59.0004         51.0004
  23732941.4424    9175770.91843   7153304.37642  23732941.3364   23732944.3564
        43.0004         37.0004
  23819752.7434    9006824.79043   7023108.54142  23819754.2524   23819758.2494
        48.0004         41.0004
  24261357.4394    9608292.00843   7472942.91642  24261360.8734   24261354.4404
        49.0004         39.0004
  21783334.2754    9210767.65843   7180757.79042  21783336.4104   21783335.1444
        53.0004         44.0004
 04  6 18 15 33 40.0000000  0  8G22G18G 6G16G15G30G26G29
  23342419.3874    8884955.63643   6938193.34642  23342419.6664   23342421.8924
        47.0004         41.0004
  21092640.1514    9038314.51944   7046078.43542  21092641.8864   21092638.0884
        57.0004         48.0004
  20475776.3314    9411112.49244   7329437.08442  20475777.8464   20475776.5404
        58.0004         51.0004
  23728807.1364    9154041.53643   7136372.38042  23728808.4784   23728807.9584
        42.0004         37.0004
  23810308.1114    8957192.74243   6984434.27842  23810308.9324   23810312.1934
        48.0004         40.0004
  24274079.5234    9675148.03443   7525038.41042  24274082.5204   24274077.6084
        49.0004         39.0004
  21781436.2344    9200789.55643   7172982.67242  21781437.8954   21781436.8664
        53.0004         45.0004
  22586397.3384    -161309.85653   -126811.17152  22586399.1534   22586398.7784
        50.0004         43.0004
 04  6 18 15 34  0.0000000  0  8G22G18G 6G16G15G30G26G29
  23330612.2954    8822908.28543   6889844.79042  23330610.7624   23330614.8764
        47.0004         41.0004
  21085770.8324    9002219.05744   7017952.13242  21085772.8934   21085770.2984
        57.0004         48.0004
  20480237.1624    9434556.96944   7347705.48642  20480239.0254   20480237.6984
        58.0004         50.0004
  23724714.6734    9132541.03443   7119618.75042  23724715.9974   23724717.6794
        42.0004         37.0004
  23800867.2274    8907578.85543   6945774.16742  23800866.4784   23800871.6234
        47.0004         40.0004
  24286795.6084    9741973.88543   7577110.40242  24286798.7894   24286795.7384
        47.0004         39.0004
  21779591.3514    9191096.50743   7165429.66442  21779592.9914   21779592.6554
        53.0004         45.0004
  22588635.2674    -149546.32043   -117644.78442  22588636.2684   22588636.3444
        49.0004         43.0004
 04  6 18 15 34 20.0000000  0  8G22G18G 6G16G15G30G26G29
  23318826.0944    8760970.00843   6841581.22342  23318825.3574   23318827.2874
        47.0004         41.0004
  21078937.2754    8966309.81943   6989970.92942  21078938.7914   21078936.5274
        56.0004         48.0004
  20484739.4554    9458215.95544   7366141.04542  20484740.9994   20484739.9124
        58.0004         50.0004
  23720667.0304    9111271.75343   7103045.28942  23720669.7274   23720668.4354
        42.0004         38.0004
  23791431.0054    8857985.46043   6907130.02042  23791430.4944   23791432.7864
        48.0004         40.0004
  24299505.9504    9808771.26643   7629160.22142  24299506.2634   24299511.7144
        46.0004         38.0004
  21777801.3024    9181691.10643   7158100.79042  21777803.2564   21777803.2234
        53.0004         45.0004
  22590919.8584    -137535.46143   -108285.68642  22590921.4774   22590921.1784
        49.0004         43.0004
 04  6 18 15 34 40.0000000  0  8G22G18G 6G16G15G30G26G29
  23307061.2034    8699138.34843   6793400.75542  23307060.2134   23307060.1174
        48.0004         42.0004
  21072139.1674    8930584.11843   6962132.73242  21072140.4734   21072138.4114
        56.0004         48.0004
  20489282.1854    9482086.51544   7384741.46242  20489283.6954   20489282.6944
        58.0004         50.0004
  23716663.0754    9090231.18943   7086650.06142  23716663.7354   23716664.7264
        42.0004         38.0004
  23781996.1844    8808409.65043   6868499.57542  23781998.1394   23781999.8514
        47.0004         39.0004
  24312208.0204    9875536.51043   7681185.04942  24312209.9894   24312213.9264
        44.0004         38.0004
  21776066.0944    9172570.97543   7150994.20842  21776068.3414   21776067.5204
        53.0004         45.0004
  22593252.2614    -125280.34043    -98736.24142  22593253.6464   22593253.1134
        49.0004         42.0004
 04  6 18 15 35  0.0000000  0  8G22G18G 6G16G15G30G26G29
  23295318.2744    8637419.11143   6745307.88942  23295317.0594   23295317.0684
        50.0004         42.0004
  21065375.9844    8895047.60943   6934441.94542  21065378.0804   21065376.1654
        56.0004         49.0004
  20493865.7874    9506174.05644   7403510.95642  20493867.4394   20493866.4934
        58.0004         50.0004
  23712705.6194    9069424.95143   7070437.42142  23712705.5894   23712704.9584
        43.0004         38.0004
  23772566.7594    8758856.80243   6829887.00142  23772565.4424   23772568.8594
        47.0004         39.0004
  24324907.5114    9942274.08443   7733188.28342  24324910.6604   24324915.7534
        43.0004         38.0004
  21774385.8844    9163741.91543   7144114.43242  21774387.3254   21774387.7744
        53.0004         45.0004
  22595631.6974    -112775.36743    -88992.10342  22595633.4864   22595634.0424
        48.0004         42.0004
 04  6 18 15 35 20.0000000  0  8G22G18G 6G16G15G30G26G29
  23283593.1754    8575805.72843   6697297.51242  23283594.3654   23283592.3814
        50.0004         42.0004
  21058649.4564    8859693.27944   6906893.12642  21058650.7734   21058649.1064
        57.0004         49.0004
  20498489.4954    9530471.43144   7422443.95942  20498491.0924   20498490.2514
        57.0004         50.0004
  23708787.2404    9048846.14843   7054401.97542  23708788.4794   23708789.7174
        42.0004         38.0004
  23763139.2154    8709319.83443   6791286.85742  23763141.6204   23763142.2864
        46.0004         38.0004
  24337603.8454   10008976.34843   7785164.01942  24337605.0274   24337605.8614
        43.0004         38.0004
  21772759.4754    9155197.15643   7137456.17342  21772761.5454   21772760.6984
        52.0004         45.0004
  22598057.8304    -100028.07443    -79059.15442  22598058.2934   22598058.7044
        49.0004         42.0004
 04  6 18 15 35 40.0000000  0  8G22G18G 6G16G15G30G26G29
  23271888.9214    8514304.57243   6649374.59642  23271890.3524   23271889.2194
        49.0004         42.0004
  21051957.3264    8824527.01644   6879490.85542  21051959.2884   21051957.2914
        58.0004         50.0004
  20503154.2364    9554984.49844   7441545.03442  20503155.6044   20503155.0504
        58.0004         50.0004
  23704916.7724    9028501.03943   7038548.65242  23704917.5634   23704918.2764
        44.0004         39.0004
  23753717.1204    8659804.85443   6752703.79742  23753717.9304   23753718.8814
        46.0004         38.0004
  24350292.3604   10075648.48943   7837116.23042  24350294.6584   24350294.5844
        45.0004         38.0004
  21771189.1044    9146942.98143   7131024.33742  21771189.8404   21771189.5454
        53.0004         45.0004
  22600530.8614     -87032.17843    -68932.48642  22600532.7284   22600532.3874
        49.0004         42.0004
 04  6 18 15 36  0.0000000  0  8G22G18G 6G16G15G30G26G29
  23260204.5564    8452909.93643   6601534.66242  23260205.5774   23260205.2884
        49.0004         42.0004
  21045300.1894    8789543.16344   6852230.73042  21045301.7984   21045300.0744
        58.0004         50.0004
  20507858.5184    9579706.94444   7460809.25942  20507859.9804   20507859.5084
        58.0004         51.0004
  23701087.5874    9008383.37943   7022872.54542  23701088.7304   23701091.6184
        42.0004         38.0004
  23744299.0834    8610305.45343   6714132.93042  23744297.8514   23744299.9314
        47.0004         38.0004
  24362972.7504   10142283.46843   7889039.47642  24362973.5694   24362973.6134
        46.0004         38.0004
  21769672.0174    9138973.47343   7124814.32042  21769674.5554   21769673.0264
        52.0004         45.0004
  22603050.1604     -73794.36143    -58617.30442  22603050.5294   22603052.5764
        49.0004         43.0004
 04  6 18 15 36 20.0000000  0  8G22G18G 6G16G15G30G26G29
  23248542.9714    8391629.79543   6553783.93642  23248542.6204   23248547.0704
        48.0004         42.0004
  21038679.2354    8754749.26644   6825118.62542  21038680.6404   21038679.2334
        58.0004         51.0004
  20512604.3454    9604646.45544   7480242.62842  20512605.8804   20512605.3114
        58.0004         51.0004
  23697304.8474    8988501.00543   7007379.81542  23697306.3984   23697308.6424
        43.0004         39.0004
  23734882.5224    8560829.48743   6675580.28342  23734885.9964   23734882.6254
        47.0004         39.0004
  24375646.3444   10208888.02643   7940939.02742  24375648.8474   24375648.4054
        46.0004         38.0004
  21768211.7684    9131296.57343   7118832.30942  21768213.5514   21768211.7694
        52.0004         44.0004
  22605616.7804     -60306.94943    -48107.64642  22605618.5304   22605619.1854
        51.0004         44.0004
 04  6 18 15 36 40.0000000  0  8G22G18G 6G16G15G30G26G29
  23236901.8414    8330461.22843   6506120.11542  23236902.0434   23236905.2754
        46.0004         42.0004
  21032093.3544    8720142.25044   6798152.13942  21032094.9414   21032093.7324
        58.0004         51.0004
  20517390.8274    9629799.47344   7499842.37542  20517392.3464   20517391.3444
        58.0004         51.0004
  23693566.6234    8968850.82843   6992068.01442  23693567.8534   23693569.4124
        45.0004         39.0004
  23725471.9274    8511373.47343   6637043.19842  23725474.3084   23725475.1434
        48.0004         40.0004
  24388314.1124   10275458.19943   7992811.75942  24388315.4884   24388312.3544
        45.0004         37.0004
  21766805.2314    9123909.25443   7113075.96142  21766807.6784   21766807.0804
        51.0004         44.0004
  22608231.2564     -46573.37043    -37406.14542  22608232.3804   22608232.7544
        52.0004         44.0004
 04  6 18 15 37  0.0000000  0  8G22G18G 6G16G15G30G26G29
  23225285.5754    8269402.70443   6458542.08242  23225283.3184   23225286.0274
        48.0004         43.0004
  21025543.4234    8685720.24544   6771329.80942  21025544.2254   21025543.4774
        58.0004         51.0004
  20522217.4464    9655163.99644   7519606.92542  20522218.9414   20522217.9684
        58.0004         51.0004
  23689870.7674    8949430.94243   6976935.63942  23689871.4004   23689872.9514
        45.0004         39.0004
  23716062.9954    8461935.39243   6598520.06742  23716063.6204   23716066.5534
        48.0004         40.0004
  24400972.3464   10341991.09243   8044655.48842  24400975.2694   24400973.1914
        44.0004         36.0004
  21765455.3254    9116809.88543   7107543.97142  21765456.3334   21765455.8894
        52.0004         45.0004
  22610890.4124     -32595.80643    -26514.52842  22610892.6104   22610891.6844
        52.0004         44.0004
 04  6 18 15 37 20.0000000  0  8G22G18G 6G16G15G30G26G29
  23213688.9924    8208456.98943   6411051.95942  23213687.2154   23213689.9674
        51.0004         44.0004
  21019028.4174    8651485.94544   6744653.73842  21019029.6704   21019029.2114
        57.0004         51.0004
  20527085.2004    9680742.39844   7539538.13942  20527086.6714   20527085.6334
        58.0004         51.0004
  23686219.2934    8930244.05643   6961984.81942  23686221.4864   23686221.5454
        45.0004         39.0004
  23706660.3584    8412517.80943   6560012.91242  23706658.6004   23706662.9264
        47.0004         40.0004
  24413626.9634   10408488.52143   8096471.55042  24413625.9214   24413625.2964
        44.0004         36.0004
  21764159.5324    9110001.19243   7102238.48342  21764161.8964   21764161.0964
        52.0004         45.0004
  22613596.9704     -18371.81343    -15430.92642  22613598.4264   22613598.1094
        51.0004         44.0004
 04  6 18 15 37 40.0000000  0  8G22G18G 6G16G15G30G26G29
  23202112.7634    8147622.31843   6363648.37042  23202112.7144   23202113.0694
        52.0004         44.0004
  21012548.6374    8617437.15543   6718122.21742  21012550.0834   21012550.0844
        56.0004         50.0004
  20531993.2034    9706532.40744   7559634.23342  20531994.5274   20531993.3994
        59.0004         51.0004
  23682613.2834    8911287.96743   6947213.84742  23682613.4444   23682612.1204
        44.0004         39.0004
  23697259.6724    8363118.54343   6521520.05942  23697261.2844   23697260.4554
        47.0004         40.0004
  24426275.9894   10474947.48243   8148257.65442  24426274.5744   24426276.1954
        45.0004         36.0004
  21762918.2394    9103481.21343   7097157.96142  21762920.5104   21762921.1354
        53.0004         46.0004
  22616350.3014      -3903.77443     -4157.14142  22616351.9344   22616350.8754
        51.0004         44.0004
 04  6 18 15 38  0.0000000  0  8G22G18G 6G16G15G30G26G29
  23190558.7604    8086902.66843   6316334.40642  23190558.9014   23190559.1834
        53.0004         45.0004
  21006105.2924    8583577.81843   6691738.31642  21006106.5864   21006106.8194
        56.0004         50.0004
  20536941.5614    9732537.21344   7579897.68942  20536943.0404   20536941.8724
        59.0004         51.0004
  23679050.6484    8892566.46143   6932625.62742  23679050.0164   23679047.9334
        45.0004         39.0004
  23687863.8844    8313740.99043   6483044.09342  23687865.1304   23687866.5024
        47.0004         39.0004
  24438917.0484   10541370.64043   8200015.83442  24438918.0044   24438918.8874
        46.0004         37.0004
  21761732.7454    9097253.61143   7092305.27742  21761734.5764   21761735.7674
        53.0004         46.0004
  22619149.9674      10811.49343      7309.28642  22619151.5254   22619150.8984
        50.0004         44.0004
 04  6 18 15 38 20.0000000  0  8G22G18G 6G16G15G30G26G29
  23179024.3764    8026293.13943   6269106.24342  23179024.6994   23179025.9024
        52.0004         44.0004
  20999696.9384    8549902.45043   6665497.76442  20999698.0104   20999698.2024
        55.0004         49.0004
  20541929.9784    9758751.67044   7600324.52542  20541931.6354   20541930.4434
        59.0004         51.0004
  23675530.1664    8874074.32943   6918216.17642  23675531.8024   23675531.6164
        45.0004         39.0004
  23678469.6254    8264379.83943   6444580.92342  23678469.8164   23678471.1074
        46.0004         39.0004
  24451550.0824   10607751.87843   8251741.35242  24451550.6204   24451549.9634
        48.0004         38.0004
  21760603.1384    9091313.59343   7087676.67842  21760604.1124   21760605.5344
        54.0004         46.0004
  22621996.7134      25768.75043     18964.27342  22621996.8504   22621998.1564
        51.0004         43.0004
 04  6 18 15 38 40.0000000  0  8G22G18G 6G16G15G30G26G29
  23167513.7964    7965803.35843   6221971.38542  23167514.9224   23167512.6844
        52.0004         44.0004
  20993326.0554    8516420.33743   6639407.80842  20993327.2484   20993326.5564
        55.0004         49.0004
  20546959.5794    9785184.73044   7620921.68842  20546961.3744   20546960.5874
        58.0004         50.0004
  23672055.9904    8855821.05943   6903992.89942  23672057.9184   23672057.6074
        44.0004         39.0004
  23669082.0924    8215044.40943   6406137.77242  23669083.6354   23669085.3964
        46.0004         39.0004
  24464176.3994   10674099.83143   8303440.95742  24464178.9154   24464179.3374
        48.0004         39.0004
  21759529.3244    9085670.61443   7083279.53842  21759530.7264   21759531.2054
        54.0004         46.0004
  22624889.8764      40977.12943     30814.93442  22624892.2914   22624892.1454
        50.0004         44.0004
 04  6 18 15 39  0.0000000  0  8G22G18G 6G16G15G30G26G29
  23156023.1204    7905421.52843   6174920.65942  23156023.2834   23156022.4684
        51.0004         43.0004
  20986989.2324    8483119.69443   6613459.26442  20986990.8894   20986989.6034
        56.0004         49.0004
  20552029.1474    9811824.24144   7641679.73242  20552030.3654   20552030.1644
        58.0004         50.0004
  23668626.9694    8837794.54243   6889946.24642  23668627.1384   23668628.5694
        45.0004         39.0004
  23659696.7624    8165722.40443   6367705.05942  23659697.6964   23659698.9104
        46.0004         39.0004
  24476791.8964   10740401.35343   8355104.36642  24476794.5154   24476796.5814
        47.0004         40.0004
  21758510.5814    9080312.66643   7079104.51842  21758511.9454   21758511.7394
        55.0004         46.0004
  22627829.8514      56424.18643     42851.57942  22627831.5194   22627831.0434
        51.0004         44.0004
 04  6 18 15 39 20.0000000  0  8G22G18G 6G16G15G30G26G29
  23144555.1494    7845158.62843   6127962.61442  23144555.0044   23144553.9034
        50.0004         42.0004
  20980689.4664    8450010.87443   6587660.20242  20980690.5764   20980689.0834
        56.0004         49.0004
  20557139.4064    9838680.33744   7662606.54842  20557141.0994   20557140.8124
        57.0004         50.0004
  23665240.4254    8820005.23443   6876084.46642  23665242.2504   23665243.7834
        44.0004         39.0004
  23650316.1864    8116424.33143   6329291.08342  23650315.8234   23650318.1234
        47.0004         40.0004
  24489400.3464   10806666.32443   8406739.33342  24489403.3304   24489408.0174
        45.0004         40.0004
  21757547.3744    9075250.47043   7075159.94442  21757548.9144   21757547.9574
        55.0004         46.0004
  22630816.9694      72120.09743     55082.14342  22630817.4134   22630817.7474
        52.0004         44.0004
 04  6 18 15 39 40.0000000  0  8G22G18G 6G16G15G30G26G29
  23133107.0974    7785008.49543   6081092.43642  23133106.1874   23133105.8334
        49.0004         41.0004
  20974423.9444    8417087.67243   6562005.78942  20974425.4964   20974423.9484
        56.0004         49.0004
  20562290.0444    9865746.56844   7683697.10442  20562291.4594   20562291.3594
        57.0004         50.0004
  23661901.4614    8802446.75543   6862402.54842  23661902.5324   23661901.1464
        45.0004         39.0004
  23640938.2974    8067143.55343   6290890.54042  23640939.0874   23640940.9624
        47.0004         39.0004
  24502001.3674   10872887.31343   8458339.98542  24502004.1364   24502009.9974
        45.0004         39.0004
  21756638.8814    9070477.72143   7071440.91442  21756640.4064   21756639.9174
        55.0004         46.0004
  22633850.2964      88058.38843     67501.56842  22633851.5314   22633851.1144
        52.0004         45.0004
 04  6 18 15 40  0.0000000  0  8G22G18G 6G16G15G30G26G29
  23121682.0874    7724978.86143   6034316.14342  23121684.2274   23121683.4554
        47.0004         40.0004
  20968195.9054    8384357.44844   6536501.74742  20968197.2214   20968195.6794
        57.0004         49.0004
  20567481.7954    9893030.09044   7704956.98542  20567483.4994   20567483.2354
        57.0004         50.0004
  23658605.6054    8785126.80843   6848906.48242  23658606.0934   23658605.7934
        45.0004         39.0004
  23631564.7364    8017887.53843   6252509.28842  23631567.6374   23631566.5714
        47.0004         40.0004
  24514593.8554   10939070.80743   8509911.45242  24514596.1474   24514603.2154
        42.0004         38.0004
  21755787.0494    9066002.10143   7067953.41442  21755788.4824   21755788.4984
        55.0004         46.0004
  22636930.7644     104246.18543     80115.40042  22636932.6034   22636932.0784
        53.0004         45.0004
 04  6 18 15 40 20.0000000  0  8G22G18G 6G16G15G30G26G29
  23110281.8404    7665072.32543   5987635.74642  23110280.4564   23110282.3404
        46.0004         40.0004
  20962005.0484    8351822.61644   6511149.96542  20962006.2944   20962004.1374
        57.0004         49.0004
  20572715.4944    9920532.80244   7726387.65442  20572717.0554   20572716.6434
        57.0004         50.0004
  23655355.5294    8768047.53443   6835597.95042  23655356.9734   23655355.0874
        46.0004         39.0004
  23622196.6464    7968658.54943   6214149.10542  23622196.6964   23622197.5324
        46.0004         39.0004
  24527174.7844    1552698.36953   1195854.92052  24527177.1074   24527190.1244
        38.0004         37.0004
  21754991.7364    9061826.04743   7064699.33442  21754994.2034   21754993.9624
        53.0004         46.0004
  22640058.7624     120685.49643     92925.23442  22640060.4544   22640059.6694
        52.0004         44.0004
 04  6 18 15 40 40.0000000  0  7G22G18G 6G16G15G26G29
  23098905.5294    7605283.55343   5941047.12142  23098905.8874   23098905.6044
        47.0004         41.0004
  20955849.8644    8319477.37544   6485945.91442  20955851.3384   20955849.0394
        58.0004         49.0004
  20577989.2674    9948249.18144   7747984.81742  20577991.2374   20577990.8784
        57.0004         50.0004
  23652148.4744    8751203.34943   6822472.59942  23652151.5304   23652151.4124
        46.0004         39.0004
  23612831.7694    7919450.82643   6175805.48942  23612831.8264   23612835.3434
        45.0004         39.0004
  21754253.8844    9057944.01243   7061674.36742  21754255.2654   21754256.1714
        53.0004         46.0004
  22643234.1624     137370.43543    105926.47642  22643235.5214   22643234.4224
        53.0004         45.0004
 04  6 18 15 41  0.0000000  0  7G22G18G 6G16G15G26G29
  23087550.0314    7545600.87443   5894541.18542  23087551.3434   23087548.0164
        50.0004         41.0004
  20949728.3614    8287309.91544   6460880.39542  20949729.8354   20949727.7584
        58.0004         50.0004
  20583302.2664    9976166.81944   7769738.81342  20583303.7754   20583303.2424
        57.0004         50.0004
  23648986.2064    8734582.18743   6809521.04342  23648987.4234   23648988.5444
        46.0004         39.0004
  23603469.5664    7870252.24743   6137468.96642  23603471.1194   23603471.8594
        45.0004         39.0004
  21753568.6064    9054344.11743   7058869.24142  21753570.5344   21753571.1974
        53.0004         46.0004
  22646453.6084     154288.54143    119109.37042  22646455.5814   22646453.5564
        53.0004         45.0004
 04  6 18 15 41 20.0000000  0  7G22G18G 6G16G15G26G29
  23076216.5044    7486033.80743   5848125.33142  23076215.9594   23076214.3274
        51.0004         42.0004
  20943642.5394    8255329.38544   6435960.52042  20943644.3304   20943642.1574
        58.0004         50.0004
  20588655.0704   10004294.81944   7791656.71942  20588656.4044   20588655.8884
        58.0004         50.0004
  23645867.4064    8718193.50543   6796750.64742  23645868.8174   23645870.4534
        46.0004         40.0004
  23594112.0774    7821071.83643   6099146.61442  23594110.9274   23594111.6064
        45.0004         39.0004
  21752939.0064    9051035.84743   7056291.35742  21752940.2414   21752941.1744
        53.0004         46.0004
  22649719.0494     171449.18443    132481.30842  22649720.8474   22649719.9424
        51.0004         43.0004
 04  6 18 15 41 40.0000000  0  7G22G18G 6G16G15G26G29
  23064903.3244    7426584.54143   5801801.28042  23064903.4994   23064901.4614
        52.0004         43.0004
  20937592.5324    8223537.85844   6411187.92842  20937594.4144   20937592.5734
        58.0004         50.0004
  20594048.0534   10032634.86844   7813739.85442  20594049.6264   20594048.4054
        58.0004         50.0004
  23642794.6224    8702039.24343   6784162.91442  23642795.7574   23642795.7194
        47.0004         40.0004
  23584756.4934    7771911.75643   6060840.10742  23584755.6984   23584757.9044
        45.0004         39.0004
  21752364.6284    9048021.26043   7053942.31242  21752366.5464   21752366.6424
        53.0004         46.0004
  22653031.0714     188853.85943    146043.37742  22653032.8104   22653032.2514
        51.0004         43.0004
 04  6 18 15 42  0.0000000  0  8G22G18G 6G16G15G30G26G29
  23053612.3554    7367252.08643   5755568.25042  23053613.2334   23053611.5614
        52.0004         44.0004
  20931578.7984    8191933.93544   6386561.51742  20931579.9874   20931578.7904
        58.0004         50.0004
  20599481.3824   10061185.52644   7835987.09942  20599482.5674   20599481.8344
        58.0004         50.0004
  23639764.6584    8686118.11343   6771756.80642  23639766.5044   23639767.3284
        47.0004         40.0004
  23575402.8894    7722770.46443   6022548.24642  23575404.8184   23575406.2234
        45.0004         39.0004
  24589985.512
        42.000
  21751847.0704    9045299.11443   7051821.13142  21751848.0144   21751848.2784
        52.0004         45.0004
  22656389.2454     206500.95643    159794.34842  22656389.7124   22656390.7374
        51.0004         43.0004
 04  6 18 15 42 20.0000000  0  8G22G18G 6G16G15G30G26G29
  23042343.4184    7308033.03743   5709423.58442  23042343.2124   23042342.6864
        52.0004         44.0004
  20925599.5094    8160513.92244   6362078.41542  20925601.0044   20925599.6394
        57.0004         50.0004
  20604953.4774   10089942.72844   7858395.29342  20604954.8134   20604954.4404
        58.0004         51.0004
  23636778.2284    8670426.27343   6759529.38642  23636780.1964   23636779.4234
        47.0004         40.0004
  23566055.9574    7673644.24443   5984268.10942  23566056.2014   23566057.5314
        45.0004         39.0004
  24602520.124
        43.000
  21751384.4174    9042865.82443   7049925.03942  21751385.4314   21751385.5884
        53.0004         45.0004
  22659792.2134     224386.60343    173731.19242  22659793.7424   22659794.0264
        51.0004         43.0004
 04  6 18 15 42 40.0000000  0  8G22G18G 6G16G15G30G26G29
  23031097.8834    7248936.35443   5663374.25142  23031097.8894   23031096.7324
        52.0004         44.0004
  20919656.8354    8129286.42243   6337745.31242  20919658.2274   20919656.9694
        56.0004         50.0004
  20610466.7134   10118914.76944   7880970.89742  20610468.2874   20610467.9564
        58.0004         51.0004
  23633837.4794    8654972.36343   6747487.36842  23633838.1394   23633839.9824
        47.0004         39.0004
  23556712.0954    7624541.55343   5946006.32342  23556711.2674   23556714.7134
        46.0004         39.0004
  24615042.691
        46.000
  21750976.9014    9040730.06343   7048260.80042  21750979.8084   21750978.7224
        52.0004         45.0004
  22663243.1804     242518.86543    187860.20442  22663244.7254   22663245.3624
        50.0004         43.0004
 04  6 18 15 43  0.0000000  0  8G22G18G 6G16G15G30G26G29
  23019874.5204    7189960.81143   5617419.32042  23019874.4664   23019873.4044
        51.0004         44.0004
  20913750.2164    8098249.93143   6313561.03942  20913751.5994   20913751.2654
        55.0004         50.0004
  20616020.8054   10148099.90944   7903712.54642  20616022.0384   20616021.8364
        59.0004         51.0004
  23630940.9104    8639754.69643   6735629.41442  23630943.8394   23630943.6774
        46.0004         39.0004
  23547371.0684    7575460.69643   5907761.55442  23547371.8034   23547374.5654
        45.0004         39.0004
  24627556.7514      99887.29053     60661.20452  24627558.2444   24627558.8404
        44.0004         36.0004
  21750627.6244    9038890.27543   7046827.19142  21750629.3294   21750628.3684
        53.0004         45.0004
  22666739.1584     260895.86243    202179.92242  22666742.6264   22666743.3014
        49.0004         43.0004
 04  6 18 15 43 20.0000000  0  8G22G18G 6G16G15G30G26G29
  23008674.3774    7131106.55343   5571558.89342  23008674.1964   23008674.4544
        51.0004         43.0004
  20907880.2124    8067404.23443   6289525.42342  20907881.7074   20907881.6574
        55.0004         50.0004
  20621614.6364   10177497.82744   7926619.99742  20621616.1954   20621616.3704
        58.0004         51.0004
  23628091.0344    8624773.26243   6723955.56342  23628092.3794   23628092.9404
        46.0004         39.0004
  23538034.4414    7526401.55443   5869533.66942  23538035.0824   23538040.1734
        45.0004         40.0004
  24640062.4774     165604.24943    111869.01342  24640063.6774   24640069.0734
        45.0004         37.0004
  21750334.0694    9037346.64043   7045624.34442  21750336.4294   21750335.0504
        54.0004         46.0004
  22670282.9714     279517.37743    216690.16342  22670284.6394   22670286.4924
        50.0004         43.0004
 04  6 18 15 43 40.0000000  0  8G22G18G 6G16G15G30G26G29
  22997498.4744    7072376.04843   5525794.90242  22997498.5444   22997497.5604
        50.0004         43.0004
  20902047.2044    8036751.57943   6265640.23242  20902048.6874   20902048.9434
        55.0004         50.0004
  20627250.3404   10207110.41344   7949694.72142  20627251.4044   20627250.9944
        58.0004         51.0004
  23625286.1554    8610030.24243   6712467.46142  23625286.8354   23625287.5194
        47.0004         39.0004
  23528704.3154    7477366.25043   5831324.37142  23528704.4654   23528708.7144
        46.0004         40.0004
  24652558.7474     231274.49943    163040.53342  24652558.9914   24652568.2304
        44.0004         38.0004
  21750097.6854    9036101.24643   7044653.89842  21750098.9654   21750098.3314
        55.0004         46.0004
  22673873.7824     298385.28943    231392.40242  22673874.6924   22673877.3334
        50.0004         43.0004
 04  6 18 15 44  0.0000000  0  8G22G18G 6G16G15G30G26G29
  22986344.1774    7013761.60643   5480121.35442  22986344.2924   22986342.2174
        50.0004         43.0004
  20896250.0454    8006284.31743   6241899.50942  20896250.8524   20896250.9034
        55.0004         50.0004
  20632924.0794   10236929.55444   7972930.39342  20632925.6704   20632925.0834
        58.0004         50.0004
  23622522.8704    8595517.84443   6701159.08142  23622525.6664   23622523.0554
        46.0004         38.0004
  23519377.8694    7428346.74943   5793127.41642  23519376.1564   23519381.4614
        46.0004         40.0004
  24665045.8594     296889.29443    214168.87042  24665047.1054   24665053.7374
        46.0004         38.0004
  21749916.0404    9035146.36943   7043909.84342  21749917.9644   21749917.5524
        56.0004         47.0004
  22677509.7564     317491.37843    246280.23142  22677510.3994   22677512.8714
        51.0004         43.0004
 04  6 18 15 44 20.0000000  0  8G22G18G 6G16G15G30G26G29
  22975212.1004    6955265.48543   5434539.99142  22975212.9124   22975210.8184
        50.0004         43.0004
  20890487.6714    7976004.05043   6218304.50042  20890488.7674   20890488.5254
        55.0004         49.0004
  20638637.7314   10266956.86944   7996328.28642  20638639.4504   20638638.7904
        57.0004         50.0004
  23619805.0244    8581237.77843   6690031.72942  23619807.2654   23619806.1774
        44.0004         38.0004
  23510052.4454    7379344.80743   5754944.14242  23510052.4684   23510056.7204
        47.0004         41.0004
  24677521.2794     362449.80643    265254.90742  24677523.0434   24677528.7904
        45.0004         38.0004
  21749789.8324    9034483.95143   7043393.67942  21749792.1514   21749790.9164
        56.0004         47.0004
  22681190.7364     336837.13343    261354.82742  22681192.6034   22681193.0844
        51.0004         43.0004
 04  6 18 15 44 40.0000000  0  9G22G21G18G 6G16G15G30G26G29
  22964105.2574    6896895.18543   5389056.68942  22964104.7484   22964102.8034
        50.0004         43.0004
  20843384.056
        45.000
  20884762.4604    7945917.98643   6194860.82042  20884763.7174   20884763.2924
        55.0004         49.0004
  20644392.9114   10297199.19244   8019893.71142  20644393.8934   20644393.2054
        57.0004         50.0004
  23617133.8804    8567197.29443   6679091.05242  23617134.8494   23617134.0374
        45.0004         38.0004
  23500732.2164    7330367.61843   5716780.13942  23500733.3164   23500735.9444
        48.0004         41.0004
  24689988.8264     427962.28443    316303.51342  24689990.0114   24689995.8954
        46.0004         39.0004
  21749720.4274    9034121.28643   7043111.08942  21749722.7844   21749722.0744
        56.0004         47.0004
  22684919.3674     356429.53243    276621.61942  22684920.8514   22684920.8074
        52.0004         43.0004
 04  6 18 15 45  0.0000000  0  9G22G21G18G 6G16G15G30G26G29
  22953019.4934    6838645.75043   5343667.56542  22953020.4134   22953020.4584
        50.0004         43.0004
  20840187.169
        44.000
  20879073.0464    7916020.86543   6171564.36842  20879074.2754   20879073.3644
        55.0004         49.0004
  20650187.2564   10327651.29244   8043622.60542  20650188.8354   20650188.9424
        57.0004         50.0004
  23614506.1004    8553391.05743   6668332.92242  23614508.5654   23614505.4264
        44.0004         38.0004
  23491416.0384    7281409.79443   5678631.24142  23491415.5284   23491418.9894
        48.0004         41.0004
  24702445.6634     493420.69243    367309.99842  24702446.4654   24702451.8704
        46.0004         39.0004
  21749707.2544    9034053.16143   7043058.01142  21749709.3784   21749709.4504
        55.0004         47.0004
  22688693.7204     376262.91043    292076.16742  22688694.5254   22688696.7094
        51.0004         43.0004
 04  6 18 15 45 20.0000000  0  8G22G21G18G 6G16G15G26G29
  22941962.1514    6780533.75443   5298385.52342  22941962.4004   22941962.5704
        50.0004         43.0004
  20837008.671
        44.000
  20873423.2844    7886329.18943   6148428.01842  20873424.4514   20873423.2574
        56.0004         49.0004
  20656025.8184   10358329.04844   8067527.33042  20656026.6684   20656026.6304
        57.0004         50.0004
  23611926.3714    8539835.39743   6657770.05542  23611926.5634   23611927.4714
        44.0004         37.0004
  23482106.6464    7232487.68443   5640510.17342  23482106.7734   23482110.0764
        48.0004         40.0004
  21749753.8554    9034296.03343   7043247.26242  21749755.5304   21749756.8374
        56.0004         47.0004
  22692517.0404     396353.49543    307731.13842  22692517.9294   22692518.6044
        52.0004         44.0004
 04  6 18 15 45 40.0000000  0  8G22G21G18G 6G16G15G26G29
  22930924.3804    6722526.91143   5253185.41742  22930924.4744   22930924.2354
        50.0004         44.0004
  20833842.804
        44.000
  20867806.2954    7856810.03044   6125426.09942  20867807.5974   20867805.9924
        57.0004         49.0004
  20661900.3984   10389199.53644   8091582.23642  20661901.6374   20661901.3744
        57.0004         50.0004
  23609387.2414    8526497.62143   6647376.97242  23609387.8684   23609391.0144
        42.0004         37.0004
  23472795.9834    7183568.43143   5602391.32842  23472798.9434   23472800.0644
        47.0004         40.0004
  21749853.4314    9034817.22843   7043653.40142  21749855.6404   21749855.1104
        55.0004         47.0004
  22696382.7504     416668.04843    323560.64142  22696384.0554   22696385.9804
        52.0004         44.0004
 04  6 18 15 46  0.0000000  0  8G22G21G18G 6G16G15G26G29
  22919911.8104    6664650.91143   5208087.26142  22919910.6674   22919911.2984
        50.0004         44.0004
  20830692.975
        44.000
  20862226.5054    7827488.78944   6102578.40742  20862228.1324   20862225.9694
        57.0004         49.0004
  20667816.3604   10420287.91444   8115806.93142  20667817.7264   20667817.1064
        58.0004         50.0004
  23606896.5484    8513403.09043   6637173.46042  23606895.6064   23606899.0394
        42.0004         38.0004
  23463493.5394    7134677.49943   5564294.51642  23463493.6824   23463496.7034
        46.0004         40.0004
  21750009.7334    9035642.11243   7044296.18642  21750011.9304   21750011.9854
        54.0004         46.0004
  22700294.7654     437231.79743    339584.31942  22700297.0304   22700298.6674
        51.0004         44.0004
 04  6 18 15 46 20.0000000  0  8G22G21G18G 6G16G15G26G29
  22908917.7014    6606882.33643   5163072.82242  22908918.0124   22908917.3834
        50.0004         44.0004
  20827552.309
        42.000
  20856680.8494    7798342.01244   6079866.65342  20856681.6464   20856679.9634
        58.0004         49.0004
  20673769.4624   10451570.32444   8140182.81542  20673770.7294   20673770.3564
        58.0004         50.0004
  23604445.4344    8500528.25443   6627141.11642  23604446.6854   23604449.5564
        43.0004         38.0004
  23454191.4114    7085791.21043   5526201.34942  23454190.5944   23454193.0204
        47.0004         39.0004
  21750219.7194    9036747.30143   7045157.37842  21750221.1404   21750221.6864
        53.0004         45.0004
  22704252.3974     458020.73243    355783.48942  22704253.1424   22704254.0384
        52.0004         44.0004
 04  6 18 15 46 40.0000000  0  8G22G21G18G 6G16G15G26G29
  22897951.4794    6549249.50043   5118164.14142  22897952.1264   22897951.1244
        51.0004         44.0004
  20824431.288     -123387.86052                                  20824435.1424
        40.000          32.0004
  20851172.5764    7769397.60244   6057312.59842  20851173.8234   20851171.6434
        58.0004         49.0004
  20679764.5444   10483074.47744   8164731.49042  20679765.7094   20679765.3824
        58.0004         50.0004
  23602045.2244    8487900.97643   6617301.67442  23602045.3044   23602045.6284
        45.0004         39.0004
  23444893.1134    7036937.47243   5488133.55442  23444893.1644   23444895.4414
        45.0004         39.0004
  21750488.1404    9038160.83243   7046258.82442  21750489.6524   21750490.6184
        52.0004         45.0004
  22708256.3004     479062.52443    372179.66442  22708258.6744   22708258.1984
        52.0004         44.0004
 04  6 18 15 47  0.0000000  0  8G22G21G18G 6G16G15G26G29
  22887006.6574    6491736.70643   5073349.00642  22887006.9434   22887006.5824
        51.0004         44.0004
  20821323.5024    -295913.70953   -136114.77542  20821329.0324   20821323.8714
        39.0004         33.0004
  20845699.9014    7740639.46244   6034903.68242  20845701.2234   20845699.0304
        58.0004         49.0004
  20685798.3084   10514784.12544   8189440.28942  20685800.1104   20685799.0984
        58.0004         50.0004
  23599685.4234    8475505.13743   6607642.56942  23599686.7194   23599686.4974
        44.0004         39.0004
  23435600.4464    6988100.29143   5450078.65642  23435601.3234   23435604.0234
        46.0004         39.0004
  21750812.1934    9039866.54443   7047587.95542  21750814.2384   21750815.4814
        52.0004         45.0004
  22712305.5844     500340.77443    388760.11042  22712306.3884   22712307.5084
        52.0004         44.0004
 04  6 18 15 47 20.0000000  0  7G22G18G 6G16G15G26G29
  22876086.0034    6434348.99743   5028631.35342  22876087.6434   22876086.0024
        52.0004         44.0004
  20840263.7094    7712072.43044   6012643.69842  20840265.2544   20840263.0964
        57.0004         49.0004
  20691872.5364   10546703.72744   8214312.67742  20691873.9344   20691872.7054
        58.0004         50.0004
  23597371.3964    8463345.64643   6598167.63442  23597372.7474   23597372.7544
        46.0004         40.0004
  23426311.7894    6939284.36843   5412040.32742  23426312.7364   23426316.4234
        47.0004         39.0004
  21751194.1264    9041869.41943   7049148.62142  21751195.6334   21751197.0824
        52.0004         45.0004
  22716399.7424     521860.01643    405528.34142  22716402.9934   22716402.8364
        51.0004         44.0004
 04  6 18 15 47 40.0000000  0  7G22G18G 6G16G15G26G29
  22865188.9464    6377084.27043   4984009.52442  22865188.8324   22865188.8064
        52.0004         44.0004
  20834863.9014    7683694.17544   5990530.80242  20834865.0964   20834862.9094
        58.0004         49.0004
  20697986.2094   10578830.58744   8239346.57742  20697987.3214   20697986.5424
        58.0004         49.0004
  23595102.6024    8451419.80543   6588874.75642  23595103.3894   23595105.0564
        46.0004         40.0004
  23417025.4704    6890487.28643   5374016.67542  23417027.6424   23417028.0924
        48.0004         39.0004
  21751631.4334    9044167.00443   7050938.92642  21751633.8034   21751635.3034
        51.0004         45.0004
  22720540.3374     543617.48443    422482.20642  22720541.5254   22720543.3884
        51.0004         44.0004
 04  6 18 15 48  0.0000000  0  7G22G18G 6G16G15G26G29
  22854315.6794    6319947.97743   4939487.79342  22854316.0964   22854315.4694
        52.0004         44.0004
  20829499.9004    7655509.68744   5968568.89142  20829501.2734   20829500.0454
        57.0004         49.0004
  20704139.5834   10611169.62344   8264545.80942  20704141.3724   20704140.4944
        57.0004         49.0004
  23592879.4354    8439732.76543   6579767.97742  23592879.6794   23592880.6594
        47.0004         40.0004
  23407744.0464    6841714.18443   5336011.71142  23407745.4904   23407747.0234
        47.0004         39.0004
  21752125.8164    9046764.52343   7052962.95242  21752127.8004   21752128.8384
        52.0004         45.0004
  22724727.4764     565618.01843    439625.46742  22724728.5464   22724729.4924
        52.0004         45.0004
 04  6 18 15 48 20.0000000  0  7G22G18G 6G16G15G26G29
  22843465.9074    6262931.91043   4895059.73942  22843465.9844   22843464.7564
        52.0004         44.0004
  20824171.9744    7627510.31243   5946751.21642  20824173.0064   20824172.1914
        56.0004         49.0004
  20710332.3464   10643712.04644   8289903.52542  20710334.0644   20710333.1494
        58.0004         50.0004
  23590698.7634    8428276.19043   6570840.75642  23590700.0054   23590700.7664
        47.0004         41.0004
  23398467.0144    6792956.51543   5298018.78742  23398466.6434   23398468.1074
        47.0004         40.0004
  21752674.4754    9049653.37143   7055214.00542  21752676.7704   21752678.0594
        51.0004         45.0004
  22728959.0624     587852.76543    456951.23842  22728960.1174   22728961.0454
        52.0004         44.0004
 04  6 18 15 48 40.0000000  0  7G22G18G 6G16G15G26G29
  22832640.1614    6206043.64443   4850731.27042  22832640.4564   22832640.0234
        52.0004         44.0004
  20818879.7554    7599703.63343   5925083.68242  20818880.9534   20818880.9584
        56.0004         49.0004
  20716565.4044   10676464.98344   8315425.27842  20716566.9224   20716565.9404
        58.0004         50.0004
  23588563.1604    8417057.19043   6562098.64842  23588565.4504   23588566.0494
        47.0004         41.0004
  23389193.5134    6744221.45643   5260043.45642  23389194.7694   23389195.0844
        48.0004         40.0004
  21753281.9984    9052841.12443   7057697.96742  21753284.0694   21753285.5114
        53.0004         45.0004
  22733235.8774     610328.68343    474464.92842  22733237.0724   22733237.4704
        52.0004         44.0004
 04  6 18 15 49  0.0000000  0  7G22G18G 6G16G15G26G29
  22821839.2184    6149280.39443   4806500.21342  22821838.9354   22821838.2954
        52.0004         44.0004
  20813624.2974    7572086.56743   5903563.88542  20813625.5404   20813625.9364
        55.0004         49.0004
  20722837.2014   10709424.86044   8341108.28742  20722838.8474   20722838.3304
        58.0004         50.0004
  23586473.6094    8406072.47443   6553539.10242  23586475.1324   23586474.8794
        47.0004         40.0004
  23379921.3104    6695505.88043   5222083.32142  23379922.5794   23379924.4414
        47.0004         40.0004
  21753944.2494    9056324.35443   7060412.17542  21753946.1554   21753945.8974
        51.0004         45.0004
  22737557.5634     633042.25543    492163.80342  22737559.2714   22737560.9804
        52.0004         44.0004
 04  6 18 15 49 20.0000000  0  7G22G18G 6G16G15G26G29
  22811062.2694    6092644.82643   4762368.64842  22811062.7234   22811061.5704
        52.0004         44.0004
  20808405.5654    7544661.13743   5882193.41842  20808406.9044   20808406.7944
        55.0004         50.0004
  20729149.5304   10742593.93644   8366954.30342  20729151.0164   20729150.5374
        58.0004         50.0004
  23584426.8774    8395324.47543   6545164.02342  23584428.6774   23584428.7294
        46.0004         40.0004
  23370653.3544    6646812.10343   5184140.17842  23370655.9104   23370656.9724
        45.0004         39.0004
  21754664.4124    9060105.61443   7063358.61142  21754665.9954   21754666.2854
        52.0004         45.0004
  22741924.9704     655995.54043    510049.45642  22741927.2094   22741928.1734
        52.0004         44.0004
 04  6 18 15 49 40.0000000  0  7G22G18G 6G16G15G26G29
  22800307.6374    6036134.45643   4718334.63442  22800308.0864   22800306.6094
        51.0004         43.0004
  20803223.1444    7517424.76043   5860970.26842  20803224.0634   20803223.6664
        55.0004         50.0004
  20735499.9634   10775969.09544   8392960.90142  20735501.5994   20735501.4094
        57.0004         50.0004
  23582426.0204    8384810.53743   6536971.33442  23582427.7684   23582428.7964
        45.0004         40.0004
  23361391.7424    6598137.33843   5146211.82542  23361391.5904   23361393.7254
        45.0004         39.0004
  21755439.8594    9064182.25443   7066535.24142  21755441.7744   21755441.3804
        53.0004         45.0004
  22746338.0204     679185.59543    528119.60842  22746339.3634   22746341.1674
        51.0004         44.0004
 04  6 18 15 50  0.0000000  0  7G22G18G 6G16G15G26G29
  22789578.6804    5979755.08843   4674402.68142  22789578.6164   22789579.0314
        51.0004         43.0004
  20798077.2994    7490382.82643   5839898.63742  20798078.6184   20798078.0324
        56.0004         50.0004
  20741891.0534   10809555.45144   8419132.07142  20741892.1754   20741892.6934
        57.0004         50.0004
  23580471.0454    8374535.78943   6528965.03142  23580471.2924   23580475.3524
        45.0004         40.0004
  23352136.3964    6549487.02443   5108302.53542  23352135.6534   23352138.2924
        46.0004         39.0004
  21756273.3284    9068559.59443   7069946.16742  21756275.8594   21756275.4874
        54.0004         46.0004
  22750796.6954     702617.23443    546378.00442  22750797.5224   22750800.1794
        50.0004         44.0004
 04  6 18 15 50 20.0000000  0  7G22G18G 6G16G15G26G29
  22778873.5554    5923500.60843   4630568.03842  22778873.6954   22778873.0984
        51.0004         43.0004
  20792967.6834    7463528.84943   5818973.46342  20792968.6544   20792967.7114
        56.0004         50.0004
  20748321.0554   10843346.46944   8445462.72242  20748322.2784   20748323.0874
        57.0004         50.0004
  23578560.1074    8364493.84443   6521140.11342  23578560.1314   23578563.0214
        44.0004         39.0004
  23342881.2044    6500854.75243   5070407.30642  23342881.0524   23342883.3594
        46.0004         40.0004
  21757163.5904    9073231.12843   7073586.34342  21757165.4084   21757163.5324
        55.0004         45.0004
  22755300.7714     726283.66543    564819.36942  22755302.2724   22755304.2314
        50.0004         44.0004
 04  6 18 15 50 40.0000000  0  7G22G18G 6G16G15G26G29
  22768193.7864    5867376.95743   4586835.35542  22768193.5444   22768194.0534
        51.0004         44.0004
  20787894.0974    7436868.45143   5798199.13242  20787895.2534   20787894.3524
        56.0004         51.0004
  20754791.0164   10877347.43043   8471956.97142  20754792.4924   20754793.1164
        56.0004         50.0004
  23576693.6354    8354690.26743   6513500.96542  23576695.1324   23576696.8814
        42.0004         39.0004
  23333630.4584    6452246.05543   5032530.42942  23333630.7634   23333634.3884
        47.0004         40.0004
  21758108.9254    9078202.72643   7077460.31842  21758111.1454   21758108.1274
        55.0004         45.0004
  22759849.9174     750190.52343    583448.06842  22759851.5724   22759853.7264
        51.0004         44.0004
 04  6 18 15 51  0.0000000  0  7G22G18G 6G16G15G26G29
  22757537.4214    5811376.08543   4543198.34142  22757537.7524   22757537.3424
        52.0004         44.0004
  20782855.4424    7410393.54444   5777569.34842  20782857.0394   20782856.4704
        57.0004         51.0004
  20761300.0314   10911549.80243   8498608.14642  20761301.1084   20761301.6354
        56.0004         50.0004
  23574871.7624    8345116.88243   6506041.19042  23574873.8464   23574875.7954
        43.0004         38.0004
  23324384.0754    6403652.77243   4994665.58542  23324384.7604   23324386.7114
        47.0004         41.0004
  21759110.5254    9083465.99943   7081561.59242  21759112.4574   21759110.7574
        55.0004         45.0004
  22764443.4354     774329.06543    602257.29742  22764443.7384   22764446.4974
        51.0004         44.0004
 04  6 18 15 51 20.0000000  0  7G22G18G 6G16G15G26G29
  22746905.6424    5755507.78543   4499664.64442  22746906.0204   22746906.4584
        51.0004         44.0004
  20777854.8874    7384113.40744   5757091.33142  20777855.9864   20777855.1854
        57.0004         51.0004
  20767848.9944   10945962.72244   8525423.39042  20767850.1314   20767850.7404
        57.0004         50.0004
  23573095.4254    8335782.92943   6498767.96742  23573096.7074   23573099.8174
        42.0004         38.0004
  23315141.2124    6355084.34943   4956820.08642  23315143.9914   23315144.1734
        47.0004         41.0004
  21760168.8544    9089030.55543   7085897.61942  21760171.0494   21760170.1714
        55.0004         46.0004
  22769082.4214     798708.29843    621254.08342  22769084.4354   22769085.7214
        50.0004         44.0004
 04  6 18 15 51 40.0000000  0  7G22G18G 6G16G15G26G29
  22736297.8784    5699762.83743   4456227.06642  22736297.7394   22736298.5584
        51.0004         44.0004
  20772888.9254    7358018.38444   5736757.56142  20772890.2984   20772889.6464
        57.0004         51.0004
  20774436.2094   10980576.49344   8552395.13542  20774437.2704   20774437.1834
        57.0004         50.0004
  23571366.0504    8326678.86343   6491673.88042  23571365.8834   23571365.7674
        44.0004         38.0004
  23305902.0344    6306531.27043   4918986.55742  23305903.5734   23305905.1244
        48.0004         42.0004
  21761283.5114    9094886.61443   7090460.78942  21761285.3984   21761284.7874
        55.0004         46.0004
  22773765.6504     823318.43743    640430.80642  22773767.1124   22773769.7174
        51.0004         44.0004
 04  6 18 15 52  0.0000000  0  7G22G18G 6G16G15G26G29
  22725715.7064    5644152.64543   4412894.48342  22725715.8934   22725715.9534
        52.0004         45.0004
  20767960.8714    7332119.72844   5716576.81342  20767962.1304   20767960.6394
        57.0004         50.0004
  20781063.0794   11015401.89244   8579531.78942  20781064.4754   20781064.2624
        57.0004         50.0004
  23569677.7444    8317815.81443   6484767.59042  23569678.6204   23569678.4374
        44.0004         38.0004
  23296667.3694    6258004.62043   4881173.61942  23296670.1754   23296671.5774
        49.0004         42.0004
  21762455.0784    9101045.33343   7095259.80742  21762457.2474   21762457.0774
        55.0004         46.0004
  22778494.9274     848170.21043    659795.81142  22778496.0564   22778497.2274
        51.0004         44.0004
 04  6 18 15 52 20.0000000  0  7G22G18G 6G16G15G26G29
  22715158.6244    5588670.09843   4369661.36842  22715158.0654   22715159.0684
        52.0004         45.0004
  20763068.5864    7306410.22544   5696543.45642  20763069.8144   20763068.2194
        57.0004         50.0004
  20787728.6094   11050431.12743   8606827.27742  20787729.8934   20787729.9914
        56.0004         50.0004
  23568036.4424    8309186.07343   6478043.11542  23568036.6704   23568036.7004
        45.0004         39.0004
  23287437.1854    6209496.86943   4843375.40542  23287438.2964   23287441.9494
        49.0004         42.0004
  21763683.8304    9107499.30443   7100288.88542  21763686.2294   21763685.2514
        55.0004         47.0004
  22783268.3684     873255.81843    679343.02942  22783269.8764   22783271.4394
        51.0004         43.0004
 04  6 18 15 52 40.0000000  0  7G22G18G 6G16G15G26G29
  22704624.3234    5533318.64143   4326530.39442  22704624.1084   22704625.3714
        51.0004         45.0004
  20758212.8974    7280892.70044   5676659.69642  20758214.0474   20758212.5144
        57.0004         50.0004
  20794433.3964   11085667.13143   8634283.89342  20794434.6874   20794435.1454
        56.0004         49.0004
  23566439.0804    8300792.85143   6471502.94342  23566439.8984   23566440.1534
        45.0004         39.0004
  23278210.3704    6161011.18643   4805594.39142  23278212.6484   23278214.6904
        49.0004         42.0004
  21764968.5474    9114251.71843   7105550.51742  21764970.0964   21764970.5034
        55.0004         47.0004
  22788086.7984     898578.07543    699074.63642  22788088.3674   22788088.5834
        50.0004         43.0004
 04  6 18 15 53  0.0000000  0  7G22G18G 6G16G15G26G29
  22694115.5454    5478093.88043   4283498.13742  22694116.4864   22694117.1524
        51.0004         45.0004
  20753392.3384    7255562.42344   5656921.84142  20753394.1874   20753391.7764
        57.0004         50.0004
  20801176.9454   11121104.87443   8661897.70642  20801178.4954   20801178.7134
        56.0004         49.0004
  23564885.4034    8292631.38543   6465143.33242  23564887.6024   23564889.3134
        45.0004         40.0004
  23268987.3904    6112542.87843   4767826.91042  23268988.7894   23268990.6314
        50.0004         42.0004
  21766309.6124    9121297.65143   7111040.86442  21766311.1844   21766311.5214
        54.0004         47.0004
  22792950.4024     924131.78343    718986.61942  22792950.6884   22792949.6764
        49.0004         42.0004
 04  6 18 15 53 20.0000000  0  7G22G18G 6G16G15G26G29
  22683632.2814    5423004.78443   4240571.59942  22683632.3044   22683633.6884
        51.0004         45.0004
  20748609.9004    7230428.18443   5637336.74142  20748611.0034   20748609.0874
        56.0004         49.0004
  20807961.0134   11156752.83943   8689675.31842  20807962.6014   20807961.6564
        56.0004         49.0004
  23563379.6464    8284710.18743   6458970.97242  23563380.4654   23563380.8494
        47.0004         40.0004
  23259769.2754    6064100.74443   4730079.82442  23259770.3554   23259772.8094
        50.0004         42.0004
  21767707.8314    9128645.85743   7116766.74342  21767709.2094   21767709.5704
        54.0004         47.0004
  22797857.8924     949925.48543    739085.60542  22797859.5454   22797860.6984
        49.0004         42.0004
 04  6 18 15 53 40.0000000  0  7G22G18G 6G16G15G26G29
  22673172.9354    5368042.60243   4197743.95242  22673173.0264   22673174.1554
        51.0004         44.0004
  20743862.0814    7205480.78743   5617897.22942  20743863.7334   20743861.8134
        56.0004         49.0004
  20814783.2284   11192601.61744   8717609.39642  20814785.0854   20814783.4564
        57.0004         49.0004
  23561914.8924    8277020.01143   6452978.61242  23561917.3484   23561917.5294
        47.0004         40.0004
  23250554.0714    6015675.68843   4692346.06842  23250555.7694   23250558.0034
        50.0004         42.0004
  21769161.7454    9136287.26143   7122721.09242  21769163.9134   21769163.2204
        54.0004         46.0004
  22802809.6894     975949.52443    759364.05942  22802811.5104   22802811.2764
        49.0004         42.0004
 04  6 18 15 54  0.0000000  0  7G22G18G 6G16G15G26G29
  22662738.8764    5313211.79543   4155018.68142  22662739.8044   22662739.9384
        51.0004         45.0004
  20739151.0454    7180724.33143   5598606.50142  20739152.2934   20739150.6484
        56.0004         49.0004
  20821644.1954   11228655.08544   8745702.97042  20821645.5124   20821643.4034
        58.0004         49.0004
  23560497.0904    8269565.11143   6447169.59042  23560498.5284   23560498.5874
        48.0004         41.0004
  23241343.5074    5967272.03943   4654628.98442  23241344.3464   23241346.6494
        50.0004         42.0004
  21770672.0494    9144225.99143   7128907.11542  21770673.7704   21770673.8564
        53.0004         46.0004
  22807808.1664    1002207.83543    779825.07442  22807809.2854   22807809.6284
        49.0004         43.0004
 04  6 18 15 54 20.0000000  0  7G22G18G 6G16G15G26G29
  22652331.5104    5258513.65643   4112396.78742  22652331.4814   22652331.2204
        52.0004         45.0004
  20734476.6414    7156159.89843   5579465.40542  20734477.6314   20734476.1104
        56.0004         49.0004
  20828543.5594   11264913.84044   8773956.50742  20828545.3634   20828543.6604
        58.0004         49.0004
  23559122.7664    8262346.22843   6441544.46942  23559124.5064   23559124.0034
        47.0004         41.0004
  23232136.0594    5918890.55143   4616929.17242  23232137.3594   23232140.4504
        49.0004         41.0004
  21772239.6584    9152462.81543   7135325.40342  21772240.5864   21772241.8484
        53.0004         46.0004
  22812848.4964    1028700.88443    800469.00442  22812849.9304   22812850.8604
        49.0004         43.0004
 04  6 18 15 54 40.0000000  0  7G22G18G 6G16G15G26G29
  22641947.8284    5203947.70443   4069877.90742  22641947.9624   22641947.9644
        53.0004         45.0004
  20729838.4734    7131786.62943   5560473.26842  20729840.2474   20729837.3214
        56.0004         49.0004
  20835482.1964   11301376.98444   8802369.30942  20835484.0554   20835482.8524
        58.0004         50.0004
  23557796.4074    8255362.64743   6436102.70742  23557797.1704   23557795.3234
        49.0004         41.0004
  23222934.3854    5870530.50643   4579246.05142  23222935.4314   23222936.1844
        48.0004         41.0004
  21773863.5964    9160997.11443   7141975.52242  21773865.9584   21773865.8424
        52.0004         46.0004
  22817935.2264    1055427.76143    821295.09842  22817937.0924   22817935.3854
        49.0004         42.0004
 04  6 18 15 55  0.0000000  0  8G22G21G18G 6G16G15G26G29
  22631589.8464    5149514.64643   4027462.58442  22631591.0224   22631588.0314
        53.0004         44.0004
  20751210.1264    -183440.82553    -77693.37852  20751210.1574   20751209.4834
        41.0004         34.0004
  20725237.1494    7107604.98343   5541630.44642  20725238.4274   20725236.4474
        56.0004         50.0004
  20842459.5334   11338044.56144   8830941.41842  20842460.7124   20842460.6874
        58.0004         50.0004
  23556511.3584    8248614.80043   6430844.62142  23556512.4134   23556511.5574
        48.0004         41.0004
  23213735.6174    5822192.55843   4541580.17442  23213736.4114   23213737.9934
        47.0004         40.0004
  21775543.4274    9169829.12243   7148857.60142  21775545.5204   21775546.7784
        52.0004         46.0004
  22823065.2154    1082388.34743    842303.34542  22823067.5074   22823067.3884
        49.0004         43.0004
 04  6 18 15 55 20.0000000  0  8G22G21G18G 6G16G15G26G29
  22621257.0354    5095213.61943   3985150.14642  22621256.9464   22621253.9474
        53.0004         44.0004
  20748477.4174    -197798.08743    -88880.88042  20748475.1434   20748475.0224
        41.0004         34.0004
  20720671.7424    7083613.69044   5522935.95342  20720673.0764   20720671.5444
        57.0004         50.0004
  20849475.9274   11374915.19244   8859671.75242  20849477.4694   20849477.3664
        58.0004         50.0004
  23555272.0724    8242101.32943   6425769.16942  23555272.9814   23555272.2914
        49.0004         41.0004
  23204542.1994    5773875.51843   4503930.55942  23204544.7544   23204543.5944
        47.0004         40.0004
  21777281.1174    9178957.79643   7155970.85442  21777282.8474   21777283.8804
        52.0004         46.0004
  22828239.6464    1109581.07243    863492.47442  22828241.4324   22828241.6384
        50.0004         42.0004
 04  6 18 15 55 40.0000000  0  8G22G21G18G 6G16G15G26G29
  22610946.8294    5041041.21343   3942937.92942  22610947.8074   22610944.6134
        52.0004         43.0004
  20745758.2974    -212078.42143   -100008.46042  20745759.9724   20745758.1674
        41.0004         35.0004
  20716141.7684    7059809.05844   5504386.90742  20716143.1574   20716141.7684
        57.0004         50.0004
  20856530.2784   11411984.80644   8888557.15042  20856531.5324   20856531.4344
        57.0004         50.0004
  23554075.3614    8235818.29343   6420873.28242  23554076.4594   23554077.4854
        48.0004         41.0004
  23195350.8424    5725575.65343   4466294.34942  23195352.5134   23195350.6424
        46.0004         40.0004
  21779074.3404    9188379.25443   7163312.25042  21779075.2084   21779076.9544
        52.0004         46.0004
  22833458.1664    1137001.96843    884859.38942  22833460.9654   22833458.3264
        49.0004         42.0004
 04  6 18 15 56  0.0000000  0  8G22G21G18G 6G16G15G26G29
  22600663.3334    4987003.26043   3900830.48042  22600663.5994   22600662.5504
        52.0004         43.0004
  20743059.2634    -226276.63243   -111072.04042  20743059.8354   20743057.3504
        43.0004         35.0004
  20711648.1874    7036196.67244   5485987.66442  20711649.8284   20711648.8084
        57.0004         51.0004
  20863623.6484   11449258.65344   8917601.68242  20863624.8484   20863624.7774
        57.0004         50.0004
  23552923.9144    8229771.05843   6416161.14442  23552925.2954   23552926.0214
        48.0004         41.0004
  23186163.0514    5677298.61543   4428675.89242  23186164.4924   23186165.8854
        45.0004         39.0004
  21780923.9884    9198098.92643   7170886.03442  21780924.9104   21780925.4304
        52.0004         46.0004
  22838721.0174    1164656.15543    906408.11742  22838722.2474   22838720.6344
        48.0004         41.0004
 04  6 18 15 56 20.0000000  0  8G22G21G18G 6G16G15G26G29
  22590406.7354    4933102.22743   3858829.74442  22590407.7794   22590404.7574
        52.0004         43.0004
  20740373.1124    -240390.76743   -122070.12342  20740374.4134   20740371.8184
        42.0004         35.0004
  20707191.9094    7012778.43944   5467739.70442  20707193.0344   20707192.3294
        57.0004         51.0004
  20870755.9944   11486738.39844   8946806.66542  20870756.9964   20870756.9564
        57.0004         50.0004
  23551818.8404    8223961.70843   6411634.36842  23551820.2084   23551821.4784
        48.0004         41.0004
  23176980.9824    5629046.40743   4391076.78942  23176980.1554   23176984.0974
        44.0004         39.0004
  21782830.6844    9208118.64143   7178693.61142  21782832.2584   21782833.0524
        54.0004         46.0004
  22844028.1484    1192545.24643    928139.87242  22844029.4444   22844027.6964
        50.0004         41.0004
 04  6 18 15 56 40.0000000  0  8G22G21G18G 6G16G15G26G29
  22580176.2034    4879335.23043   3816933.43342  22580175.8064   22580174.2104
        53.0004         44.0004
  20737703.8284    -254423.27643   -133004.57842  20737706.4764   20737701.7874
        43.0004         36.0004
  20702772.1234    6989551.19544   5449640.56742  20702773.1894   20702772.5614
        57.0004         51.0004
  20877925.9244   11524420.78844   8976169.54942  20877927.9474   20877927.9634
        57.0004         49.0004
  23550757.2414    8218387.06043   6407290.45742  23550758.1654   23550759.5394
        47.0004         41.0004
  23167802.1264    5580816.02543   4353494.65442  23167802.6634   23167806.9994
        44.0004         39.0004
  21784794.0184    9218435.54043   7186732.74542  21784795.7684   21784795.5044
        54.0004         46.0004
  22849378.5004    1220665.94543    950052.07842  22849380.4144   22849379.0134
        50.0004         42.0004
 04  6 18 15 57  0.0000000  0  8G22G21G18G 6G16G15G26G29
  22569969.7444    4825701.08443   3775140.65842  22569969.8334   22569968.2374
        53.0004         44.0004
  20735048.4474    -268375.65943   -143876.55842  20735050.8084   20735044.8444
        42.0004         36.0004
  20698388.0214    6966513.45144   5431689.09242  20698389.4264   20698388.6144
        57.0004         51.0004
  20885134.5304   11562303.91243   9005688.85142  20885136.1504   20885136.5064
        56.0004         49.0004
  23549742.6534    8213045.55343   6403128.21942  23549742.5834   23549741.0954
        48.0004         41.0004
  23158629.9094    5532605.98643   4315928.40942  23158629.9644   23158631.2264
        46.0004         40.0004
  21786813.3474    9229047.92543   7195002.16042  21786814.4364   21786816.0254
        53.0004         46.0004
  22854774.0884    1249016.15343    972143.17642  22854775.8894   22854775.9914
        50.0004         42.0004
 04  6 18 15 57 20.0000000  0  8G22G21G18G 6G16G15G26G29
  22559788.5604    4772199.77543   3733451.38842  22559789.2954   22559788.1254
        53.0004         45.0004
  20732409.1354    -282248.06443   -154686.22442  20732410.7014   20732407.1774
        42.0004         35.0004
  20694040.3734    6943665.01244   5413885.13042  20694041.5824   20694040.8154
        57.0004         51.0004
  20892381.7814   11600387.35743   9035364.24442  20892383.3574   20892383.4744
        56.0004         49.0004
  23548769.7454    8207936.78543   6399147.31742  23548771.6554   23548771.0884
        48.0004         40.0004
  23149458.6614    5484416.17043   4278377.93642  23149460.1054   23149461.3404
        48.0004         40.0004
  21788888.8574    9239955.34043   7203501.43942  21788890.4894   21788891.7504
        53.0004         45.0004
  22860211.3424    1277595.18943    994412.55542  22860213.4514   22860214.3754
        49.0004         42.0004
 04  6 18 15 57 40.0000000  0  8G22G21G18G 6G16G15G26G29
  22549633.5264    4718834.85743   3691868.37642  22549634.1484   22549633.0534
        53.0004         45.0004
  20729784.2504    -296037.21343   -165431.02742  20729783.9234   20729780.5224
        42.0004         35.0004
  20689729.0414    6921008.91844   5396231.04242  20689730.3174   20689729.3264
        57.0004         51.0004
  20899667.3964   11638673.82843   9065197.84342  20899669.1674   20899668.6454
        56.0004         49.0004
  23547842.9374    8203063.75043   6395350.12642  23547843.0104   23547842.9544
        48.0004         40.0004
  23140292.7794    5436249.69143   4240845.66242  23140294.0904   23140294.6104
        48.0004         41.0004
  21791021.7824    9251160.88343   7212233.01842  21791023.1484   21791023.8844
        53.0004         45.0004
  22865694.4234    1306405.89143   1016862.44742  22865696.9344   22865696.0384
        50.0004         42.0004
 04  6 18 15 58  0.0000000  0  8G22G21G18G 6G16G15G26G29
  22539503.9604    4665602.50543   3650388.66642  22539504.1404   22539502.9174
        52.0004         45.0004
  20727176.5504    -309747.11353   -176114.11052  20727177.8434   20727174.5814
        39.0004         34.0004
  20685453.2034    6898541.17544   5378723.71842  20685454.6504   20685453.6614
        57.0004         51.0004
  20906991.8754   11677159.03944   9095186.28342  20906992.8604   20906992.2364
        57.0004         49.0004
  23546959.1304    8198422.27943   6391733.34542  23546960.2044   23546956.7894
        48.0004         40.0004
  23131130.8724    5388102.51243   4203328.42642  23131131.7784   23131132.1394
        49.0004         41.0004
  21793209.6564    9262660.55543   7221193.78942  21793211.2624   21793211.5694
        52.0004         45.0004
  22871220.2114    1335443.84843   1039489.41042  22871220.2014   22871222.5614
        49.0004         42.0004
 04  6 18 15 58 20.0000000  0  7G22G18G 6G16G15G26G29
  22529397.6134    4612499.30943   3609009.59142  22529398.3634   22529397.9494
        51.0004         45.0004
  20681212.4494    6876257.81343   5361360.06342  20681213.7234   20681213.0484
        56.0004         51.0004
  20914351.7894   11715838.90544   9125326.40442  20914353.6334   20914352.3334
        57.0004         49.0004
  23546119.1574    8194008.43543   6388293.95242  23546122.2724   23546116.6244
        48.0004         40.0004
  23121970.6914    5339970.92043   4165823.33042  23121972.1294   23121972.5994
        50.0004         41.0004
  21795452.6654    9274450.24543   7230380.54742  21795454.9394   21795455.1214
        52.0004         45.0004
  22876788.6624    1364704.93543   1062290.24442  22876790.2524   22876790.8354
        48.0004         42.0004
 04  6 18 15 58 40.0000000  0  7G22G18G 6G16G15G26G29
  22519320.2464    4559541.04043   3567743.42642  22519320.4004   22519319.9564
        52.0004         45.0004
  20677010.0944    6854174.38843   5344152.20442  20677011.5774   20677010.2384
        56.0004         50.0004
  20921752.6724   11754728.61544   9155630.03542  20921753.8204   20921752.7864
        57.0004         49.0004
  23545325.4934    8189837.68843   6385043.96142  23545328.7914   23545324.4924
        48.0004         40.0004
  23112818.4054    5291870.39243   4128342.44542  23112819.4284   23112820.3474
        51.0004         42.0004
  21797754.8884    9286545.61643   7239805.48642  21797756.9614   21797757.7694
        52.0004         45.0004
  22882401.5154    1394204.24743   1085276.69842  22882402.8424   22882403.0004
        48.0004         43.0004
 04  6 18 15 59  0.0000000  0  7G22G18G 6G16G15G26G29
  22509268.2954    4506716.51143   3526581.49242  22509268.5624   22509266.9094
        52.0004         45.0004
  20672844.2084    6832279.40943   5327091.19442  20672845.0194   20672843.4604
        56.0004         50.0004
  20929190.6514   11793816.41444   9186088.02342  20929191.8354   20929191.2304
        57.0004         49.0004
  23544575.6654    8185898.54943   6381974.47842  23544577.4644   23544577.0324
        48.0004         40.0004
  23103668.2324    5243789.77143   4090877.08342  23103670.0494   23103670.3994
        51.0004         42.0004
  21800112.5554    9298934.87643   7249459.45042  21800114.1894   21800114.4104
        52.0004         45.0004
  22888059.3744    1423929.81943   1108439.46842  22888060.4934   22888061.4464
        50.0004         43.0004
 04  6 18 15 59 20.0000000  0  7G22G18G 6G16G15G26G29
  22499242.8444    4454029.67343   3485526.85842  22499243.6064   22499241.9374
        53.0004         45.0004
  20668713.3804    6810576.51943   5310179.86442  20668715.2354   20668713.5564
        55.0004         50.0004
  20936666.4664   11833105.55344   9216702.90242  20936668.3084   20936667.6174
        57.0004         50.0004
  23543871.8054    8182194.42143   6379088.09842  23543874.7814   23543870.3224
        48.0004         40.0004
  23094523.4594    5195732.63743   4053430.00042  23094525.2374   23094526.1034
        51.0004         42.0004
  21802526.5034    9311621.69143   7259345.28442  21802528.3974   21802527.8794
        53.0004         45.0004
  22893759.4684    1453884.95943   1131781.10842  22893761.4754   22893761.1244
        50.0004         43.0004
 04  6 18 15 59 40.0000000  0  7G22G18G 6G16G15G26G29
  22489242.0474    4401477.55043   3444577.19242  22489242.9894   22489241.1204
        53.0004         45.0004
  20664620.1434    6789062.17243   5293415.46242  20664621.2464   20664619.9384
        56.0004         50.0004
  20944180.9854   11872592.46644   9247471.90542  20944182.4004   20944182.6964
        57.0004         50.0004
  23543210.5874    8178721.71943   6376382.06842  23543212.8884   23543210.2484
        48.0004         40.0004
  23085382.1264    5147695.67043   4015998.64342  23085384.0634   23085386.3254
        50.0004         43.0004
  21804997.2624    9324602.60243   7269460.25642  21804998.7324   21804997.5444
        53.0004         45.0004
  22899502.3694    1484066.02843   1155298.78842  22899503.6014   22899504.0494
        50.0004         44.0004
 04  6 18 16  0  0.0000000  0  7G22G18G 6G16G15G26G29
  22479268.2694    4349061.83143   3403733.81942  22479268.6974   22479267.2474
        54.0004         45.0004
  20660562.3004    6767737.90343   5276799.17142  20660563.5624   20660562.4654
        56.0004         50.0004
  20951733.2984   11912278.14644   9278395.78742  20951734.7444   20951735.0634
        57.0004         50.0004
  23542593.8884    8175481.88143   6373857.47142  23542594.5944   23542595.4584
        47.0004         40.0004
  23076245.1204    5099680.48643   3978584.24442  23076246.3214   23076248.5834
        50.0004         43.0004
  21807523.5684    9337878.82043   7279805.35542  21807525.4884   21807524.4314
        52.0004         45.0004
  22905288.8914    1514473.84743   1178993.19342  22905290.3554   22905291.1624
        51.0004         44.0004
 04  6 18 16  0 20.0000000  0  7G22G18G 6G16G15G26G29
  22469319.3684    4296782.88143   3362997.02042  22469320.0694   22469318.4794
        53.0004         45.0004
  20656540.6884    6746603.56443   5260330.87642  20656541.6874   20656540.7754
        56.0004         49.0004
  20959323.3274   11952162.51444   9309474.49642  20959324.9054   20959324.8994
        57.0004         50.0004
  23542022.3184    8172474.88143   6371514.33042  23542025.6194   23542023.9154
        48.0004         40.0004
  23067112.4124    5051687.22043   3941186.92842  23067113.8814   23067116.4604
        50.0004         43.0004
  21810106.8624    9351450.31143   7290380.52642  21810108.0444   21810106.9414
        53.0004         45.0004
  22911117.9214    1545108.17543   1202864.08342  22911119.8984   22911119.7284
        51.0004         44.0004
 04  6 18 16  0 40.0000000  0  7G22G18G 6G16G15G26G29
  22459396.7044    4244638.73343   3322365.25342  22459397.4194   22459395.6234
        53.0004         45.0004
  20652554.0854    6725656.92343   5244008.83542  20652555.1184   20652554.8594
        55.0004         49.0004
  20966950.5754   11992242.93444   9340705.97242  20966952.0404   20966952.1994
        57.0004         50.0004
  23541493.1004    8169698.27943   6369350.73142  23541495.6054   23541496.9084
        47.0004         41.0004
  23057983.6414    5003713.72943   3903805.02542  23057984.8634   23057986.8924
        49.0004         42.0004
  21812744.4404    9365314.78343   7301183.99042  21812746.5024   21812746.1044
        53.0004         45.0004
  22916989.8944    1575966.40543   1226909.43542  22916990.6204   22916991.1884
        50.0004         43.0004
 04  6 18 16  1  0.0000000  0  7G22G18G 6G16G15G26G29
  22449500.8954    4192637.65243   3281844.97842  22449501.4684   22449498.9174
        53.0004         45.0004
  20648605.4354    6704906.22243   5227839.47542  20648606.7214   20648606.0164
        56.0004         49.0004
  20974616.3894   12032527.05144   9372096.16842  20974618.1874   20974618.1374
        57.0004         50.0004
  23541010.7304    8167159.93843   6367372.79942  23541011.9034   23541013.2344
        48.0004         41.0004
  23048859.7954    4955768.04143   3866444.76242  23048860.2624   23048863.8634
        48.0004         42.0004
  21815440.1314    9379480.06843   7312221.87942  21815441.9544   21815441.5524
        53.0004         46.0004
  22922906.6144    1607056.15743   1251135.22342  22922907.5064   22922906.6344
        51.0004         43.0004
 04  6 18 16  1 20.0000000  0  7G22G18G 6G16G15G26G29
  22439631.7854    4140772.21843   3241430.41042  22439631.9604   22439629.4144
        53.0004         45.0004
  20644692.8234    6684343.33943   5211816.46942  20644694.1494   20644692.7914
        56.0004         49.0004
  20982319.6984   12073006.93444   9403638.90542  20982321.2834   20982320.2904
        57.0004         49.0004
  23540571.9894    8164851.85343   6365574.28142  23540573.9924   23540574.6134
        47.0004         40.0004
  23039740.3184    4907842.56243   3829100.26542  23039740.9244   23039744.7294
        47.0004         41.0004
  21818191.0924    9393938.30743   7323488.04042  21818193.3964   21818193.5984
        53.0004         45.0004
  22928864.7804    1638369.10143   1275534.90242  22928866.6794   22928866.9414
        51.0004         43.0004
 04  6 18 16  1 40.0000000  0  7G22G18G 6G16G15G26G29
  22429786.9074    4089043.24843   3201122.17042  22429787.9354   22429785.4204
        53.0004         45.0004
  20640815.3404    6663968.87743   5195940.28742  20640816.9004   20640815.8024
        56.0004         50.0004
  20990059.5564   12113682.53944   9435334.14542  20990060.9244   20990060.3444
        57.0004         49.0004
  23540176.5484    8162774.37243   6363955.44642  23540178.4854   23540178.8404
        48.0004         41.0004
  23030623.9064    4859937.81343   3791771.92942  23030623.3164   23030624.5234
        46.0004         40.0004
  21820998.2534    9408689.72943   7334982.64642  21821000.7024   21821000.3484
        53.0004         45.0004
  22934866.2734    1669905.30243   1300108.56342  22934867.8994   22934867.2684
        51.0004         42.0004
 04  6 18 16  2  0.0000000  0  8G22G21G18G 6G16G15G26G29
  22419971.1064    4037456.55843   3160924.80842  22419971.2914   22419968.7704
        53.0004         45.0004
  20697093.929
        44.000
  20636975.8354    6643788.36444   5180215.24242  20636976.9514   20636975.1474
        57.0004         50.0004
  20997837.2514   12154559.20344   9467186.05942  20997839.0074   20997838.5444
        57.0004         48.0004
  23539825.2214    8160933.02643   6362520.61542  23539827.1234   23539828.2824
        48.0004         41.0004
  23021512.9874    4812059.40843   3754464.07542  23021513.5354   23021514.6424
        45.0004         40.0004
  21823862.3824    9423739.76643   7346709.95142  21823864.2444   21823864.4954
        53.0004         46.0004
  22940911.0784    1701670.11343   1324860.34642  22940914.1894   22940911.5444
        51.0004         42.0004
 04  6 18 16  2 20.0000000  0  8G22G21G18G 6G16G15G26G29
  22410180.9274    3986011.63143   3120837.90042  22410181.2564   22410178.9394
        53.0004         45.0004
  20694689.798
        45.000
  20633172.1044    6623800.74744   5164640.49642  20633173.3774   20633172.0234
        57.0004         50.0004
  21005654.1184   12195635.75043   9499193.72142  21005655.7414   21005655.0194
        56.0004         48.0004
  23539519.3354    8159326.66243   6361268.88842  23539520.5034   23539521.8714
        49.0004         41.0004
  23012405.3174    4764206.63743   3717176.22042  23012404.6174   23012409.2954
        44.0004         39.0004
  21826782.6094    9439087.46643   7358669.19042  21826784.8774   21826785.4014
        53.0004         46.0004
  22946999.3824    1733662.20043   1349789.25442  22947001.0064   22946999.6454
        52.0004         43.0004
 04  6 18 16  2 40.0000000  0  8G22G21G18G 6G16G15G26G29
  22400415.7984    3934694.49143   3080850.56642  22400416.0154   22400415.0854
        53.0004         45.0004
  20692298.065
        43.000
  20629402.4884    6603991.90644   5149205.05842  20629403.9354   20629402.1054
        57.0004         50.0004
  21013505.8234   12236897.56443   9531345.73642  21013507.4944   21013507.0564
        56.0004         48.0004
  23539255.5134    8157941.03943   6360189.15242  23539257.5524   23539257.9214
        48.0004         41.0004
  23003303.1674    4716365.22243   3679897.22342  23003302.2424   23003302.6604
        45.0004         40.0004
  21829756.6374    9454718.35343   7370849.09542  21829759.3754   21829759.6404
        53.0004         46.0004
  22953127.2794    1765866.78543   1374883.71642  22953130.4494   22953128.9614
        51.0004         43.0004
 04  6 18 16  3  0.0000000  0  7G22G18G 6G16G15G26G29
  22390679.5064    3883526.37743   3040979.35642  22390679.8714   22390678.5694
        54.0004         46.0004
  20625670.5014    6584382.52644   5133925.04442  20625672.1404   20625670.3694
        57.0004         51.0004
  21021397.7654   12278365.19844   9563658.12542  21021398.8494   21021398.3564
        57.0004         49.0004
  23539039.0014    8156796.80843   6359297.50042  23539040.4424   23539039.5964
        49.0004         41.0004
  22994207.2104    4668556.19343   3642643.45042  22994206.1244   22994206.4424
        47.0004         40.0004
  21832789.1054    9470653.19743   7383265.85142  21832791.8474   21832791.7694
        53.0004         46.0004
  22959300.4124    1798304.16943   1400159.58942  22959302.5664   22959304.5424
        52.0004         44.0004
 04  6 18 16  3 20.0000000  0  7G22G18G 6G16G15G26G29
  22380968.2134    3832494.63243   3001214.40142  22380968.3674   22380967.5424
        54.0004         46.0004
  20621974.7674    6564959.69944   5118790.39242  20621975.7464   20621974.2354
        57.0004         51.0004
  21029325.0304   12320025.46943   9596120.64542  21029326.3914   21029326.5004
        56.0004         49.0004
  23538864.8494    8155880.94243   6358583.79642  23538865.8324   23538864.3714
        50.0004         42.0004
  22985113.0104    4620766.80043   3605404.99342  22985112.3174   22985112.3154
        48.0004         41.0004
  21835876.7414    9486879.00543   7395909.32942  21835878.9854   21835879.7964
        53.0004         46.0004
  22965514.3054    1830961.31443   1425606.69242  22965517.0984   22965518.2124
        52.0004         44.0004
 04  6 18 16  3 40.0000000  0  8G22G21G18G 6G16G15G26G29
  22371283.3654    3781600.38643   2961556.58242  22371283.8704   22371282.9764
        54.0004         46.0004
  20685230.6694   -1637956.08453  -1265131.05052  20685229.8734   20685233.2204
        40.0004         33.0004
  20618314.2304    6545724.23344   5103801.72942  20618315.4464   20618314.0454
        57.0004         51.0004
  21037289.1904   12361878.94343   9628733.72942  21037290.2354   21037290.8864
        56.0004         49.0004
  23538734.2244    8155194.14443   6358048.59342  23538736.3414   23538733.9014
        50.0004         42.0004
  22976020.2404    4572997.96643   3568182.57042  22976020.1624   22976022.2964
        48.0004         41.0004
  21839019.9544    9503396.51243   7408780.10942  21839021.5354   21839021.9274
        53.0004         46.0004
  22971770.6904    1863838.63843   1451225.38942  22971773.3944   22971773.4544
        51.0004         43.0004
 04  6 18 16  4  0.0000000  0  8G22G21G18G 6G16G15G26G29
  22361625.2984    3730847.51743   2922008.92742  22361625.9784   22361625.1554
        54.0004         46.0004
  20682908.8494   -1650167.42053  -1274646.35852  20682905.8374   20682906.4024
        40.0004         33.0004
  20614689.8674    6526679.62244   5088961.78042  20614691.3454   20614690.1154
        57.0004         51.0004
  21045290.8244   12403928.81643   9661499.83242  21045292.1934   21045292.8114
        56.0004         49.0004
  23538647.3194    8154739.79343   6357694.51742  23538648.3374   23538648.4894
        50.0004         42.0004
  22966935.8234    4525253.40343   3530979.04342  22966936.3464   22966937.3374
        48.0004         42.0004
  21842219.5624    9520208.84243   7421880.64242  21842220.8094   21842221.6164
        53.0004         45.0004
  22978069.1964    1896939.11243   1477017.96942  22978071.0984   22978072.5944
        51.0004         43.0004
 04  6 18 16  4 20.0000000  0  8G22G21G18G 6G16G15G26G29
  22351995.8404    3680243.21843   2882577.04842  22351996.1394   22351995.1504
        54.0004         46.0004
  20680606.611                    -1284089.12542                  20680591.2054
        40.000          31.0004
  20611103.5124    6507832.68044   5074275.86142  20611104.6884   20611104.1534
        57.0004         51.0004
  21053331.2044   12446181.51843   9694424.00742  21053332.3704   21053333.6524
        56.0004         49.0004
  23538605.7194    8154524.43143   6357526.66342  23538607.3824   23538607.3284
        48.0004         41.0004
  22957857.1354    4477540.04843   3493799.83942  22957856.7444   22957858.7804
        49.0004         42.0004
  21845475.6964    9537322.79243   7435216.17342  21845477.9274   21845477.9294
        53.0004         45.0004
  22984412.1054    1930269.33143   1502989.54542  22984413.3074   22984415.6984
        51.0004         43.0004
 04  6 18 16  4 40.0000000  0  8G22G21G18G 6G16G15G26G29
  22342392.4734    3629781.79243   2843256.49642  22342393.5214   22342392.3104
        54.0004         46.0004
  20678318.267
        39.000
  20607553.8244    6489177.56744   5059739.42142  20607554.8554   20607554.2204
        57.0004         51.0004
  21061409.2244   12488630.93243   9727501.46642  21061410.6524   21061411.2414
        56.0004         50.0004
  23538609.3804    8154542.15143   6357540.44742  23538610.4034   23538610.8424
        48.0004         41.0004
  22948781.0304    4429852.09043   3456640.42142  22948782.7824   22948783.9044
        50.0004         43.0004
  21848788.7194    9554732.38343   7448782.07742  21848789.8834   21848791.7114
        53.0004         46.0004
  22990797.0314    1963822.94043   1529135.18142  22990799.0044   22990800.3394
        51.0004         43.0004
 04  6 18 16  5  0.0000000  0  8G22G21G18G 6G16G15G26G29
  22332813.5324    3579440.51143   2804029.56642  22332813.3954   22332812.5274
        54.0004         46.0004
  20676037.294
        37.000
  20604035.6194    6470690.90243   5045334.23842  20604037.1004   20604036.1074
        56.0004         51.0004
  21069520.3794   12531253.49143   9760713.82542  21069521.8714   21069522.6284
        56.0004         50.0004
  23538653.3974    8154769.62243   6357717.65642  23538653.4424   23538657.4634
        48.0004         42.0004
  22939706.5674    4382166.59343   3419482.92542  22939708.3354   22939709.7674
        50.0004         43.0004
  21852153.5784    9572414.21343   7462560.11942  21852155.5344   21852155.2964
        53.0004         46.0004
  22997219.9444    1997576.31143   1555436.49342  22997220.8694   22997224.0404
        51.0004         43.0004
 04  6 18 16  5 20.0000000  0  7G22G18G 6G16G15G26G29
  22323264.2074    3529259.14843   2764927.25142  22323264.5584   22323263.3774
        54.0004         46.0004
  20600557.7634    6452412.12543   5031091.04442  20600558.9294   20600557.7954
        56.0004         51.0004
  21077672.2094   12574088.50344   9794091.74142  21077673.4504   21077674.0634
        57.0004         50.0004
  23538742.8284    8155246.21943   6358089.00042  23538745.4654   23538747.1824
        47.0004         42.0004
  22930640.1284    4334523.16543   3382358.20942  22930641.1744   22930643.2684
        50.0004         43.0004
  21855578.0994    9590407.60543   7476580.93742  21855580.0544   21855579.8384
        53.0004         46.0004
  23003688.7494    2031568.51843   1581923.91542  23003690.7004   23003691.8474
        50.0004         42.0004
 04  6 18 16  5 40.0000000  0  7G22G18G 6G16G15G26G29
  22313737.9124    3479198.30743   2725918.82842  22313738.5224   22313737.1414
        54.0004         46.0004
  20597111.3464    6434301.71843   5016979.05842  20597112.4114   20597111.2584
        56.0004         50.0004
  21085856.7184   12617095.91544   9827603.97542  21085857.5324   21085858.2864
        57.0004         50.0004
  23538873.3874    8155931.92543   6358623.30742  23538874.2094   23538877.0154
        48.0004         42.0004
  22921574.9724    4286882.30743   3345235.48642  22921576.8424   22921577.8274
        50.0004         43.0004
  21859053.5724    9608672.73843   7490813.48542  21859055.2674   21859056.1414
        54.0004         46.0004
  23010194.7994    2065759.61543   1608566.31642  23010196.0744   23010197.5094
        50.0004         41.0004
 04  6 18 16  6  0.0000000  0  7G22G18G 6G16G15G26G29
  22304240.9834    3429290.78843   2687029.89342  22304241.2214   22304239.2094
        54.0004         46.0004
  20593703.3034    6416392.07043   5003023.50242  20593704.7074   20593703.1444
        55.0004         50.0004
  21094079.2024   12660307.93444   9861275.65142  21094080.9744   21094081.4254
        57.0004         50.0004
  23539050.1774    8156859.29643   6359345.90642  23539050.7424   23539052.1084
        48.0004         42.0004
  22912516.5484    4239276.71743   3308140.24142  22912518.2534   22912518.1454
        50.0004         42.0004
  21862587.8674    9627241.96143   7505282.99542  21862589.5634   21862589.2104
        54.0004         46.0004
  23016745.0374    2100181.53543   1635388.55542  23016745.6104   23016748.0984
        50.0004         41.0004
 04  6 18 16  6 20.0000000  0  7G22G18G 6G16G15G26G29
  22294770.2454    3379527.78343   2648253.55742  22294770.9664   22294769.7724
        53.0004         45.0004
  20590331.3624    6398673.94043   4989217.17642  20590332.8534   20590331.2994
        55.0004         50.0004
  21102339.4014   12703715.02444   9895099.32042  21102340.9444   21102340.9094
        57.0004         49.0004
  23539270.3764    8158018.81843   6360249.39742  23539271.6924   23539273.5094
        48.0004         42.0004
  22903460.4094    4191697.29743   3271065.40142  22903462.3364   22903464.4004
        49.0004         42.0004
  21866177.3244    9646105.73443   7519982.02742  21866179.5114   21866179.2674
        54.0004         47.0004
  23023336.8274    2134824.65543   1662383.18842  23023340.2504   23023337.2114
        49.0004         41.0004
 04  6 18 16  6 40.0000000  0  7G22G18G 6G16G15G26G29
  22285328.0104    3329908.26243   2609589.03142  22285328.1214   22285327.4594
        52.0004         45.0004
  20586995.9764    6381146.03943   4975559.07542  20586997.3434   20586995.9444
        55.0004         50.0004
  21110636.4874   12747315.49544   9929073.66542  21110637.5994   21110637.0244
        57.0004         48.0004
  23539535.4924    8159409.09043   6361332.68442  23539536.2184   23539537.6814
        47.0004         42.0004
  22894411.3324    4144142.80543   3234009.98242  22894413.5874   22894414.2614
        49.0004         42.0004
  21869822.9254    9665262.64043   7534909.47442  21869824.5764   21869824.2864
        55.0004         46.0004
  23029970.0724    2169687.26543   1689548.83642  23029971.3464   23029970.9144
        49.0004         40.0004
 04  6 18 16  7  0.0000000  0  7G22G18G 6G16G15G26G29
  22275912.4104    3280425.94243   2571031.42042  22275912.2954   22275911.3624
        53.0004         45.0004
  20583695.3464    6363801.89943   4962044.17342  20583696.9984   20583695.6184
        55.0004         50.0004
  21118968.3344   12791102.62043   9963193.44642  21118969.5474   21118968.4134
        56.0004         47.0004
  23539842.7274    8161023.48143   6362590.63042  23539842.6414   23539845.0754
        47.0004         41.0004
  22885366.2014    4096606.96543   3196969.09642  22885366.1754   22885369.2544
        49.0004         42.0004
  21873522.5854    9684706.08543   7550060.21242  21873524.7164   21873524.0534
        54.0004         46.0004
  23036645.3544    2204762.52043   1716880.20842  23036646.2914   23036647.1354
        48.0004         40.0004
 04  6 18 16  7 20.0000000  0  7G22G18G 6G16G15G26G29
  22266523.5324    3231089.72343   2532587.64942  22266523.8464   22266522.3904
        54.0004         45.0004
  20580431.3434    6346649.79743   4948678.90642  20580432.9594   20580431.5214
        55.0004         50.0004
  21127336.8294   12835084.52043   9997464.99442  21127338.7344   21127338.0124
        55.0004         47.0004
  23540193.8154    8162870.29943   6364029.66042  23540194.4804   23540197.6484
        46.0004         41.0004
  22876325.5664    4049098.24543   3159949.34242  22876326.9194   22876329.1244
        49.0004         42.0004
  21877279.1214    9704444.38343   7565440.71342  21877280.5744   21877279.5134
        55.0004         46.0004
  23043363.6924    2240058.47543   1744383.55742  23043364.9194   23043362.6654
        49.0004         40.0004
 04  6 18 16  7 40.0000000  0  7G22G18G 6G16G15G26G29
  22257162.9004    3181896.19643   2494255.07542  22257163.0884   22257161.4924
        54.0004         45.0004
  20577203.7114    6329686.06743   4935460.42842  20577205.1724   20577203.3984
        56.0004         50.0004
  21135742.4344   12879257.15543  10031885.17442  21135744.2774   21135744.5654
        55.0004         47.0004
  23540589.2454    8164945.50043   6365646.68042  23540589.7144   23540591.6734
        46.0004         40.0004
  22867288.4694    4001613.12643   3122947.98342  22867290.1694   22867294.3494
        49.0004         43.0004
  21881090.4284    9724473.54943   7581047.87242  21881091.8204   21881090.7204
        55.0004         46.0004
  23050121.1104    2275570.86243   1772055.57442  23050121.2674   23050121.4414
        50.0004         41.0004
 04  6 18 16  8  0.0000000  0  7G22G18G 6G16G15G26G29
  22247828.3954    3132846.53143   2456034.60142  22247828.7394   22247828.0364
        53.0004         46.0004
  20574011.6534    6312911.35843   4922389.24142  20574013.0674   20574011.4644
        56.0004         50.0004
  21144184.2954   12923621.01243  10066454.39842  21144185.7464   21144187.7674
        54.0004         48.0004
  23541026.7384    8167249.83043   6367442.21742  23541028.3064   23541030.1414
        44.0004         39.0004
  22858257.9914    3954152.80743   3085965.96342  22858259.5614   22858261.3634
        49.0004         43.0004
  21884957.3304    9744794.11943   7596882.09942  21884958.5784   21884957.7124
        54.0004         45.0004
  23056919.6254    2311300.21043   1799896.63842  23056921.4484   23056918.2464
        50.0004         41.0004
 04  6 18 16  8 20.0000000  0  7G22G18G 6G16G15G26G29
  22238521.8044    3083938.73343   2417924.67342  22238522.1574   22238521.6394
        54.0004         46.0004
  20570855.0714    6296323.64243   4909463.76142  20570856.5324   20570854.7954
        56.0004         50.0004
  21152663.8284   12968173.48743  10101170.57742  21152664.8414   21152665.9504
        55.0004         48.0004
  23541507.9714    8169780.84243   6369414.41442  23541509.9264   23541510.1154
        44.0004         39.0004
  22849230.7024    3906714.97743   3049001.44142  22849231.8704   22849234.5004
        50.0004         43.0004
  21888879.1014    9765403.73343   7612941.55242  21888880.9054   21888880.1574
        54.0004         45.0004
  23063759.8024    2347243.71343   1827904.57342  23063760.8354   23063758.9024
        51.0004         42.0004
 04  6 18 16  8 40.0000000  0  7G22G18G 6G16G15G26G29
  22229243.5554    3035176.09143   2379927.84642  22229243.7894   22229241.7544
        54.0004         46.0004
  20567734.6514    6279925.66943   4896686.13342  20567736.1774   20567734.2154
        56.0004         50.0004
  21161178.9064   13012917.28543  10136035.86242  21161180.4334   21161181.2444
        56.0004         49.0004
  23542033.2604    8172541.38843   6371565.46942  23542034.2204   23542034.6074
        45.0004         38.0004
  22840209.4174    3859302.98843   3012057.07242  22840210.8544   22840212.9904
        50.0004         43.0004
  21892857.0884    9786305.04343   7629228.29642  21892858.6054   21892856.8454
        54.0004         46.0004
  23070640.9994    2383404.09143   1856081.51542  23070642.5224   23070643.1414
        51.0004         42.0004
 04  6 18 16  9  0.0000000  0  7G22G18G 6G16G15G26G29
  22219990.2964    2986552.28943   2342039.20042  22219990.4424   22219988.8364
        54.0004         46.0004
  20564649.0454    6263710.64243   4884051.05642  20564650.4614   20564648.6434
        56.0004         50.0004
  21169728.9864   13057845.45044  10171044.79042  21169730.3724   21169730.8424
        57.0004         50.0004
  23542603.1554    8175524.72843   6373890.10242  23542604.7794   23542602.7484
        45.0004         39.0004
  22831190.7954    3811910.43343   2975127.83942  22831192.6954   22831193.4194
        51.0004         43.0004
  21896887.9034    9807491.44643   7645737.18442  21896890.0344   21896889.4904
        53.0004         45.0004
  23077562.3224    2419774.01843   1884421.71642  23077563.7034   23077563.1594
        51.0004         43.0004
 04  6 18 16  9 20.0000000  0  7G22G18G 6G16G15G26G29
  22210764.4934    2938073.34243   2304263.44442  22210765.1784   22210763.5064
        54.0004         46.0004
  20561598.7104    6247684.26644   4871562.98442  20561600.4424   20561598.3154
        57.0004         50.0004
  21178314.5364   13102963.32044  10206201.54442  21178316.1204   21178315.9824
        58.0004         50.0004
  23543213.9194    8178736.20443   6376392.53142  23543215.5954   23543215.5934
        47.0004         39.0004
  22822176.6114    3764542.96443   2938218.15542  22822177.2434   22822179.3974
        50.0004         43.0004
  21900974.6544    9828968.10943   7662472.23342  21900976.3254   21900976.1834
        53.0004         45.0004
  23084524.1694    2456358.99143   1912929.47442  23084526.3534   23084525.9004
        51.0004         43.0004
 04  6 18 16  9 40.0000000  0  7G22G18G 6G16G15G26G29
  22201567.5054    2889742.23143   2266602.89142  22201567.5384   22201566.3144
        53.0004         46.0004
  20558586.0024    6231849.28944   4859224.05342  20558587.4804   20558584.9924
        57.0004         50.0004
  21186936.7774   13148273.21444  10241507.92442  21186938.1844   21186938.1364
        57.0004         50.0004
  23543869.8914    8182178.39743   6379074.70342  23543871.4824   23543869.3154
        48.0004         40.0004
  22813166.1854    3717203.50343   2901330.29042  22813167.1344   22813171.1864
        48.0004         42.0004
  21905117.0064    9850737.72943   7679435.57242  21905118.4204   21905119.0704
        52.0004         45.0004
  23091527.7964    2493161.25243   1941606.54342  23091528.7214   23091529.4164
        51.0004         43.0004
 04  6 18 16 10  0.0000000  0  7G22G18G 6G16G15G26G29
  22192396.5794    2841556.77543   2229055.80942  22192396.8494   22192397.0254
        52.0004         46.0004
  20555608.4984    6216203.25044   4847032.34842  20555610.1534   20555607.9024
        57.0004         51.0004
  21195594.5704   13193772.32044  10276961.73942  21195596.1654   21195595.9874
        57.0004         50.0004
  23544566.4164    8185848.52143   6381934.50342  23544569.9964   23544569.3154
        47.0004         40.0004
  22804163.4054    3669889.87043   2864462.52842  22804163.0684   22804166.5704
        47.0004         42.0004
  21909314.3324    9872797.47743   7696624.96942  21909316.2494   21909317.0674
        51.0004         45.0004
  23098571.6254    2530177.81443   1970450.61442  23098574.4574   23098572.2014
        50.0004         43.0004
 04  6 18 16 10 20.0000000  0  7G22G18G 6G16G15G26G29
  22183253.2784    2793511.71043   2191618.12242  22183253.1534   22183254.0984
        51.0004         45.0004
  20552665.7154    6200740.21444   4834983.24042  20552667.4664   20552665.1024
        57.0004         50.0004
  21204286.9644   13239454.78143  10312558.43242  21204288.0744   21204289.1674
        56.0004         49.0004
  23545307.2814    8189740.83843   6384967.41742  23545309.1854   23545307.7624
        47.0004         40.0004
  22795165.6334    3622596.70043   2827610.72642  22795163.7584   22795167.0154
        48.0004         42.0004
  21913566.6174    9895141.58443   7714035.95542  21913567.5654   21913569.0964
        51.0004         45.0004
  23105654.4424    2567402.62543   1999456.94542  23105655.8884   23105657.8754
        50.0004         43.0004
 04  6 18 16 10 40.0000000  0  8G22G21G18G 6G16G15G26G29
  22174139.3254    2745614.26443   2154295.45342  22174138.5954   22174139.7654
        51.0004         45.0004
  20639877.806
        42.000
  20549759.4894    6185467.37344   4823082.34642  20549760.9404   20549758.5714
        57.0004         50.0004
  21213015.2404   13285327.19943  10348303.16042  21213016.9344   21213017.9074
        55.0004         49.0004
  23546092.6424    8193862.10343   6388178.76042  23546093.5184   23546093.0444
        47.0004         40.0004
  22786171.1474    3575331.00043   2790780.35242  22786170.4524   22786171.4384
        48.0004         42.0004
  21917872.5844    9917776.78143   7731673.76342  21917874.2424   21917876.5584
        50.0004         44.0004
  23112778.9234    2604842.38443   2028630.75042  23112779.9194   23112782.7464
        49.0004         43.0004
 04  6 18 16 11  0.0000000  0  7G22G18G 6G16G15G26G29
  22165053.4314    2697862.81043   2117086.54742  22165053.5674   22165052.5184
        52.0004         46.0004
  20546889.1754    6170382.66744   4811328.04942  20546890.4994   20546887.7094
        57.0004         50.0004
  21221780.3014   13331387.18043  10384194.03242  21221781.6554   21221783.2754
        54.0004         48.0004
  23546919.0814    8198210.23543   6391566.87442  23546920.8454   23546920.4504
        47.0004         40.0004
  22777181.1864    3528090.96143   2753969.96042  22777182.0104   22777183.1834
        49.0004         43.0004
  21922235.3994    9940700.70643   7749536.55642  21922236.8574   21922238.7584
        50.0004         45.0004
  23119943.6754    2642494.39943   2057969.93942  23119946.4424   23119947.6754
        49.0004         42.0004
 04  6 18 16 11 20.0000000  0  8G22G21G18G 6G16G15G26G29
  22155994.3714    2650252.96943   2079987.99542  22155994.9234   22155992.9014
        53.0004         46.0004
  20635928.316
        42.000
  20544053.2514    6155481.10944   4799716.46542  20544054.7244   20544052.4194
        57.0004         50.0004
  21230580.3694   13377629.70043  10420227.14242  21230581.4494   21230582.8394
        54.0004         48.0004
  23547789.1784    8202780.26243   6395127.86942  23547789.5074   23547791.6784
        47.0004         40.0004
  22768196.4264    3480872.08943   2717176.06042  22768196.9184   22768197.8444
        50.0004         44.0004
  21926653.1594    9963908.47143   7767620.52642  21926654.0114   21926655.0704
        51.0004         45.0004
  23127148.3194    2680353.57943   2087470.56542  23127150.2004   23127151.0284
        49.0004         42.0004
 04  6 18 16 11 40.0000000  0  8G22G21G18G 6G16G15G26G29
  22146962.6524    2602788.45443   2043002.70042  22146962.9764   22146959.5674
        54.0004         46.0004
  20633984.835
        42.000
  20541253.0054    6140766.42044   4788250.49442  20541254.1164   20541252.3284
        57.0004         50.0004
  21239416.2574   13424057.92143  10456404.94742  21239417.6494   21239416.9054
        55.0004         47.0004
  23548699.3754    8207575.42243   6398864.32442  23548700.7764   23548702.5864
        45.0004         39.0004
  22759215.3644    3433678.10443   2680401.55042  22759217.0614   22759218.4054
        51.0004         44.0004
  21931124.2964    9987403.35943   7785928.21942  21931125.7334   21931126.7334
        51.0004         45.0004
  23134393.6574    2718423.12243   2117135.12842  23134393.8274   23134394.3454
        49.0004         42.0004
 04  6 18 16 12  0.0000000  0  8G22G21G18G 6G16G15G26G29
  22137957.7224    2555470.72943   2006131.79842  22137959.2074   22137955.2764
        55.0004         46.0004
  20632056.8694   -1541899.24853  -1192221.10252  20632056.2264   20632058.1774
        42.0004         35.0004
  20538488.9684    6126239.65444   4776930.96242  20538490.0984   20538488.1314
        57.0004         50.0004
  21248287.2104   13470672.62043  10492728.03542  21248288.2704   21248286.7244
        56.0004         48.0004
  23549656.1944    8212596.54643   6402776.84542  23549657.5164   23549657.1384
        46.0004         39.0004
  22750239.0354    3386510.37143   2643647.49542  22750240.9904   22750241.3804
        51.0004         44.0004
  21935649.9314   10011186.27843   7804460.35442  21935651.7614   21935652.0664
        51.0004         45.0004
  23141676.9864    2756703.54543   2146964.00942  23141678.2004   23141679.6364
        49.0004         42.0004
 04  6 18 16 12 20.0000000  0  8G22G21G18G 6G16G15G26G29
  22128980.9194    2508300.37943   1969375.74242  22128982.2074   22128978.5414
        55.0004         46.0004
  20630147.3614   -1551936.75643  -1200042.53242  20630147.1644   20630146.6864
        42.0004         36.0004
  20535760.3874    6111900.83843   4765757.87442  20535761.6494   20535759.2934
        56.0004         50.0004
  21257192.7674   13517473.92343  10529196.52342  21257194.1114   21257193.6734
        56.0004         48.0004
  23550655.5894    8217843.93843   6406865.68342  23550655.5324   23550656.8194
        46.0004         39.0004
  22741267.7654    3339369.41443   2606914.29942  22741269.2514   22741271.4844
        50.0004         44.0004
  21940230.0654   10035257.14843   7823216.86642  21940231.9814   21940231.8374
        52.0004         45.0004
  23149001.2174    2795194.79943   2176957.16842  23149003.0734   23149004.5024
        49.0004         43.0004
 04  6 18 16 12 40.0000000  0  8G22G21G18G 6G16G15G26G29
  22120032.6804    2461274.13343   1932731.95742  22120032.8174   22120029.8844
        55.0004         45.0004
  20628254.8894   -1561887.35643  -1207796.25542  20628255.7764   20628254.5654
        42.0004         36.0004
  20533066.3784    6097746.39143   4754728.45042  20533067.8944   20533066.0794
        56.0004         50.0004
  21266133.5364   13564457.60643  10565807.13642  21266134.6874   21266133.6054
        56.0004         48.0004
  23551696.2094    8223313.55143   6411127.67642  23551697.5854   23551698.5904
        46.0004         39.0004
  22732301.4214    3292251.58343   2570199.11242  22732303.2024   22732304.0974
        50.0004         44.0004
  21944864.4744   10059612.22143   7842194.83242  21944867.1984   21944866.6814
        51.0004         45.0004
  23156366.9294    2833892.77843   2207111.41742  23156368.7394   23156368.4084
        50.0004         43.0004
 04  6 18 16 13  0.0000000  0  8G22G21G18G 6G16G15G26G29
  22111112.0534    2414398.28143   1896205.37742  22111112.8854   22111110.7244
        54.0004         45.0004
  20626379.5024   -1571744.23243  -1215476.94242  20626377.6084   20626377.6564
        43.0004         36.0004
  20530409.3064    6083782.26143   4743847.33242  20530410.5584   20530408.7424
        56.0004         50.0004
  21275110.1114   13611629.39643  10602564.31742  21275110.7334   21275110.6074
        56.0004         48.0004
  23552781.2284    8229011.30443   6415567.43742  23552782.3524   23552783.0914
        47.0004         40.0004
  22723341.1314    3245163.22043   2533506.90042  22723341.7534   22723343.5694
        50.0004         44.0004
  21949553.7444   10084257.08243   7861398.61642  21949556.2074   21949555.8674
        51.0004         45.0004
  23163770.5944    2872803.00843   2237431.07242  23163773.5634   23163772.7224
        49.0004         43.0004
 04  6 18 16 13 20.0000000  0  8G22G21G18G 6G16G15G26G29
  22102219.3284    2367666.54343   1859791.09642  22102219.6264   22102217.0064
        55.0004         45.0004
  20624518.3534   -1581513.70843  -1223089.54442  20624521.1984   20624517.3134
        41.0004         36.0004
  20527787.4154    6070002.04343   4733109.52142  20527788.5454   20527786.7034
        56.0004         50.0004
  21284121.0294   13658982.44743  10639462.76642  21284122.2484   21284122.3244
        56.0004         49.0004
  23553907.8364    8234930.51043   6420179.77442  23553908.0034   23553910.1634
        47.0004         40.0004
  22714385.8414    3198098.06243   2496832.77442  22714386.6164   22714387.9514
        50.0004         44.0004
  21954297.5754   10109185.15243   7880823.07342  21954299.3804   21954300.2734
        50.0004         45.0004
  23171213.4354    2911918.63043   2267910.75842  23171215.3764   23171215.5104
        49.0004         43.0004
 04  6 18 16 13 40.0000000  0  8G22G21G18G 6G16G15G26G29
  22093355.3874    2321079.82243   1823489.81642  22093354.9174   22093351.8384
        55.0004         46.0004
  20622678.3734   -1591195.11743  -1230633.48342  20622679.3114   20622676.5684
        41.0004         36.0004
  20525200.1834    6056406.14743   4722515.33642  20525201.1104   20525199.4314
        56.0004         50.0004
  21293166.6924   13706517.07643  10676502.70542  21293168.0944   21293168.8474
        56.0004         49.0004
  23555077.1894    8241071.45343   6424964.88142  23555078.0564   23555079.0164
        48.0004         40.0004
  22705433.2584    3151056.97443   2460177.39842  22705433.6214   22705434.0174
        50.0004         43.0004
  21959094.0624   10134396.63043   7900468.38842  21959096.1434   21959097.7364
        49.0004         44.0004
  23178696.4364    2951239.74143   2298550.57242  23178699.1954   23178699.3564
        50.0004         43.0004
 04  6 18 16 14  0.0000000  0  8G22G21G18G 6G16G15G26G29
  22084518.7124    2274643.90143   1787306.04342  22084519.1144   22084514.7524
        55.0004         46.0004
  20620855.9244   -1600782.45543  -1238104.13342  20620858.1524   20620848.9444
        39.0004         36.0004
  20522648.8624    6043000.00843   4712069.00442  20522650.0724   20522648.4694
        56.0004         50.0004
  21302247.5994   13754238.38943  10713688.12342  21302248.7404   21302250.0354
        56.0004         49.0004
  23556288.5764    8247439.44143   6429926.90242  23556290.7134   23556289.6264
        48.0004         40.0004
  22696487.0974    3104045.63943   2423545.20242  22696488.2844   22696489.6764
        49.0004         43.0004
  21963947.3034   10159896.69143   7920338.55442  21963948.0374   21963950.0514
        50.0004         44.0004
  23186218.8074    2990771.30143   2329354.37442  23186220.9774   23186221.6534
        49.0004         43.0004
 04  6 18 16 14 20.0000000  0  8G22G21G18G 6G16G15G26G29
  22075710.0694    2228355.46843   1751237.18942  22075710.7734   22075707.3384
        55.0004         46.0004
  20619048.9564   -1610279.26743  -1245504.22542  20619051.2534   20619044.8954
        40.0004         35.0004
  20520133.3564    6029779.69143   4701767.46842  20520134.5024   20520132.6714
        56.0004         50.0004
  21311363.6144   13802142.26143  10751015.79842  21311365.0174   21311365.3894
        56.0004         49.0004
  23557542.8074    8254030.41543   6435062.67842  23557544.5564   23557543.9154
        48.0004         41.0004
  22687546.6054    3057060.52043   2386933.44442  22687547.3344   22687547.8434
        49.0004         43.0004
  21968854.2474   10185681.30943   7940430.46242  21968855.5754   21968857.4914
        50.0004         44.0004
  23193781.3594    3030509.02643   2360318.82042  23193783.9664   23193783.2404
        49.0004         43.0004
 04  6 18 16 14 40.0000000  0  8G22G21G18G 6G16G15G26G29
  22066927.8494    2182213.55843   1715282.50042  22066929.2804   22066927.7064
        54.0004         46.0004
  20617259.3864   -1619686.18553  -1252834.30452  20617257.0714   20617254.4944
        37.0004         34.0004
  20517652.2334    6016743.90943   4691609.72442  20517653.6824   20517652.1154
        56.0004         50.0004
  21320513.8864   13850227.11443  10788484.49242  21320515.5624   21320515.9004
        56.0004         49.0004
  23558838.9344    8260843.00643   6440371.14542  23558840.2314   23558840.7264
        47.0004         41.0004
  22678611.1744    3010100.67643   2350341.37442  22678611.0344   22678611.6044
        50.0004         43.0004
  21973814.2744   10211749.08543   7960743.00042  21973815.3694   21973816.9904
        50.0004         44.0004
  23201382.3064    3070451.58143   2391442.88142  23201384.4884   23201383.5904
        50.0004         43.0004
 04  6 18 16 15  0.0000000  0  7G22G18G 6G16G15G26G29
  22058173.8524    2136212.51443   1679437.55742  22058174.0324   22058174.2934
        53.0004         46.0004
  20515206.0154    6003886.88443   4681591.26842  20515207.4854   20515205.5064
        56.0004         51.0004
  21329697.0374   13898486.71743  10826089.36742  21329699.0894   21329699.0964
        56.0004         49.0004
  23560176.0564    8267871.06743   6445847.51642  23560178.2364   23560178.5544
        47.0004         41.0004
  22669678.5874    2963160.35343   2313764.51342  22669680.2754   22669679.5694
        50.0004         43.0004
  21978828.4244   10238093.77643   7981271.33242  21978829.1194   21978830.6914
        51.0004         44.0004
  23209020.0814    3110592.41343   2422721.44642  23209022.3824   23209021.8234
        49.0004         43.0004
 04  6 18 16 15 20.0000000  0  7G22G18G 6G16G15G26G29
  22049449.1074    2090366.87343   1643713.69542  22049449.9114   22049450.9844
        53.0004         47.0004
  20512796.1074    5991222.55843   4671722.96742  20512797.3284   20512795.2104
        56.0004         51.0004
  21338916.9894   13946934.92843  10863841.18742  21338918.3664   21338918.1104
        56.0004         49.0004
  23561558.5144    8275128.43743   6451502.55442  23561559.1394   23561559.3974
        47.0004         40.0004
  22660752.3084    2916253.87643   2277214.03442  22660753.3084   22660753.5174
        50.0004         43.0004
  21983897.1064   10264729.24243   8002026.23542  21983897.7164   21983898.5254
        51.0004         45.0004
  23216699.0984    3150945.12843   2454165.08742  23216700.8484   23216701.0444
        48.0004         43.0004
 04  6 18 16 15 40.0000000  0  7G22G18G 6G16G15G26G29
  22040752.0174    2044664.02243   1608101.08842  22040752.8074   22040754.3014
        53.0004         47.0004
  20510420.3414    5978738.08243   4661994.81242  20510421.3324   20510419.7284
        56.0004         51.0004
  21348169.6414   13995558.49743  10901729.65442  21348170.8704   21348170.8204
        56.0004         48.0004
  23562979.7304    8282602.00543   6457326.07842  23562981.1494   23562982.5004
        45.0004         40.0004
  22651830.5184    2869368.70743   2240680.15142  22651831.5004   22651832.8604
        50.0004         43.0004
  21989018.3974   10291642.41143   8022997.54142  21989019.3734   21989019.6794
        52.0004         45.0004
  23224416.4764    3191496.53743   2485763.56942  23224417.0584   23224418.4034
        48.0004         42.0004
 04  6 18 16 16  0.0000000  0  7G22G18G 6G16G15G26G29
  22032085.9154    1999112.10343   1572606.10442  22032084.8414   22032085.3744
        54.0004         48.0004
  20508080.2354    5966441.24943   4652412.87342  20508081.7084   20508079.7604
        56.0004         51.0004
  21357457.1244   14044364.90743  10939760.57942  21357458.3574   21357458.0014
        56.0004         48.0004
  23564443.5084    8290299.45043   6463324.04742  23564444.6464   23564444.6774
        46.0004         40.0004
  22642914.0674    2822512.95143   2204169.19242  22642915.0824   22642916.1364
        51.0004         43.0004
  21994194.2194   10318840.67943   8044190.98642  21994195.3764   21994195.8154
        53.0004         45.0004
  23232171.2554    3232253.98243   2517522.60542  23232172.6724   23232174.6704
        47.0004         42.0004
 04  6 18 16 16 20.0000000  0  7G22G18G 6G16G15G26G29
  22023445.7504    1953708.93943   1537227.04242  22023446.3394   22023444.7524
        55.0004         48.0004
  20505775.3154    5954329.63243   4642975.25942  20505777.0354   20505774.7874
        56.0004         51.0004
  21366778.5004   14093351.28643  10977931.74542  21366779.5854   21366779.2614
        56.0004         48.0004
  23565950.1244    8298218.12443   6469494.40042  23565949.3974   23565952.5274
        43.0004         38.0004
  22634002.7504    2775684.30943   2167679.38142  22634004.1334   22634005.4894
        51.0004         44.0004
  21999422.8994   10346321.26143   8065604.42342  21999425.1794   21999425.2694
        53.0004         46.0004
  23239964.8534    3273214.54843   2549439.90242  23239965.9904   23239969.4634
        46.0004         42.0004
 04  6 18 16 16 40.0000000  0  7G22G18G 6G16G15G26G29
  22014834.2994    1908455.13243   1501964.36842  22014834.8344   22014832.8664
        55.0004         48.0004
  20503505.8234    5942403.55243   4633682.21342  20503507.1044   20503505.3104
        56.0004         51.0004
  21376134.8574   14142517.56943  11016243.09342  21376136.0654   21376135.5154
        56.0004         47.0004
  23567500.3324    8306357.92443   6475837.08742  23567500.1454   23567502.2654
        46.0004         39.0004
  22625097.0814    2728883.29143   2131211.06742  22625098.5884   22625099.5264
        51.0004         43.0004
  22004706.5004   10374084.24743   8087237.91542  22004708.2214   22004708.7964
        53.0004         45.0004
  23247796.8134    3314378.06043   2581515.34242  23247799.6234   23247801.4084
        45.0004         42.0004
 04  6 18 16 17  0.0000000  0  7G22G18G 6G16G15G26G29
  22006251.6184    1863350.64143   1466818.04542  22006251.7234   22006249.8274
        55.0004         47.0004
  20501271.6864    5930662.47043   4624533.32342  20501273.0424   20501270.9954
        56.0004         51.0004
  21385524.9564   14191863.33543  11054694.29442  21385526.0924   21385526.4344
        55.0004         47.0004
  23569089.4344    8314718.41543   6482351.72442  23569091.4974   23569092.1344
        45.0004         39.0004
  22616195.3854    2682109.95443   2094764.33342  22616196.9334   22616199.2824
        50.0004         43.0004
  22010042.6324   10402129.06143   8109090.99642  22010044.4104   22010046.2294
        52.0004         45.0004
  23255669.2224    3355743.97343   2613748.48042  23255669.8324   23255674.6474
        45.0004         41.0004
 04  6 18 16 17 20.0000000  0  7G22G18G 6G16G15G26G29
  21997696.0954    1818390.55043   1431784.25942  21997696.6524   21997693.0394
        56.0004         47.0004
  20499071.2134    5919101.06843   4615524.44042  20499072.7414   20499071.1014
        56.0004         51.0004
  21394948.2244   14241382.68943  11093280.76942  21394949.6944   21394949.0524
        55.0004         47.0004
  23570724.0324    8323294.06943   6489033.99842  23570724.4964   23570723.8874
        46.0004         39.0004
  22607299.6254    2635359.26543   2058335.24342  22607300.8644   22607303.3484
        51.0004         43.0004
  22015432.1874   10430450.15043   8131159.37542  22015433.9024   22015434.9794
        52.0004         45.0004
  23263578.5644    3397306.35843   2646134.72442  23263578.7184   23263582.9024
        45.0004         41.0004
 04  6 18 16 17 40.0000000  0  7G22G18G 6G16G15G26G29
  21989168.5384    1773581.52243   1396868.17942  21989169.0994   21989165.9994
        55.0004         46.0004
  20496906.7904    5907725.43843   4606660.31842  20496907.8114   20496906.5154
        56.0004         51.0004
  21404406.3004   14291081.60443  11132007.14542  21404407.3944   21404406.7634
        55.0004         47.0004
  23572396.9154    8332091.02043   6495888.70942  23572398.5184   23572397.7634
        46.0004         39.0004
  22598408.9964    2588637.77343   2021928.90042  22598409.9504   22598411.4774
        52.0004         43.0004
  22020875.3924   10459053.39443   8153447.61142  22020876.8604   22020878.6704
        52.0004         45.0004
  23271527.3274    3439070.78343   2678678.39942  23271527.4854   23271530.1424
        46.0004         41.0004
 04  6 18 16 18  0.0000000  0  8G22G21G18G 6G16G15G26G29
  21980669.4214    1728919.82743   1362066.90442  21980670.0294   21980666.9994
        54.0004         46.0004
  20600306.842
        43.000
  20494776.5464    5896531.60943   4597937.86142  20494777.9944   20494776.5994
        56.0004         51.0004
  21413895.9374   14340955.99643  11170870.27842  21413898.1164   21413897.5154
        54.0004         47.0004
  23574111.4924    8341105.04743   6502912.57342  23574112.8634   23574112.7864
        46.0004         39.0004
  22589522.7224    2541941.94243   1985542.59042  22589523.8734   22589525.3194
        52.0004         43.0004
  22026372.2074   10487934.51943   8175952.39742  22026372.5134   22026374.3894
        53.0004         45.0004
  23279512.1064    3481033.24143   2711376.39342  23279511.5574   23279515.4004
        46.0004         41.0004
 04  6 18 16 18 20.0000000  0  8G22G21G18G 6G16G15G26G29
  21972200.6534    1684416.22743   1327388.82242  21972200.7514   21972198.1644
        54.0004         45.0004
  20598712.693
        43.000
  20492683.1444    5885530.11843   4589365.27142  20492684.5534   20492683.0964
        56.0004         51.0004
  21423421.5254   14391015.60743  11209877.73742  21423423.1694   21423423.7804
        54.0004         47.0004
  23575870.5114    8350346.16843   6510113.39742  23575870.9514   23575871.7964
        46.0004         39.0004
  22580644.0494    2495282.30843   1949184.48042  22580644.8264   22580645.8424
        52.0004         42.0004
  22031922.4224   10517103.65443   8198681.60542  22031924.1304   22031923.8894
        53.0004         45.0004
  23287536.2814    3523203.75143   2744236.52042  23287537.0094   23287539.6624
        46.0004         41.0004
 04  6 18 16 18 40.0000000  0  8G22G21G18G 6G16G15G26G29
  21963758.2804    1640055.47543   1292822.04142  21963758.8324   21963757.3704
        54.0004         45.0004
  20597130.2054   -1463833.49453  -1133289.60652  20597131.3774   20597131.3454
        41.0004         32.0004
  20490623.2104    5874705.40643   4580930.43642  20490624.5854   20490623.5284
        56.0004         51.0004
  21432980.4124   14441244.97343  11249017.47042  21432981.6274   21432981.5074
        54.0004         47.0004
  23577667.1924    8359798.85443   6517479.07842  23577669.4344   23577670.9764
        44.0004         39.0004
  22571769.1674    2448643.69143   1912842.74542  22571770.3324   22571770.3044
        53.0004         42.0004
  22037525.8924   10546545.16443   8221623.05442  22037527.0594   22037526.4264
        53.0004         45.0004
  23295598.0154    3565566.14243   2777246.14742  23295599.0834   23295600.7404
        47.0004         41.0004
 04  6 18 16 19  0.0000000  0  8G22G21G18G 6G16G15G26G29
  21955345.2844    1595842.84943   1258370.68842  21955345.7794   21955342.9234
        54.0004         45.0004
  20595567.0084   -1472048.32543  -1139690.81342  20595568.2224   20595561.9234
        42.0004         32.0004
  20488598.0994    5864062.34144   4572637.14642  20488599.5544   20488598.5224
        57.0004         51.0004
  21442571.5254   14491648.38243  11288292.84742  21442573.1114   21442573.0084
        54.0004         47.0004
  23579510.4054    8369467.48743   6525013.05042  23579511.4474   23579511.0134
        46.0004         39.0004
  22562899.1344    2402031.11043   1876521.31442  22562899.4964   22562901.2684
        53.0004         42.0004
  22043180.3494   10576263.38343   8244780.11242  22043181.4924   22043182.8034
        53.0004         45.0004
  23303696.4384    3608124.76043   2810408.68742  23303697.6274   23303700.3414
        47.0004         41.0004
 04  6 18 16 19 20.0000000  0  8G22G21G18G 6G16G15G26G29
  21946961.1744    1551783.94343   1224039.11242  21946961.4394   21946958.0884
        54.0004         45.0004
  20594023.7644   -1480165.32543  -1146015.77042  20594021.0614   20594016.3844
        39.0004         32.0004
  20486608.4604    5853606.19444   4564489.50542  20486610.0644   20486608.7314
        57.0004         51.0004
  21452197.4894   14542230.89043  11327707.76342  21452198.7334   21452199.2014
        54.0004         47.0004
  23581392.0414    8379357.42243   6532719.45042  23581392.6804   23581393.6264
        46.0004         40.0004
  22554034.3554    2355450.21643   1840224.55642  22554036.8664   22554035.7744
        52.0004         42.0004
  22048889.3984   10606263.46043   8268156.79742  22048891.4564   22048891.3184
        53.0004         45.0004
  23311833.5564    3650884.66943   2843728.08742  23311834.6914   23311836.6144
        47.0004         41.0004
 04  6 18 16 19 40.0000000  0  7G22G18G 6G16G15G26G29
  21938605.0064    1507868.63143   1189819.44342  21938604.8784   21938601.5274
        55.0004         46.0004
  20484652.4744    5843326.31144   4556479.21542  20484653.8504   20484652.0804
        57.0004         51.0004
  21461855.0644   14592981.63243  11367253.76742  21461856.0844   21461856.9874
        54.0004         47.0004
  23583313.6044    8389457.89943   6540589.90642  23583314.6244   23583317.2014
        47.0004         41.0004
  22545173.8844    2308890.88143   1803944.60042  22545176.2304   22545176.0774
        51.0004         42.0004
  22054649.1074   10636534.50843   8291744.62842  22054651.6034   22054651.4294
        52.0004         44.0004
  23320007.3864    3693834.96343   2877195.83042  23320008.0254   23320009.0874
        47.0004         41.0004
 04  6 18 16 20  0.0000000  0  7G22G18G 6G16G15G26G29
  21930276.5344    1464105.83743   1155718.61342  21930277.0494   21930274.3624
        55.0004         46.0004
  20482731.3494    5833231.32544   4548613.00742  20482732.5634   20482731.2444
        57.0004         51.0004
  21471546.5344   14643908.89543  11406937.33042  21471548.3454   21471548.0124
        55.0004         47.0004
  23585277.2014    8399777.08843   6548630.80542  23585278.6904   23585279.9544
        47.0004         41.0004
  22536320.1244    2262362.05543   1767688.39942  22536322.0904   22536322.6354
        51.0004         43.0004
  22060462.5034   10667084.94943   8315550.15442  22060463.9834   22060464.8674
        51.0004         44.0004
  23328218.4624    3736983.74443   2910818.22742  23328219.3284   23328220.2884
        48.0004         42.0004
 04  6 18 16 20 20.0000000  0  7G22G18G 6G16G15G26G29
  21921977.3114    1420493.86143   1121735.28842  21921977.7094   21921976.1974
        55.0004         47.0004
  20480845.2354    5823319.14244   4540889.24342  20480846.6874   20480844.7594
        57.0004         51.0004
  21481271.2364   14695010.55343  11446756.77242  21481272.7874   21481272.4384
        55.0004         47.0004
  23587282.0894    8410313.00143   6556840.57442  23587283.6644   23587284.7304
        48.0004         42.0004
  22527472.5734    2215862.08443   1731454.65742  22527472.5334   22527475.4854
        51.0004         43.0004
  22066328.6764   10697912.42043   8339571.54742  22066329.7604   22066330.5934
        51.0004         45.0004
  23336466.4864    3780328.56943   2944593.39242  23336468.1574   23336469.2874
        48.0004         42.0004
 04  6 18 16 20 40.0000000  0  8G22G18G 6G16G15G26G 3G29
  21913706.5384    1377026.26743   1087864.46742  21913706.5034   21913704.5084
        55.0004         47.0004
  20478992.4664    5813583.26844   4533302.86242  20478993.8334   20478991.9914
        57.0004         51.0004
  21491027.8634   14746279.17343  11486706.31642  21491029.3704   21491028.8954
        56.0004         48.0004
  23589327.6264    8421058.44043   6565213.60642  23589328.2944   23589330.4904
        48.0004         42.0004
  22518627.3054    2169384.35843   1695238.25442  22518628.2684   22518631.3474
        51.0004         44.0004
  22072246.2054   10729009.75843   8363803.22342  22072248.1964   22072248.6204
        51.0004         45.0004
  24587128.6334   -4299956.47453  -3150153.78152  24587128.7394   24587130.0244
        47.0004         38.0004
  23344751.5484    3823862.27143   2978515.74042  23344752.5604   23344752.4404
        49.0004         42.0004
 04  6 18 16 21  0.0000000  0  8G22G18G 6G16G15G26G 3G29
  21905464.4944    1333715.91143   1054116.15842  21905464.9844   21905462.9824
        55.0004         48.0004
  20477175.5054    5804035.76344   4525863.26242  20477176.9954   20477174.9864
        57.0004         51.0004
  21500818.0554   14797727.12443  11526795.58042  21500819.9814   21500818.8294
        56.0004         48.0004
  23591414.4634    8432025.81443   6573759.55642  23591416.1074   23591418.0254
        49.0004         42.0004
  22509789.2804    2122941.91943   1659049.35242  22509789.9214   22509793.1334
        51.0004         44.0004
  22078218.3434   10760389.34343   8388254.84042  22078219.7704   22078220.2104
        51.0004         45.0004
  24574539.9704   -4366107.19843  -3201699.77442  24574540.8124   24574544.6244
        47.0004         38.0004
  23353073.8644    3867596.89043   3012594.62942  23353076.0354   23353075.3594
        49.0004         42.0004
 04  6 18 16 21 20.0000000  0  8G22G18G 6G16G15G26G 3G29
  21897251.1504    1290554.01643   1020483.53942  21897251.0814   21897250.2024
        55.0004         48.0004
  20475392.4394    5794667.56044   4518563.37842  20475393.9434   20475392.1454
        57.0004         50.0004
  21510640.8394   14849344.97344  11567017.24442  21510642.7324   21510642.0564
        57.0004         48.0004
  23593543.1614    8443205.74843   6582471.14442  23593544.0834   23593545.3374
        49.0004         42.0004
  22500957.1334    2076525.90543   1622881.03942  22500957.8294   22500960.7844
        51.0004         44.0004
  22084241.0374   10792041.58643   8412918.91942  22084241.9304   22084243.7204
        52.0004         45.0004
  24561964.1024   -4432191.58143  -3253194.06142  24561964.3714   24561966.5564
        46.0004         37.0004
  23361433.5144    3911523.06443   3046822.79442  23361434.2154   23361434.6694
        50.0004         42.0004
 04  6 18 16 21 40.0000000  0  8G22G18G 6G16G15G26G 3G29
  21889066.5284    1247546.99443    986971.58642  21889066.9044   21889066.5394
        55.0004         48.0004
  20473645.4264    5785484.78143   4511407.97942  20473646.6474   20473644.7074
        56.0004         50.0004
  21520496.4784   14901138.46243  11607375.76142  21520498.3894   21520498.0304
        56.0004         48.0004
  23595710.5824    8454603.92543   6591352.79842  23595712.9014   23595714.2864
        49.0004         42.0004
  22492131.1194    2030142.78643   1586738.37542  22492132.5564   22492134.2784
        52.0004         45.0004
  22090317.4494   10823972.30843   8437799.99242  22090318.3154   22090319.4034
        52.0004         45.0004
  24549403.7464   -4498202.81343  -3304631.36042  24549405.0334   24549402.6064
        47.0004         38.0004
  23369829.6984    3955646.15743   3081204.40242  23369831.0804   23369831.2104
        50.0004         42.0004
 04  6 18 16 22  0.0000000  0  8G22G18G 6G16G15G26G 3G29
  21880911.7264    1204686.91543    953574.14542  21880911.7794   21880910.0044
        56.0004         48.0004
  20471931.6664    5776479.16643   4504390.62442  20471932.7334   20471930.6334
        56.0004         50.0004
  21530383.9904   14953098.82343  11647864.31042  21530385.6744   21530385.9054
        56.0004         48.0004
  23597921.0904    8466211.98543   6600397.97842  23597920.9434   23597923.9704
        50.0004         42.0004
  22483309.7074    1983784.59743   1550615.12442  22483310.2294   22483312.2024
        51.0004         45.0004
  22096444.8994   10856172.87143   8462891.32342  22096446.9854   22096447.7714
        52.0004         45.0004
  24536854.8844   -4564148.35043  -3356017.46342  24536859.1164   24536856.8694
        47.0004         38.0004
  23378261.2534    3999957.58243   3115732.76542  23378261.8414   23378263.6494
        50.0004         42.0004
 04  6 18 16 22 20.0000000  0  8G22G18G 6G16G15G26G 3G29
  21872784.2054    1161976.80743    920293.56642  21872784.1824   21872783.0924
        56.0004         48.0004
  20470251.7304    5767653.55043   4497513.52842  20470253.1054   20470251.3794
        56.0004         50.0004
  21540303.8634   15005228.73043  11688484.98242  21540304.6034   21540306.2064
        54.0004         47.0004
  23600170.1564    8478032.25843   6609608.51842  23600170.5734   23600172.7164
        49.0004         42.0004
  22474492.0044    1937454.41643   1514513.70742  22474493.8184   22474495.9464
        51.0004         45.0004
  22102624.1124   10888645.76043   8488194.86642  22102625.9594   22102626.3954
        52.0004         45.0004
  24524318.6684   -4630024.35943  -3407349.40042  24524321.0404   24524320.3384
        47.0004         38.0004
  23386730.1174    4044459.58343   3150409.61942  23386730.9784   23386730.8494
        50.0004         42.0004
 04  6 18 16 22 40.0000000  0  8G22G18G 6G16G15G26G 3G29
  21864686.1654    1119424.21543    887135.72442  21864686.6304   21864685.2964
        55.0004         48.0004
  20468607.7704    5759014.90143   4490782.11642  20468608.9644   20468607.4764
        56.0004         50.0004
  21550256.5544   15057534.84843  11729242.95242  21550258.0404   21550259.5614
        54.0004         47.0004
  23602460.3644    8490071.81943   6618989.94542  23602461.2814   23602461.9974
        49.0004         41.0004
  22465683.3444    1891159.79843   1478439.98942  22465684.2854   22465685.7754
        51.0004         44.0004
  22108856.0974   10921397.88443   8513715.99142  22108858.4634   22108859.0284
        52.0004         46.0004
  24511798.0654   -4695822.82443  -3458620.90942  24511799.2264   24511800.8054
        46.0004         39.0004
  23395236.5094    4089159.13243   3185240.40442  23395237.8184   23395236.5874
        50.0004         43.0004
 04  6 18 16 23  0.0000000  0  8G22G18G 6G16G15G26G 3G29
  21856616.3024    1077019.05543    854092.77142  21856616.4254   21856616.2294
        55.0004         47.0004
  20466997.2244    5750552.61643   4484188.13242  20466998.6094   20466997.4734
        56.0004         51.0004
  21560241.2304   15110006.52243  11770129.94742  21560242.4624   21560243.8954
        53.0004         46.0004
  23604791.3844    8502320.13043   6628534.03242  23604793.6524   23604792.6304
        49.0004         41.0004
  22456879.1134    1844890.58943   1442386.08042  22456879.1604   22456880.3484
        51.0004         44.0004
  22115140.6204   10954418.38143   8539446.24542  22115143.1854   22115143.4924
        52.0004         46.0004
  24499290.0924   -4761553.33243  -3509839.47342  24499291.7064   24499291.7404
        45.0004         39.0004
  23403777.6854    4134045.21743   3220216.55842  23403779.2644   23403778.2724
        51.0004         43.0004
 04  6 18 16 23 20.0000000  0  9G22G21G18G 6G16G15G26G 3G29
  21848575.6254    1034769.27443    821170.89342  21848575.8924   21848576.3624
        54.0004         47.0004
  20576882.413
        44.000
  20465422.5054    5742274.71043   4477737.81842  20465423.4414   20465422.3634
        56.0004         51.0004
  21570258.1924   15162651.14043  11811151.69842  21570259.0634   21570261.1184
        52.0004         46.0004
  23607162.8764    8514784.56843   6638246.51042  23607164.7614   23607167.6434
        47.0004         40.0004
  22448079.7484    1798654.95243   1406358.33842  22448079.6854   22448082.2204
        50.0004         43.0004
  22121476.7864   10987714.65843   8565391.37342  22121477.7474   22121479.5204
        52.0004         46.0004
  24486795.9094   -4827207.10943  -3560998.25542  24486797.5684   24486800.0704
        44.0004         38.0004
  23412356.5694    4179125.06743   3255343.69642  23412357.7144   23412356.6974
        51.0004         43.0004
 04  6 18 16 23 40.0000000  0  9G22G21G18G 6G16G15G26G 3G29
  21840564.4984     992668.52843    788365.13642  21840564.3364   21840564.4534
        53.0004         46.0004
  20575569.314
        44.000
  20463880.7434    5734174.30843   4471425.81342  20463882.0414   20463880.8494
        56.0004         51.0004
  21580309.4194   15215461.42743  11852302.53142  21580310.0004   21580310.7394
        53.0004         46.0004
  23609574.6744    8527457.97643   6648121.85442  23609577.1094   23609577.2834
        47.0004         40.0004
  22439286.6944    1752446.33843   1370351.64542  22439286.3954   22439288.1474
        49.0004         43.0004
  22127863.2494   11021279.58043   8591545.82842  22127865.2134   22127866.7214
        51.0004         46.0004
  24474315.2744   -4892790.19143  -3612101.93042  24474317.4864   24474320.1024
        40.0004         38.0004
  23420970.0914    4224391.51143   3290616.22742  23420972.2984   23420970.9984
        51.0004         44.0004
 04  6 18 16 24  0.0000000  0  8G22G21G18G 6G16G15G26G29
  21832582.4954     950724.10643    755681.19542  21832583.0434   21832581.7334
        53.0004         46.0004
  20574279.7314   -1411154.77553  -1093859.79652  20574276.7234   20574271.8944
        45.0004         38.0004
  20462374.5254    5726258.29743   4465257.49742  20462375.9254   20462374.4344
        56.0004         51.0004
  21590391.8294   15268444.24843  11893587.81142  21590392.8544   21590392.8634
        54.0004         47.0004
  23612027.0834    8540347.32143   6658165.42542  23612027.1074   23612027.7634
        46.0004         39.0004
  22430501.4444    1706272.20543   1334371.82342  22430500.5804   22430501.5914
        49.0004         43.0004
  22134303.1434   11055119.87543   8617914.84942  22134304.2564   22134305.8774
        51.0004         45.0004
  23429620.4594    4269851.17843   3326039.32342  23429621.7564   23429621.7784
        51.0004         44.0004
 04  6 18 16 24 20.0000000  0  8G22G21G18G 6G16G15G26G29
  21824628.3704     908927.65443    723112.55942  21824629.2614   21824627.6054
        53.0004         46.0004
  20573006.4834   -1417846.23743  -1099073.97742  20573005.3624   20573001.2884
        46.0004         38.0004
  20460901.8444    5718517.93443   4459226.05542  20460902.8944   20460901.1534
        56.0004         51.0004
  21600504.6894   15321590.53743  11935000.47142  21600506.8724   21600507.4424
        54.0004         47.0004
  23614517.9264    8553443.33543   6668370.08542  23614518.1064   23614522.1754
        45.0004         39.0004
  22421719.9584    1660124.09443   1298412.28142  22421719.7014   22421720.3334
        50.0004         43.0004
  22140793.1264   11089226.46543   8644491.37842  22140795.5904   22140796.8624
        51.0004         46.0004
  23438305.9424    4315494.84143   3361605.78642  23438307.2744   23438308.9624
        50.0004         44.0004
 04  6 18 16 24 40.0000000  0  8G22G21G18G 6G16G15G26G29
  21816705.6204     867283.84343    690662.86942  21816704.9804   21816703.1044
        54.0004         46.0004
  20571750.7094   -1424440.17643  -1104212.12842  20571749.0354   20571746.8444
        47.0004         38.0004
  20459463.1824    5710957.46544   4453334.78542  20459464.3604   20459462.5374
        57.0004         51.0004
  21610650.7584   15374904.16543  11976543.53042  21610651.7314   21610653.3554
        54.0004         47.0004
  23617051.5594    8566750.26643   6678739.07042  23617049.8124   23617052.3434
        45.0004         38.0004
  22412943.6144    1614006.65843   1262476.63742  22412945.1964   22412943.1724
        50.0004         43.0004
  22147335.5314   11123603.21343   8671278.41342  22147336.4564   22147338.1964
        52.0004         45.0004
  23447027.8334    4361326.37843   3397318.64142  23447028.8194   23447029.7464
        50.0004         44.0004
 04  6 18 16 25  0.0000000  0  8G22G21G18G 6G16G15G26G29
  21808809.1404     825787.66043    658328.22442  21808809.0574   21808806.0114
        55.0004         46.0004
  20570511.4814   -1430941.38043  -1109278.02342  20570512.7514   20570510.2034
        46.0004         39.0004
  20458057.8444    5703571.76743   4447579.70442  20458058.9364   20458057.3744
        56.0004         51.0004
  21620826.7154   15428379.67143  12018212.71942  21620827.5784   21620830.3184
        54.0004         48.0004
  23619622.4064    8580262.50143   6689268.04442  23619622.8294   23619626.7104
        45.0004         38.0004
  22404173.7004    1567915.15543   1226561.18842  22404174.3184   22404173.8374
        50.0004         43.0004
  22153928.0284   11158244.78043   8698271.81242  22153929.4434   22153930.4374
        52.0004         45.0004
  23455783.3614    4407340.20143   3433173.53642  23455784.6634   23455786.2014
        50.0004         43.0004
 04  6 18 16 25 20.0000000  0  8G22G21G18G 6G16G15G26G29
  21800942.2994     784446.32443    626114.24342  21800942.4394   21800939.0404
        56.0004         47.0004
  20569294.2714   -1437342.66143  -1114266.01042  20569294.5014   20569293.1394
        49.0004         39.0004
  20456686.9944    5696367.72043   4441966.17342  20456688.3914   20456686.6604
        56.0004         50.0004
  21631034.8904   15482023.55743  12060013.13842  21631035.6184   21631038.0914
        54.0004         48.0004
  23622233.7584    8593986.67243   6699962.14742  23622233.5104   23622236.1934
        44.0004         38.0004
  22395408.8394    1521856.81443   1190671.60842  22395410.2004   22395409.9654
        51.0004         43.0004
  22160571.5544   11193157.46743   8725476.47242  22160573.2044   22160574.1184
        52.0004         45.0004
  23464576.7834    4453542.75143   3469175.49642  23464576.9364   23464577.8804
        50.0004         43.0004
 04  6 18 16 25 40.0000000  0  8G22G21G18G 6G16G15G26G29
  21793104.2864     743256.65143    594018.43942  21793104.4004   21793101.7684
        56.0004         48.0004
  20568093.7074   -1443647.18443  -1119178.62342  20568092.7444   20568096.2374
        46.0004         40.0004
  20455349.8794    5689341.45343   4436491.16042  20455351.4324   20455349.6634
        56.0004         50.0004
  21641273.9324   15535831.92543  12101941.72142  21641274.4244   21641277.2454
        54.0004         47.0004
  23624885.3634    8607919.09843   6710818.54442  23624885.2384   23624888.5674
        45.0004         39.0004
  22386649.4714    1475828.32943   1154805.27842  22386648.9804   22386650.6144
        50.0004         43.0004
  22167266.4904   11228337.39843   8752889.38242  22167267.7674   22167267.2934
        52.0004         45.0004
  23473402.8804    4499929.88343   3505321.27742  23473404.6254   23473405.5844
        49.0004         43.0004
 04  6 18 16 26  0.0000000  0  8G22G21G18G 6G16G15G26G29
  21785295.2754     702219.86144    562041.76742  21785295.4174   21785292.2964
        57.0004         48.0004
  20566912.7344   -1449853.32343  -1124014.59142  20566912.8314   20566913.6734
        48.0004         40.0004
  20454046.8624    5682493.99943   4431155.49742  20454048.0104   20454047.0224
        56.0004         50.0004
  21651544.8334   15589805.26843  12143998.84842  21651545.4694   21651547.4474
        54.0004         47.0004
  23627577.3404    8622060.37143   6721837.66842  23627578.1574   23627579.8794
        45.0004         39.0004
  22377896.6184    1429831.12843   1118963.32242  22377897.2904   22377896.1664
        49.0004         42.0004
  22174011.9994   11263785.18143   8780511.01542  22174013.6364   22174013.4634
        52.0004         45.0004
  23482265.3874    4546502.15143   3541611.31842  23482265.4874   23482268.0474
        49.0004         43.0004
 04  6 18 16 26 20.0000000  0  8G22G21G18G 6G16G15G26G29
  21777514.9584     661333.88544    530182.60842  21777514.8844   21777512.0364
        57.0004         48.0004
  20565750.0844   -1455963.05243  -1128775.43442  20565749.9254   20565749.4944
        48.0004         40.0004
  20452777.4264    5675822.93343   4425957.26242  20452778.9174   20452777.4184
        56.0004         50.0004
  21661847.1534   15643940.97343  12186182.46942  21661848.3774   21661848.0274
        55.0004         47.0004
  23630308.1234    8636407.81843   6733017.45142  23630308.6724   23630309.4124
        46.0004         39.0004
  22369148.5234    1383863.18843   1083144.16842  22369150.5994   22369148.4004
        48.0004         42.0004
  22180808.5094   11299498.10143   8808339.25842  22180810.5354   22180809.0274
        52.0004         44.0004
  23491162.5364    4593256.70943   3578043.41342  23491163.9664   23491164.6704
        48.0004         43.0004
 04  6 18 16 26 40.0000000  0  8G22G21G18G 6G16G15G26G29
  21769763.1854     620603.27443    498444.50742  21769763.6864   21769761.6244
        56.0004         48.0004
  20564606.7254   -1461971.81443  -1133457.59042  20564607.3854   20564603.3904
        49.0004         40.0004
  20451542.2004    5669332.48343   4420899.77742  20451543.5444   20451541.7164
        55.0004         50.0004
  21672181.1094   15698242.99343  12228495.70142  21672181.9664   21672180.6644
        54.0004         46.0004
  23633077.5364    8650965.45243   6744361.01242  23633078.9354   23633082.0894
        46.0004         40.0004
  22360409.2174    1337929.13243   1047351.40142  22360408.8164   22360409.4874
        47.0004         42.0004
  22187655.4414   11335479.81443   8836376.93942  22187658.0014   22187657.6504
        52.0004         44.0004
  23500094.4434    4640197.56043   3614620.63942  23500095.1704   23500096.6544
        48.0004         42.0004
 04  6 18 16 27  0.0000000  0  8G22G21G18G 6G16G15G26G29
  21762040.9784     580026.18243    466826.02642  21762041.0254   21762040.3434
        55.0004         48.0004
  20563481.7864   -1467881.42243  -1138062.46042  20563482.9144   20563478.7644
        48.0004         40.0004
  20450340.4764    5663020.37443   4415981.26142  20450342.3704   20450340.2124
        55.0004         49.0004
  21682545.3324   15752708.61543  12270936.36142  21682546.5544   21682544.8484
        55.0004         46.0004
  23635888.4974    8665730.72643   6755866.38442  23635889.2614   23635890.2334
        47.0004         40.0004
  22351673.8194    1292027.14243   1011583.63242  22351674.3114   22351673.2874
        47.0004         41.0004
  22194553.3004   11371728.04643   8864622.31742  22194555.1974   22194554.4534
        52.0004         44.0004
  23509062.3044    4687321.79243   3651340.79642  23509063.7364   23509065.2204
        48.0004         42.0004
 04  6 18 16 27 20.0000000  0  8G22G21G18G 6G16G15G26G29
  21754347.4164     539597.76243    435323.38942  21754347.6034   21754347.3314
        55.0004         48.0004
  20562375.5544   -1473696.41743  -1142593.62042  20562374.7444   20562372.3564
        49.0004         41.0004
  20449172.7624    5656881.28443   4411197.56442  20449173.9804   20449171.8184
        54.0004         49.0004
  21692939.7704   15807332.50043  12313500.37142  21692940.8924   21692940.2694
        55.0004         46.0004
  23638735.0954    8680698.12643   6767529.24442  23638736.5584   23638739.3144
        46.0004         40.0004
  22342943.3424    1246152.49043    975837.16042  22342942.7274   22342943.1764
        47.0004         41.0004
  22201500.5484   11408237.19343   8893070.98642  22201503.4974   22201500.7694
        51.0004         43.0004
  23518063.5024    4734624.00643   3688199.63442  23518064.5904   23518065.4154
        47.0004         42.0004
 04  6 18 16 27 40.0000000  0  8G22G21G18G 6G16G15G26G29
  21746685.1474     499326.12343    403942.90942  21746684.4494   21746683.5234
        55.0004         48.0004
  20561288.4704   -1479408.55543  -1147044.66742  20561290.4584   20561285.1594
        49.0004         41.0004
  20448038.6924    5650923.11043   4406554.82842  20448039.9684   20448037.9744
        54.0004         49.0004
  21703366.0354   15862121.97443  12356193.42442  21703367.0284   21703366.3944
        54.0004         46.0004
  23641624.8364    8695875.36643   6779355.63342  23641625.2754   23641627.2984
        47.0004         41.0004
  22334218.7374    1200313.24643    940118.27342  22334220.0244   22334222.3704
        46.0004         41.0004
  22208498.2964   11445014.55143   8921728.66642  22208500.3674   22208500.0794
        49.0004         43.0004
  23527101.1044    4782111.39043   3725202.75042  23527102.2874   23527103.0004
        48.0004         42.0004
 04  6 18 16 28  0.0000000  0  8G22G21G18G 6G16G15G26G29
  21739049.5444     459204.16443    372679.06542  21739049.6424   21739048.9404
        55.0004         48.0004
  20560219.3644   -1485024.76543  -1151420.97342  20560221.1484   20560219.3774
        49.0004         42.0004
  20446937.4554    5645138.43243   4402047.28742  20446938.4234   20446937.5664
        54.0004         49.0004
  21713821.8534   15917069.42043  12399009.56942  21713823.1114   21713823.1224
        55.0004         47.0004
  23644551.2684    8711254.65143   6791339.44542  23644552.8984   23644552.8004
        48.0004         41.0004
  22325503.4734    1154502.49043    904421.58342  22325503.3294   22325503.7464
        48.0004         41.0004
  22215546.7454   11482052.51243   8950589.39842  22215549.5574   22215547.9284
        49.0004         43.0004
  23536171.2584    4829776.21643   3762344.13642  23536174.3134   23536174.0214
        48.0004         42.0004
 04  6 18 16 28 20.0000000  0  8G22G21G18G 6G16G15G26G29
  21731444.7844     419239.18643    341537.55142  21731444.6404   21731444.5174
        54.0004         48.0004
  20559170.9584   -1490537.68843  -1155716.74442  20559172.9634   20559170.9964
        50.0004         43.0004
  20445871.5184    5639534.22443   4397680.37242  20445872.5874   20445871.3954
        54.0004         49.0004
  21724309.4214   15972181.45143  12441953.96142  21724311.5334   21724310.0134
        55.0004         46.0004
  23647517.4944    8726842.78943   6803486.01042  23647519.1094   23647520.0184
        48.0004         41.0004
  22316791.5984    1108727.58443    868752.84642  22316791.9164   22316792.8844
        48.0004         41.0004
  22222643.8954   11519357.68443   8979658.31642  22222646.6294   22222647.4264
        48.0004         42.0004
  23545276.8484    4877624.94043   3799628.82242  23545279.3404   23545278.0184
        48.0004         42.0004
 04  6 18 16 28 40.0000000  0  8G22G21G18G 6G16G15G26G29
  21723867.8994     379426.16943    310514.45142  21723867.9294   21723868.4114
        54.0004         47.0004
  20558140.2374   -1495952.12843  -1159935.80242  20558143.2504   20558140.6844
        50.0004         43.0004
  20444838.6214    5634105.08743   4393449.87842  20444839.5054   20444838.5294
        54.0004         49.0004
  21734827.0154   16027452.21243  12485022.03442  21734828.0224   21734829.5524
        54.0004         47.0004
  23650522.8854    8742634.05843   6815790.86642  23650523.3224   23650525.5134
        48.0004         41.0004
  22308085.2694    1062983.48243    833108.14142  22308087.0364   22308088.2644
        48.0004         42.0004
  22229792.9044   11556924.21743   9008930.88442  22229794.9824   22229795.3574
        48.0004         42.0004
  23554415.7764    4925651.80943   3837052.31442  23554418.7664   23554418.2454
        47.0004         42.0004
 04  6 18 16 29  0.0000000  0  8G22G21G18G 6G16G15G26G29
  21716320.9394     339768.10943    279612.08842  21716321.1554   21716321.3794
        53.0004         47.0004
  20557128.8424   -1501265.21343  -1164075.83042  20557130.6244   20557128.6754
        49.0004         43.0004
  20443839.4494    5628853.59143   4389357.79442  20443840.1894   20443839.0574
        55.0004         50.0004
  21745374.9054   16082884.26343  12528215.79642  21745376.3334   21745378.0964
        53.0004         47.0004
  23653567.2254    8758630.82443   6828255.83442  23653568.7694   23653569.1084
        48.0004         41.0004
  22299387.1004    1017273.37243    797489.90442  22299386.6544   22299388.0574
        48.0004         41.0004
  22236991.4654   11594754.50043   9038408.98942  22236993.4554   22236994.4764
        49.0004         43.0004
  23563589.1224    4973859.06643   3874616.36542  23563590.7324   23563592.5284
        47.0004         41.0004
 04  6 18 16 29 20.0000000  0  8G22G21G18G 6G16G15G26G29
  21708804.5674     300262.43543    248828.46642  21708803.6314   21708803.5304
        54.0004         47.0004
  20556137.4594   -1506479.20143  -1168138.66342  20556138.5704   20556136.8694
        50.0004         43.0004
  20442872.8774    5623777.07243   4385402.06842  20442874.2714   20442872.7284
        55.0004         50.0004
  21755952.7004   16138474.24643  12571532.64242  21755954.5804   21755957.0164
        53.0004         46.0004
  23656649.7764    8774829.93443   6840878.48542  23656650.3964   23656652.6184
        49.0004         41.0004
  22290695.2804     971594.72943    761896.20242  22290694.6064   22290697.1664
        49.0004         41.0004
  22244240.0264   11632845.21343   9068090.03842  22244241.9644   22244243.5654
        49.0004         43.0004
  23572796.8054    5022243.43843   3912318.41142  23572800.0004   23572798.4634
        47.0004         41.0004
 04  6 18 16 29 40.0000000  0  8G22G21G18G 6G16G15G26G29
  21701315.0594     260907.67043    218162.44342  21701315.3134   21701314.5584
        54.0004         47.0004
  20555163.2114   -1511595.41843  -1172125.31142  20555164.7344   20555163.3724
        50.0004         44.0004
  20441939.7114    5618873.23343   4381580.89342  20441941.1954   20441939.9664
        56.0004         50.0004
  21766561.8954   16194219.93943  12614970.79642  21766562.4054   21766565.6014
        53.0004         46.0004
  23659770.1034    8791229.11843   6853657.01442  23659770.8654   23659771.7464
        49.0004         40.0004
  22282008.3404     925945.99243    726325.80142  22282007.4304   22282009.6084
        48.0004         42.0004
  22251539.0314   11671194.02343   9097972.20742  22251540.6734   22251540.4874
        51.0004         44.0004
  23582037.9504    5070802.28043   3950156.42542  23582040.2094   23582038.2004
        48.0004         41.0004
 04  6 18 16 30  0.0000000  0  8G22G21G18G 6G16G15G26G29
  21693856.5694     221711.65843    187620.13342  21693856.5194   21693855.1034
        55.0004         47.0004
  20554209.4014   -1516605.97343  -1176029.63942  20554210.8314   20554210.6484
        50.0004         44.0004
  20441040.7224    5614149.52243   4377900.07542  20441042.1234   20441040.6974
        56.0004         51.0004
  21777198.9714   16250128.53243  12658535.91842  21777201.0824   21777204.8984
        52.0004         46.0004
  23662929.3354    8807835.81343   6866597.25442  23662930.8394   23662930.7134
        48.0004         40.0004
  22273329.4094     880335.15943    690784.92442  22273330.5054   22273332.2824
        48.0004         42.0004
  22258886.7444   11709808.02243   9128061.03142  22258888.9104   22258889.3854
        51.0004         44.0004
  23591312.1994    5119543.05443   3988136.21442  23591313.5704   23591312.7644
        48.0004         41.0004
 04  6 18 16 30 20.0000000  0  8G22G21G18G 6G16G15G26G29
  21686426.1144     182666.72943    157195.56642  21686426.2554   21686424.0184
        55.0004         47.0004
  20553274.9754   -1521518.03743  -1179857.20642  20553275.4054   20553274.5604
        50.0004         44.0004
  20440175.3754    5609598.25043   4374353.63742  20440176.0914   20440174.5664
        56.0004         51.0004
  21787867.8214   16306191.93143  12702221.65342  21787869.1274   21787871.9044
        52.0004         46.0004
  23666127.2204    8824641.78943   6879692.77042  23666128.3374   23666129.2994
        48.0004         39.0004
  22264655.4724     834754.86843    655267.83542  22264655.5194   22264657.5654
        49.0004         43.0004
  22266284.8744   11748679.16943   9158350.22342  22266285.3424   22266286.8464
        52.0004         44.0004
  23600620.3024    5168457.40243   4026251.22442  23600622.6924   23600622.5174
        47.0004         41.0004
 04  6 18 16 30 40.0000000  0  8G22G21G18G 6G16G15G26G29
  21679026.6534     143777.69943    126892.47542  21679027.0694   21679023.6424
        56.0004         47.0004
  20552359.5404   -1526326.90743  -1183604.39242  20552361.4074   20552359.9644
        51.0004         44.0004
  20439342.5974    5605224.01944   4370945.15242  20439344.0954   20439342.1034
        57.0004         51.0004
  21798567.6334   16362414.15643  12746031.14342  21798568.7484   21798570.8404
        53.0004         46.0004
  23669364.3874    8841651.27543   6892946.86642  23669365.3474   23669366.1544
        47.0004         39.0004
  22255988.6894     789209.94843    619778.30142  22255989.9884   22255989.6904
        50.0004         43.0004
  22273731.1534   11787811.47843   9188842.91742  22273733.7114   22273732.1604
        52.0004         44.0004
  23609962.6104    5217549.25243   4064504.58142  23609964.9874   23609964.8554
        47.0004         41.0004
 04  6 18 16 31  0.0000000  0  8G22G21G18G 6G16G15G26G29
  21671654.1684     105038.70643     96706.29142  21671654.7194   21671651.4414
        55.0004         47.0004
  20551463.0034   -1531038.40943  -1187275.67142  20551465.1154   20551462.7044
        51.0004         44.0004
  20438542.4204    5601020.34544   4367669.56742  20438543.8024   20438542.0304
        57.0004         51.0004
  21809296.4344   16418788.62443  12789959.26542  21809297.7124   21809297.7084
        54.0004         46.0004
  23672638.6594    8858857.63043   6906354.35842  23672639.9764   23672641.1324
        47.0004         39.0004
  22247327.7274     743694.67843    584311.87342  22247328.6664   22247330.4984
        51.0004         44.0004
  22281225.4334   11827198.22043   9219533.88142  22281227.8984   22281227.2144
        52.0004         44.0004
  23619337.2354    5266811.98743   4102891.10142  23619336.0094   23619339.4584
        47.0004         41.0004
 04  6 18 16 31 20.0000000  0  8G22G21G18G 6G16G15G26G29
  21664312.2934      66457.35243     66642.93142  21664312.6954   21664310.2564
        55.0004         47.0004
  20550586.6324   -1535644.60543  -1190864.92942  20550588.1264   20550584.5154
        51.0004         44.0004
  20437776.6964    5596994.55944   4364532.59842  20437777.9894   20437776.1914
        57.0004         51.0004
  21820054.2874   16475322.37943  12834011.49242  21820055.6884   21820055.2664
        55.0004         47.0004
  23675952.1474    8876267.93543   6919920.73842  23675954.7084   23675951.0874
        48.0004         39.0004
  22238672.7014     698216.80543    548874.58442  22238673.6554   22238675.2344
        51.0004         44.0004
  22288770.3144   11866846.38743   9250428.53042  22288772.4674   22288771.4224
        51.0004         43.0004
  23628743.6414    5316252.44043   4141416.07042  23628746.3194   23628745.8444
        46.0004         41.0004
 04  6 18 16 31 40.0000000  0  8G22G21G18G 6G16G15G26G29
  21656998.3514      28025.04443     36695.70942  21656999.2394   21656997.3424
        55.0004         47.0004
  20549727.8374   -1540154.05243  -1194378.77942  20549730.6344   20549726.8394
        52.0004         45.0004
  20437042.7554    5593137.49544   4361527.10042  20437044.0674   20437042.1394
        57.0004         51.0004
  21830841.1854   16532006.19143  12878180.64242  21830842.4114   21830842.4054
        54.0004         47.0004
  23679301.7234    8893872.85743   6933638.80642  23679301.9244   23679303.1714
        47.0004         39.0004
  22230024.5064     652767.82843    513459.82842  22230024.9414   22230027.6524
        51.0004         44.0004
  22296364.0084   11906746.55743   9281519.56342  22296364.3914   22296363.6294
        51.0004         43.0004
  23638185.7914    5365861.28143   4180072.27842  23638185.5744   23638187.5124
        46.0004         41.0004
 04  6 18 16 32  0.0000000  0  8G22G21G18G 6G16G15G26G29
  21649715.9114     -10248.75543      6871.99642  21649716.0094   21649714.1334
        56.0004         48.0004
  20548890.7154   -1544556.92543  -1197809.60742  20548892.6624   20548889.8104
        52.0004         45.0004
  20436342.7624    5589458.59444   4358660.42942  20436343.9444   20436342.1304
        57.0004         51.0004
  21841657.9464   16588848.84743  12922473.55742  21841659.5204   21841658.9104
        55.0004         47.0004
  23682690.7664    8911681.40443   6947515.54342  23682693.1734   23682691.1644
        47.0004         39.0004
  22221383.1674     607357.35443    478075.06342  22221383.7054   22221385.6974
        51.0004         45.0004
  22304005.4634   11946907.77243   9312813.98842  22304007.0024   22304006.3634
        50.0004         42.0004
  23647658.4824    5415647.24543   4218866.49742  23647659.7174   23647659.4824
        46.0004         40.0004
 04  6 18 16 32 20.0000000  0  9G22G21G18G 6G16G15G26G 3G29
  21642461.4994     -48369.68643    -22832.59142  21642462.0074   21642459.8994
        56.0004         48.0004
  20548072.3074   -1548858.58743  -1201161.55642  20548073.9674   20548071.3274
        52.0004         45.0004
  20435675.1434    5585951.85144   4355927.90342  20435676.4804   20435674.2844
        57.0004         51.0004
  21852504.4904   16645844.04243  12966885.34742  21852505.9324   21852505.5494
        55.0004         47.0004
  23686116.9984    8929687.30343   6961546.05242  23686117.6684   23686118.1024
        46.0004         39.0004
  22212747.3264     561979.86243    442715.99542  22212749.0824   22212751.7284
        51.0004         45.0004
  22311695.5204   11987323.45143   9344306.69142  22311697.0094   22311697.1974
        50.0004         42.0004
  24155186.221
        44.000
  23657164.2364    5465604.06443   4257793.85742  23657166.7614   23657165.7954
        45.0004         40.0004
 04  6 18 16 32 40.0000000  0  9G22G21G18G 6G16G15G26G 3G29
  21635237.8434     -86335.28944    -52416.14442  21635237.6794   21635234.8014
        57.0004         49.0004
  20547273.0494   -1553056.62243  -1204432.75542  20547274.0494   20547272.4824
        52.0004         45.0004
  20435040.9104    5582619.13443   4353330.98442  20435042.0034   20435040.2404
        56.0004         51.0004
  21863379.2104   16702993.40743  13011417.25442  21863380.7754   21863380.0484
        54.0004         46.0004
  23689581.4294    8947892.30743   6975731.71842  23689583.6934   23689584.8174
        46.0004         39.0004
  22204120.3154     516637.81143    407384.55042  22204120.7184   22204121.7784
        52.0004         45.0004
  22319434.1204   12027995.19643   9375998.91842  22319434.2264   22319435.7084
        49.0004         42.0004
  24143133.001
        45.000
  23666703.5114    5515733.11443   4296855.40242  23666704.4324   23666706.0974
        45.0004         40.0004
 04  6 18 16 33  0.0000000  0  9G22G21G18G 6G16G15G26G 3G29
  21628041.9964    -124148.36844    -81880.84142  21628042.0614   21628039.5464
        57.0004         49.0004
  20546492.2944   -1557153.59743  -1207625.21842  20546494.2124   20546493.2264
        51.0004         45.0004
  20434439.0434    5579457.33943   4350867.24642  20434439.9734   20434438.7884
        56.0004         51.0004
  21874281.7214   16760293.69843  13056066.79042  21874284.0334   21874284.7134
        53.0004         46.0004
  23693083.2314    8966293.08743   6990069.94842  23693084.7254   23693088.4974
        47.0004         40.0004
  22195496.8904     471328.66943    372078.74842  22195498.9234   22195500.1274
        51.0004         45.0004
  22327222.6424   12068919.68243   9407888.09942  22327224.7094   22327224.2564
        50.0004         42.0004
  24131097.5784   -1469196.79953  -1110919.57652  24131098.1524   24131096.2164
        46.0004         35.0004
  23676274.9534    5566031.05343   4336048.54342  23676276.1584   23676277.1364
        44.0004         40.0004
 04  6 18 16 33 20.0000000  0  9G22G21G18G 6G16G15G26G 3G29
  21620875.8494    -161806.36044   -111224.68842  21620876.0794   21620873.1344
        57.0004         49.0004
  20545732.8414   -1561146.74043  -1210736.75042  20545734.4344   20545733.2744
        51.0004         45.0004
  20433870.4164    5576468.69243   4348538.43142  20433871.2614   20433870.3354
        56.0004         51.0004
  21885214.2944   16817746.65743  13100835.26242  21885215.1684   21885216.5934
        52.0004         45.0004
  23696621.8034    8984891.49543   7004562.19442  23696624.1104   23696623.5114
        46.0004         40.0004
  22186881.3854     426055.06343    336800.63842  22186881.9564   22186884.7044
        51.0004         45.0004
  22335058.8484   12110098.67943   9439975.59942  22335060.5484   22335060.7794
        50.0004         43.0004
  24119081.5574   -1532339.12543  -1160121.37342  24119082.0824   24119082.6554
        45.0004         36.0004
  23685878.5884    5616499.72643   4375374.74342  23685880.1844   23685882.0064
        45.0004         40.0004
 04  6 18 16 33 40.0000000  0  9G22G21G18G 6G16G15G26G 3G29
  21613738.6304    -199309.32843   -140447.75142  21613739.1624   21613737.0684
        56.0004         48.0004
  20544992.8454   -1565036.01843  -1213767.35442  20544994.3184   20544993.0304
        51.0004         45.0004
  20433334.3684    5573652.93243   4346344.32642  20433335.1834   20433334.6424
        56.0004         51.0004
  21896176.1384   16875351.67043  13145722.24242  21896177.2924   21896177.5434
        51.0004         45.0004
  23700198.1024    9003686.90543   7019207.93842  23700201.0304   23700201.3354
        46.0004         40.0004
  22178273.3504     380817.03243    301550.25142  22178273.8824   22178276.6884
        51.0004         44.0004
  22342943.7834   12151531.51043   9472260.89542  22342945.9434   22342944.8404
        51.0004         43.0004
  24107083.5274   -1595385.74643  -1209248.56342  24107082.8784   24107087.7904
        46.0004         37.0004
  23695514.5934    5667138.13243   4414833.21042  23695515.5894   23695516.4174
        44.0004         39.0004
 04  6 18 16 34  0.0000000  0  9G22G21G18G 6G16G15G26G 3G29
  21606631.8734    -236656.39043   -169549.32842  21606631.7634   21606630.0814
        55.0004         48.0004
  20544273.4284   -1568820.29343  -1216716.14342  20544274.5114   20544272.7874
        51.0004         45.0004
  20432831.6174    5571010.74143   4344285.47842  20432832.6894   20432831.8334
        56.0004         51.0004
  21907168.5464   16933108.93243  13190727.87142  21907169.0764   21907167.5194
        53.0004         45.0004
  23703813.8974    9022679.65643   7034007.45042  23703815.1514   23703817.3544
        46.0004         40.0004
  22169672.4654     335615.72443    266328.47642  22169672.5194   22169673.6304
        51.0004         44.0004
  22350877.3144   12193218.16743   9504743.97742  22350879.5624   22350879.4344
        51.0004         44.0004
  24095105.1604   -1658335.14043  -1258300.00042  24095106.8994   24095106.5724
        47.0004         37.0004
  23705184.4464    5717946.63843   4454424.22942  23705184.7104   23705186.4564
        45.0004         39.0004
 04  6 18 16 34 20.0000000  0  9G22G21G18G 6G16G15G26G 3G29
  21599553.4174    -273853.72243   -198534.24142  21599553.8824   21599551.7754
        55.0004         48.0004
  20543572.2274   -1572505.54943  -1219587.77542  20543573.1774   20543571.7824
        51.0004         45.0004
  20432361.0004    5568535.36543   4342356.60842  20432361.6434   20432361.0644
        56.0004         51.0004
  21918187.5164   16991011.78443  13235846.89642  21918188.3544   21918186.1404
        54.0004         45.0004
  23707464.2124    9041862.87243   7048955.35542  23707464.5674   23707466.2464
        47.0004         40.0004
  22161076.9674     290445.02643    231130.55542  22161077.4694   22161078.4704
        51.0004         45.0004
  22358856.8504   12235151.89143   9537419.58542  22358858.2424   22358858.4564
        51.0004         44.0004
  24083143.7124   -1721192.79443  -1307279.98342  24083143.5294   24083145.4664
        46.0004         38.0004
  23714884.9804    5768918.33543   4494142.40342  23714885.1864   23714886.3314
        46.0004         40.0004
 04  6 18 16 34 40.0000000  0  9G22G21G18G 6G16G15G26G 3G29
  21592504.9634    -310893.04543   -227396.02542  21592504.9484   21592503.6314
        54.0004         47.0004
  20542891.5184   -1576083.29543  -1222375.62642  20542892.8234   20542890.8684
        52.0004         46.0004
  20431922.9224    5566234.35643   4340563.60542  20431924.0174   20431923.0764
        56.0004         51.0004
  21929235.0034   17049067.51743  13281085.05242  21929236.7194   21929233.1354
        53.0004         45.0004
  23711152.9354    9061244.12743   7064057.57142  23711153.1814   23711154.6684
        47.0004         40.0004
  22152488.3674     245313.34643    195963.04242  22152489.5514   22152490.3394
        51.0004         45.0004
  22366885.0614   12277340.10243   9570293.48142  22366886.7414   22366887.0574
        51.0004         44.0004
  24071201.0944   -1783949.85343  -1356181.57042  24071202.4184   24071204.8164
        47.0004         38.0004
  23724616.3274    5820060.34343   4533993.28842  23724616.8624   23724619.0334
        46.0004         39.0004
 04  6 18 16 35  0.0000000  0  9G22G21G18G 6G16G15G26G 3G29
  21585485.5634    -347779.84243   -256138.96042  21585485.7184   21585484.0954
        54.0004         47.0004
  20542229.9664   -1579558.81243  -1225083.82842  20542231.5164   20542229.0024
        52.0004         46.0004
  20431517.1424    5564102.17643   4338902.16342  20431518.5244   20431517.3504
        56.0004         51.0004
  21940310.4494   17107270.12143  13326437.65042  21940311.8094   21940310.3124
        54.0004         45.0004
  23714877.5154    9080817.33143   7079309.37442  23714877.6074   23714879.5714
        48.0004         40.0004
  22143905.8904     200215.31443    160821.73242  22143906.9554   22143907.9144
        51.0004         44.0004
  22374960.7474   12319776.45743   9603360.73642  22374962.3154   22374962.0244
        51.0004         44.0004
  24059277.6084   -1846611.11743  -1405008.50942  24059278.3434   24059281.1584
        47.0004         38.0004
  23734379.6704    5871366.64543   4573972.16442  23734380.4184   23734381.4554
        45.0004         39.0004
 04  6 18 16 35 20.0000000  0  9G22G21G18G 6G16G15G26G 3G29
  21578495.5744    -384511.66843   -284761.14242  21578495.5514   21578493.8434
        54.0004         47.0004
  20541589.0964   -1582929.44943  -1227710.29242  20541589.8184   20541586.7214
        52.0004         46.0004
  20431144.1584    5562141.16143   4337374.10242  20431145.1794   20431144.1074
        56.0004         52.0004
  21951414.2724   17165621.43643  13371906.15242  21951415.9234   21951415.3334
        53.0004         45.0004
  23718637.7354    9100584.36743   7094712.20142  23718641.0204   23718641.5934
        48.0004         40.0004
  22135330.2164     155153.55243    125708.68042  22135331.8434   22135333.5374
        50.0004         45.0004
  22383083.5954   12362462.90243   9636622.88142  22383085.8664   22383085.3944
        50.0004         44.0004
  24047372.1524   -1909173.44743  -1453758.35542  24047373.0184   24047376.5834
        48.0004         39.0004
  23744173.8244    5922839.03543   4614080.49342  23744175.3654   23744177.2644
        44.0004         39.0004
 04  6 18 16 35 40.0000000  0  9G22G21G18G 6G16G15G26G 3G29
  21571534.8184    -421086.75743   -313261.20142  21571534.9894   21571533.2674
        54.0004         46.0004
  20540967.3254   -1586193.30243  -1230253.55742  20540968.8074   20540966.2464
        52.0004         46.0004
  20430803.7544    5560352.56344   4335980.38242  20430804.9264   20430803.5464
        57.0004         52.0004
  21962545.7294   17224122.50343  13417491.33942  21962547.0654   21962549.6694
        52.0004         46.0004
  23722437.2814    9120546.45343   7110267.02442  23722436.0724   23722440.7444
        47.0004         39.0004
  22126763.6274     110130.10143     90625.49542  22126764.4074   22126766.2344
        50.0004         45.0004
  22391254.2924   12405400.45243   9670080.68542  22391255.6734   22391256.0644
        50.0004         44.0004
  24035487.1474   -1971634.22743  -1502429.07642  24035487.0084   24035489.8894
        48.0004         39.0004
  23754000.7284    5974478.52943   4654319.01642  23754000.8384   23754003.2884
        44.0004         39.0004
 04  6 18 16 36  0.0000000  0  9G22G21G18G 6G16G15G26G 3G29
  21564604.6264    -457506.81343   -341640.44242  21564604.7174   21564603.0454
        54.0004         47.0004
  20540366.2624   -1589351.81143  -1232714.73742  20540368.4004   20540365.4004
        53.0004         46.0004
  20430495.8544    5558734.22744   4334719.34542  20430497.1484   20430495.5354
        57.0004         52.0004
  21973706.1044   17282771.20943  13463191.58042  21973706.9144   21973710.4394
        52.0004         46.0004
  23726273.5954    9140701.25543   7125972.00642  23726273.2814   23726276.3814
        48.0004         39.0004
  22118203.3874      65143.47643     55570.98442  22118203.6774   22118205.5584
        50.0004         45.0004
  22399472.6664   12448586.69643   9703732.27142  22399472.8084   22399474.0014
        50.0004         44.0004
  24023619.8084   -2033994.44143  -1551021.42942  24023620.4514   24023622.0934
        48.0004         40.0004
  23763859.5864    6026282.60543   4694685.80042  23763862.4744   23763860.6274
        44.0004         38.0004
 04  6 18 16 36 20.0000000  0  9G22G21G18G 6G16G15G26G 3G29
  21557703.6684    -493774.19743   -369900.70242  21557703.8954   21557700.9674
        56.0004         47.0004
  20539784.8964   -1592407.15043  -1235095.53042  20539786.5644   20539784.6414
        53.0004         46.0004
  20430220.0304    5557283.61444   4333589.00242  20430221.4964   20430219.3934
        57.0004         52.0004
  21984894.4244   17341564.32543  13509004.35542  21984895.3824   21984898.5434
        52.0004         45.0004
  23730144.6644    9161045.60643   7141824.70342  23730146.1154   23730147.0204
        48.0004         40.0004
  22109648.8294      20191.31743     20543.33942  22109649.0564   22109650.7864
        50.0004         45.0004
  22407736.8064   12492018.47543   9737575.18642  22407738.6384   22407739.4904
        50.0004         44.0004
  24011771.1124   -2096256.02943  -1599536.92342  24011773.8384   24011773.9264
        48.0004         40.0004
  23773746.6864    6078248.22643   4735178.45442  23773747.3394   23773750.0974
        42.0004         38.0004
 04  6 18 16 36 40.0000000  0  9G22G21G18G 6G16G15G26G 3G29
  21550832.1534    -529884.61443   -398038.64542  21550832.3894   21550829.4074
        56.0004         48.0004
  20539224.2434   -1595354.54343  -1237392.21942  20539225.2784   20539224.0204
        52.0004         46.0004
  20429976.5164    5556004.51744   4332592.31042  20429977.9094   20429975.7584
        58.0004         52.0004
  21996111.0194   17400505.51043  13554932.51042  21996111.5624   21996113.7794
        52.0004         45.0004
  23734051.4294    9181583.37343   7157828.10542  23734052.8084   23734053.5704
        47.0004         39.0004
  22101102.4924     -24721.75443    -14453.84742  22101103.0314   22101104.4164
        50.0004         45.0004
  22416048.9354   12535699.21543   9771612.11642  22416050.9164   22416051.9954
        48.0004         43.0004
  23999943.3934   -2158413.74243  -1647971.47142  23999944.9764   23999947.7574
        48.0004         40.0004
  23783667.7044    6130378.83243   4775799.68042  23783670.0424   23783670.1984
        44.0004         38.0004
 04  6 18 16 37  0.0000000  0  9G22G21G18G 6G16G15G26G 3G29
  21543990.2944    -565841.08044   -426056.63342  21543990.6794   21543987.6984
        57.0004         48.0004
  20538682.8604   -1598197.11043  -1239607.22442  20538684.0174   20538682.8394
        53.0004         46.0004
  20429765.3074    5554893.75244   4331726.78442  20429766.6494   20429764.4564
        58.0004         52.0004
  22007354.6654   17459591.07443  13600973.16142  22007356.5344   22007357.5464
        52.0004         45.0004
  23737995.1904    9202310.83643   7173979.33842  23737996.1454   23737997.6864
        46.0004         38.0004
  22092562.4824     -69598.60243    -49422.79942  22092564.1244   22092564.6744
        51.0004         45.0004
  22424407.4454   12579625.42243   9805840.28642  22424409.5444   22424411.0054
        50.0004         43.0004
  23988134.2714   -2220470.08343  -1696327.04042  23988136.7894   23988138.8524
        47.0004         39.0004
  23793618.2254    6182670.81843   4816546.64742  23793621.1534   23793622.0184
        44.0004         38.0004
 04  6 18 16 37 20.0000000  0  9G22G21G18G 6G16G15G26G 3G29
  21537177.2004    -601641.84044   -453953.29342  21537177.4834   21537175.2544
        57.0004         48.0004
  20538163.0214   -1600933.01043  -1241739.10942  20538164.1514   20538161.1134
        53.0004         46.0004
  20429586.0844    5553952.62444   4330993.44442  20429587.6534   20429585.4944
        58.0004         52.0004
  22018626.5034   17518822.15743  13647127.21042  22018627.3004   22018628.9304
        53.0004         46.0004
  23741975.1344    9223228.81343   7190279.01642  23741977.4154   23741979.9994
        44.0004         38.0004
  22084030.0484    -114437.32643    -84362.03842  22084031.5694   22084031.7364
        51.0004         45.0004
  22432814.1644   12623797.84143   9840260.31242  22432815.1994   22432816.2564
        50.0004         43.0004
  23976344.5674   -2282422.69043  -1744601.74842  23976345.6854   23976349.7104
        48.0004         39.0004
  23803600.8644    6235125.14043   4857420.12542  23803601.1884   23803605.3934
        43.0004         38.0004
 04  6 18 16 37 40.0000000  0  9G22G21G18G 6G16G15G26G 3G29
  21530393.7814    -637289.48944   -481730.64542  21530394.1964   21530391.7644
        57.0004         49.0004
  20537662.4064   -1603564.29043  -1243789.45642  20537663.7964   20537660.3114
        53.0004         46.0004
  20429438.7174    5553178.36744   4330390.13342  20429439.8444   20429438.1574
        58.0004         51.0004
  22029924.4164   17578195.52843  13693392.10142  22029925.9794   22029927.7174
        52.0004         46.0004
  23745991.9334    9244334.41243   7206724.90142  23745991.9584   23745997.2034
        44.0004         38.0004
  22075504.2014    -159240.26543   -119273.39742  22075505.6574   22075507.3804
        51.0004         45.0004
  22441265.1724   12668213.31143   9874869.72942  22441267.4674   22441268.0294
        50.0004         43.0004
  23964575.1944   -2344273.24043  -1792796.94742  23964575.6434   23964579.9334
        47.0004         40.0004
  23813614.1814    6287738.41543   4898417.43842  23813616.2894   23813616.9424
        44.0004         38.0004
 04  6 18 16 38  0.0000000  0  9G22G21G18G 6G16G15G26G 3G29
  21523639.9224    -672782.35844   -509387.39742  21523639.8554   21523638.0214
        57.0004         49.0004
  20537181.4534   -1606089.28743  -1245756.98442  20537183.7764   20537180.5324
        53.0004         46.0004
  20429323.0194    5552571.99644   4329917.64542  20429324.5924   20429322.7954
        58.0004         51.0004
  22041251.1014   17637712.11543  13739768.61142  22041252.0004   22041254.3484
        53.0004         46.0004
  23750045.2434    9265628.53943   7223317.68342  23750043.7894   23750045.5674
        44.0004         38.0004
  22066986.3554    -204005.75243   -154155.59442  22066986.9554   22066988.7794
        52.0004         45.0004
  22449763.6164   12712872.44343   9909669.01342  22449763.6574   22449766.1314
        50.0004         43.0004
  23952824.6934   -2406019.60143  -1840910.95942  23952825.1804   23952827.4444
        47.0004         40.0004
  23823656.7404    6340511.33043   4939539.17142  23823658.0934   23823658.0124
        45.0004         38.0004
 04  6 18 16 38 20.0000000  0  9G22G21G18G 6G16G15G26G 3G29
  21516915.3674    -708118.23044   -536921.82542  21516915.9924   21516913.8914
        57.0004         49.0004
  20536721.7394   -1608505.40443  -1247639.68442  20536723.2124   20536720.8284
        53.0004         47.0004
  20429239.9754    5552135.55644   4329577.56742  20429241.2914   20429239.4554
        58.0004         51.0004
  22052604.5534   17697373.56243  13786258.00342  22052606.1064   22052607.0134
        54.0004         46.0004
  23754134.3544    9287112.91143   7240058.72142  23754133.3604   23754135.0614
        44.0004         38.0004
  22058474.8684    -248731.22143   -189006.57942  22058476.9274   22058476.8934
        51.0004         45.0004
  22458309.3204   12757777.04743   9944659.58042  22458310.1724   22458311.8204
        50.0004         43.0004
  23941095.9964   -2467658.58343  -1888941.28942  23941097.2074   23941100.1634
        47.0004         40.0004
  23833729.3294    6393445.73543   4980786.73942  23833731.7544   23833731.0444
        45.0004         38.0004
 04  6 18 16 38 40.0000000  0  9G22G21G18G 6G16G15G26G 3G29
  21510220.2864    -743303.12144   -564338.59242  21510220.8284   21510218.2704
        57.0004         49.0004
  20536281.2124   -1610818.54543  -1249442.13542  20536283.6564   20536280.8494
        53.0004         47.0004
  20429188.4624    5551862.55344   4329364.84542  20429189.3634   20429187.9434
        58.0004         51.0004
  22063983.4184   17757173.17543  13832855.04242  22063985.0074   22063986.7624
        54.0004         46.0004
  23758258.2364    9308780.73343   7256942.67642  23758259.0314   23758260.0584
        46.0004         39.0004
  22049970.5314    -293422.52943   -223830.93942  22049971.4344   22049972.9244
        51.0004         45.0004
  22466900.1634   12802920.17243   9979835.99442  22466900.7624   22466904.9564
        50.0004         43.0004
  23929385.8644   -2529195.60043  -1936892.18642  23929387.5644   23929390.8754
        47.0004         41.0004
  23843832.3634    6446534.73243   5022154.73542  23843834.6204   23843834.3254
        44.0004         38.0004
 04  6 18 16 39  0.0000000  0  9G22G21G18G 6G16G15G26G 3G29
  21503554.6204    -778331.34743   -591633.29042  21503554.9794   21503552.3914
        56.0004         49.0004
  20535861.5164   -1613022.70943  -1251159.67142  20535863.1354   20535862.0134
        53.0004         47.0004
  20429168.2284    5551758.32144   4329283.63142  20429169.4254   20429167.9584
        58.0004         51.0004
  22075389.8444   17817115.89443  13879563.59742  22075391.4644   22075392.9004
        53.0004         46.0004
  23762416.0284    9330637.00443   7273973.48542  23762417.1464   23762417.9664
        46.0004         39.0004
  22041472.4644    -338073.82343   -258624.14442  22041473.5574   22041476.2264
        50.0004         44.0004
  22475536.7914   12848306.84643  10015202.19742  22475537.3384   22475539.0294
        50.0004         43.0004
  23917696.5144   -2590624.22743  -1984758.61042  23917697.0964   23917702.9264
        47.0004         40.0004
  23853964.5204    6499783.18043   5063646.99142  23853965.5824   23853968.3394
        44.0004         37.0004
 04  6 18 16 39 20.0000000  0  9G22G21G18G 6G16G15G26G 3G29
  21496917.9954    -813204.39243   -618807.05842  21496918.5494   21496916.4554
        56.0004         48.0004
  20535463.5624   -1615119.25443  -1252793.33842  20535464.5424   20535463.5284
        53.0004         47.0004
  20429180.2404    5551821.31244   4329332.72442  20429181.4684   20429180.3164
        58.0004         51.0004
  22086824.3284   17877199.70343  13926382.09442  22086825.0234   22086826.4944
        53.0004         46.0004
  23766611.0534    9352679.70843   7291149.55642  23766610.6714   23766612.5244
        47.0004         39.0004
  22032982.8974    -382686.45843   -293387.22442  22032983.5794   22032985.9094
        50.0004         44.0004
  22484219.3804   12893934.77043  10050756.38942  22484220.3084   22484222.7364
        50.0004         44.0004
  23906027.6844   -2651945.32043  -2032541.23742  23906029.2144   23906030.6034
        47.0004         40.0004
  23864127.9684    6553188.93643   5105261.81042  23864130.7814   23864131.2774
        44.0004         37.0004
 04  6 18 16 39 40.0000000  0  9G22G21G18G 6G16G15G26G 3G29
  21490311.2694    -847920.23643   -645858.34942  21490311.5224   21490310.1514
        55.0004         48.0004
  20535085.7964   -1617106.00243  -1254341.44942  20535086.8514   20535085.3644
        53.0004         48.0004
  20429224.3244    5552053.12944   4329513.36242  20429225.7204   20429224.2224
        57.0004         51.0004
  22098284.7634   17937425.89043  13973311.53242  22098287.0134   22098288.1424
        53.0004         46.0004
  23770841.6924    9374910.22143   7308471.98642  23770843.0664   23770844.0974
        47.0004         40.0004
  22024502.2194    -427258.08143   -328118.35642  22024502.6874   22024503.7194
        50.0004         44.0004
  22492948.6924   12939805.19843  10086499.54942  22492950.3674   22492950.8644
        50.0004         44.0004
  23894378.6754   -2713156.03743  -2080237.87742  23894380.2964   23894384.1124
        46.0004         40.0004
  23874319.1574    6606753.25943   5147000.21242  23874322.9234   23874322.3784
        42.0004         37.0004
 04  6 18 16 40  0.0000000  0  9G22G21G18G 6G16G15G26G 3G29
  21483734.2234    -882481.63343   -672789.28642  21483734.2964   21483733.5214
        54.0004         48.0004
  20534728.1144   -1618985.45943  -1255805.95142  20534729.6894   20534727.7504
        54.0004         48.0004
  20429299.8704    5552450.74944   4329823.19742  20429300.9174   20429299.8844
        57.0004         51.0004
  22109771.5814   17997791.18043  14020349.36442  22109773.5874   22109774.0334
        54.0004         46.0004
  23775107.0214    9397325.18443   7325938.12442  23775107.8384   23775109.1654
        47.0004         40.0004
  22016027.4804    -471791.19143   -362819.44542  22016028.8054   22016029.3934
        51.0004         44.0004
  22501722.8764   12985914.70743  10122429.02442  22501725.2554   22501726.2154
        50.0004         43.0004
  23882751.9604   -2774258.34543  -2127850.02142  23882753.4344   23882756.0834
        46.0004         40.0004
  23884540.8744    6660472.62743   5188859.42642  23884542.1154   23884543.7634
        41.0004         36.0004
 04  6 18 16 40 20.0000000  0  9G22G21G18G 6G16G15G26G 3G29
  21477187.1044    -916888.68143   -699599.95842  21477186.9894   21477185.9774
        54.0004         47.0004
  20534390.6884   -1620757.26543  -1257186.57542  20534392.3184   20534390.1744
        54.0004         48.0004
  20429407.0694    5553013.38144   4330261.61042  20429408.1234   20429407.0274
        57.0004         51.0004
  22121285.2844   18058294.73843  14067494.92542  22121287.0014   22121286.3364
        54.0004         45.0004
  23779407.7544    9419923.77743   7343547.34942  23779408.5444   23779410.6684
        48.0004         40.0004
  22007560.0114    -516285.73443   -397490.49242  22007560.8194   22007560.6164
        51.0004         44.0004
  22510542.2804   13032262.50443  10158544.15942  22510543.4774   22510544.4934
        50.0004         43.0004
  23871145.9594   -2835251.79943  -2175377.36342  23871145.3524   23871148.8224
        46.0004         40.0004
  23894792.4904    6714346.39743   5230838.96842  23894794.5854   23894795.2764
        40.0004         35.0004
 04  6 18 16 40 40.0000000  0  9G22G21G18G 6G16G15G26G 3G29
  21470668.8854    -951139.46143   -726288.85442  21470668.9824   21470667.9764
        55.0004         47.0004
  20534074.4124   -1622419.25143  -1258481.62742  20534076.5684   20534074.2124
        54.0004         48.0004
  20429546.2254    5553742.52644   4330829.77742  20429546.8104   20429545.6454
        57.0004         51.0004
  22132825.3904   18118937.71343  14114749.12242  22132827.6784   22132826.1644
        53.0004         45.0004
  23783743.9744    9442707.33943   7361300.71642  23783743.6964   23783744.9264
        48.0004         40.0004
  21999101.2474    -560739.68543   -432129.92042  21999101.9074   21999102.0834
        51.0004         44.0004
  22519407.9314   13078849.47443  10194845.66442  22519408.0194   22519410.9424
        50.0004         43.0004
  23859560.8964   -2896133.70143  -2222817.76842  23859561.2634   23859563.5034
        46.0004         39.0004
  23905071.5924    5192955.49653   4045339.50352  23905073.2474   23905079.9114
        39.0004         34.0004
 04  6 18 16 41  0.0000000  0  9G22G21G18G 6G16G15G26G 3G29
  21464181.0524    -985235.20743   -752856.94342  21464180.9164   21464179.2164
        55.0004         47.0004
  20533778.8044   -1623972.25343  -1259691.75842  20533780.4034   20533778.0624
        55.0004         48.0004
  20429716.1644    5554637.10643   4331526.85442  20429717.2044   20429715.8574
        56.0004         51.0004
  22144391.4604   18179718.57443  14162110.76542  22144393.1164   22144391.9694
        53.0004         44.0004
  23788113.3574    9465674.12143   7379196.86642  23788114.9564   23788117.6704
        48.0004         40.0004
  21990649.9874    -605153.79243   -466738.29442  21990650.1244   21990651.6354
        52.0004         44.0004
  22528317.7094   13125674.06343  10231332.33142  22528318.9914   22528319.9954
        49.0004         43.0004
  23847996.3434   -2956904.42243  -2270171.55842  23847997.2704   23847997.6454
        46.0004         39.0004
  23915384.5744    5247138.26643   4087559.80042  23915385.3684   23915394.1754
        39.0004         35.0004
 04  6 18 16 41 20.0000000  0  9G22G21G18G 6G16G15G26G 3G29
  21457722.3814   -1019175.32843   -779303.76842  21457722.6274   21457720.5694
        55.0004         48.0004
  20533503.5184   -1625415.60943  -1260816.44942  20533505.2074   20533503.6904
        55.0004         48.0004
  20429917.5014    5555697.18843   4332352.88742  20429919.0914   20429917.8994
        56.0004         51.0004
  22155982.4254   18240636.91243  14209579.53842  22155984.0644   22155983.3224
        51.0004         43.0004
  23792518.4624    9488823.83243   7397235.54842  23792519.7724   23792522.8454
        47.0004         40.0004
  21982205.3124    -649527.42743   -501315.12842  21982206.6354   21982207.5154
        52.0004         44.0004
  22537272.3364   13172735.58843  10268003.61142  22537273.4744   22537274.1134
        49.0004         43.0004
  23836452.0624   -3017562.78343  -2317437.78342  23836452.5764   23836455.1804
        45.0004         38.0004
  23925724.5354    5301474.29853   4129899.52652  23925725.4484   23925730.0764
        38.0004         34.0004
 04  6 18 16 41 40.0000000  0  9G22G21G18G 6G16G15G26G 3G29
  21451293.5104   -1052960.15243   -805629.56642  21451293.4664   21451291.3374
        55.0004         48.0004
  20533249.6894   -1626749.57343  -1261855.91342  20533251.4074   20533249.5994
        55.0004         48.0004
  20430151.1854    5556922.04543   4333307.31542  20430152.4654   20430150.8074
        56.0004         51.0004
  22167600.5204   18301691.88743  14257154.79942  22167601.9634   22167603.1414
        50.0004         43.0004
  23796958.1224    9512155.57343   7415416.08042  23796958.7184   23796963.0424
        47.0004         40.0004
  21973768.6044    -693860.72643   -535860.53242  21973769.6944   21973770.3274
        52.0004         44.0004
  22546273.8994   13220033.21943  10304858.87542  22546275.7594   22546275.5164
        49.0004         43.0004
  23824930.2784   -3078108.33243  -2364616.10142  23824930.5184   23824931.8944
        44.0004         38.0004
  23936095.4994    5355962.52343   4172357.84642  23936094.3024   23936095.1864
        40.0004         35.0004
 04  6 18 16 42  0.0000000  0  9G22G21G18G 6G16G15G26G 3G29
  21444893.3464   -1086592.48943   -831836.54542  21444893.4694   21444891.5374
        56.0004         48.0004
  20533016.4394   -1627976.94243  -1262812.31642  20533018.1134   20533016.6634
        56.0004         49.0004
  20430414.7534    5558308.63743   4334387.77442  20430416.2514   20430414.8614
        56.0004         51.0004
  22179242.4794   18362879.92943  14304833.73742  22179243.8464   22179246.3134
        49.0004         43.0004
  23801432.5974    9535665.77243   7433735.66842  23801434.2484   23801433.9444
        46.0004         40.0004
  21965340.0254    -738156.21943   -570376.48442  21965340.9204   21965341.5384
        51.0004         44.0004
  22555319.2574   13267563.38343  10341895.33242  22555319.8284   22555321.2864
        50.0004         43.0004
  23813429.4054   -3138543.24443  -2411708.24542  23813431.4744   23813429.8574
        44.0004         37.0004
  23946490.5994    5410599.42943   4214932.01442  23946492.0854   23946496.4614
        38.0004         34.0004
 04  6 18 16 42 20.0000000  0  9G22G21G18G 6G16G15G26G 3G29
  21438523.9074   -1120066.05743   -857919.81542  21438523.4094   21438521.8524
        56.0004         48.0004
  20532804.6644   -1629090.83243  -1263680.29442  20532806.9034   20532804.1764
        56.0004         49.0004
  20430710.5234    5559862.75743   4335598.77642  20430712.1544   20430710.3094
        56.0004         50.0004
  22190915.7044   18424206.72943  14352620.81142  22190916.7234   22190917.3774
        50.0004         43.0004
  23805941.0554    9559360.16243   7452198.79542  23805943.2614   23805945.8424
        46.0004         39.0004
  21956918.9294    -782407.50043   -604857.98342  21956919.7694   21956920.7904
        51.0004         44.0004
  22564409.4444   13315331.59743  10379117.28942  22564411.7314   22564410.3644
        51.0004         43.0004
  23801952.7344   -3198860.55243  -2458708.69742  23801953.5324   23801954.9264
        43.0004         37.0004
  23956916.7254    5465390.55343   4257626.36042  23956917.7914   23956919.3194
        40.0004         34.0004
 04  6 18 16 42 40.0000000  0  9G22G21G18G 6G16G15G26G 3G29
  21432182.9574   -1153387.65043   -883884.66142  21432182.9774   21432180.7564
        56.0004         48.0004
  20532613.1994   -1630097.55243  -1264464.76842  20532614.9064   20532612.6964
        56.0004         49.0004
  20431036.8874    5561577.54843   4336934.97542  20431038.1564   20431036.3464
        56.0004         50.0004
  22202611.5264   18485665.14143  14400510.40242  22202612.7134   22202612.3184
        51.0004         44.0004
  23810483.4934    9583231.43543   7470799.74642  23810485.2714   23810487.9134
        46.0004         39.0004
  21948506.1504    -826620.83843   -639309.91742  21948506.4604   21948506.7544
        51.0004         44.0004
  22573543.1214   13363330.43843  10416518.96042  22573543.5754   22573543.4044
        51.0004         43.0004
  23790495.0734   -3259066.20843  -2505622.18542  23790497.7514   23790495.6614
        42.0004         36.0004
  23967371.3964    5520328.57843   4300435.15642  23967373.3294   23967374.0884
        39.0004         34.0004
 04  6 18 16 43  0.0000000  0  9G22G21G18G 6G16G15G26G 3G29
  21425870.8294   -1186554.15943   -909728.65742  21425871.3014   21425869.4734
        56.0004         48.0004
  20532441.6814   -1630993.93343  -1265163.26342  20532443.8624   20532442.2254
        56.0004         49.0004
  20431394.3064    5563455.55143   4338398.35242  20431395.5974   20431393.6104
        56.0004         50.0004
  22214331.0484   18547257.26243  14448504.19442  22214333.3424   22214334.6984
        51.0004         44.0004
  23815060.7024    9607281.93443   7489540.31542  23815062.0194   23815061.4424
        46.0004         39.0004
  21940099.3474    -870793.07043   -673729.83442  21940100.1114   21940102.1394
        51.0004         44.0004
  22582720.9404   13411562.00643  10454101.98742  22582722.5504   22582722.2024
        51.0004         43.0004
  23779059.6134   -3319156.30443  -2552445.63242  23779062.4224   23779062.8154
        43.0004         36.0004
  23977855.3144    5575415.78543   4343360.22942  23977861.3884   23977856.1064
        40.0004         34.0004
 04  6 18 16 43 20.0000000  0  9G22G21G18G 6G16G15G26G 3G29
  21419589.6524   -1219564.94743   -935451.32542  21419589.3044   21419587.7914
        56.0004         48.0004
  20532292.6584   -1631779.04943  -1265775.05942  20532294.0884   20532292.7434
        56.0004         49.0004
  20431782.5734    5565497.19443   4339989.24142  20431783.7664   20431781.9834
        55.0004         50.0004
  22226076.9104   18608983.27743  14496602.32742  22226077.6004   22226080.4374
        52.0004         44.0004
  23819672.1634    9631511.73943   7508420.62042  23819672.0214   23819673.8924
        47.0004         39.0004
  21931702.3114    -914923.21143   -708116.94342  21931702.4044   21931703.8924
        51.0004         44.0004
  22591943.5574   13460026.33043  10491866.37342  22591945.0204   22591945.2984
        51.0004         43.0004
  23767645.8344   -3379129.40843  -2599177.88242  23767648.5574   23767651.4484
        41.0004         36.0004
  23988368.3724    5630651.91943   4386401.32642  23988371.9414   23988370.0274
        42.0004         34.0004
 04  6 18 16 43 40.0000000  0  9G22G21G18G 6G16G15G26G 3G29
  21413336.5234   -1252420.76443   -961053.24342  21413336.7604   21413335.8224
        55.0004         48.0004
  20532164.5204   -1632453.30243  -1266300.45842  20532166.1194   20532164.6134
        56.0004         49.0004
  20432202.0764    5567701.31743   4341706.73842  20432203.2164   20432201.4984
        55.0004         49.0004
  22237848.2944   18670841.79043  14544803.71242  22237849.6144   22237851.0784
        51.0004         44.0004
  23824314.7174    9655919.38543   7527439.48942  23824317.0334   23824320.9654
        45.0004         38.0004
  21923312.8274    -959011.80243   -742471.66842  21923313.6144   21923314.3534
        52.0004         44.0004
  22601209.9174   13508721.85743  10529810.91242  22601211.6694   22601212.8904
        52.0004         43.0004
  23756257.8644   -3438985.60343  -2645819.06242  23756260.8424   23756260.0324
        43.0004         37.0004
  23998906.9244    5686035.71943   4429557.47942  23998911.5564   23998907.9384
        43.0004         35.0004
 04  6 18 16 44  0.0000000  0  9G22G21G18G 6G16G15G26G 3G29
  21407115.0854   -1285121.82643   -986534.56342  21407114.2504   21407113.0124
        56.0004         48.0004
  20532057.7084   -1633016.74543  -1266739.51542  20532059.3994   20532057.6904
        56.0004         50.0004
  20432651.9914    5570067.25943   4343550.32942  20432653.1204   20432652.0164
        55.0004         49.0004
  22249644.6134   18732831.76643  14593107.51642  22249646.2214   22249648.1334
        51.0004         44.0004
  23828992.9554    9680503.88643   7546596.17242  23828992.7154   23828996.2164
        44.0004         37.0004
  21914930.5394   -1003058.83643   -776794.01142  21914932.3744   21914931.8814
        52.0004         44.0004
  22610520.9044   13557647.49543  10567934.77542  22610523.1494   22610521.3794
        52.0004         43.0004
  23744888.3304   -3498724.37843  -2692368.76142  23744889.9294   23744893.1624
        41.0004         36.0004
  24009475.1724    5741566.05843   4472827.83542  24009478.6994   24009476.8364
        44.0004         35.0004
 04  6 18 16 44 20.0000000  0  9G22G21G18G 6G16G15G26G 3G29
  21400921.6214   -1317668.21043  -1011895.35242  21400921.8124   21400920.0704
        56.0004         49.0004
  20531971.6804   -1633469.24244  -1267092.11142  20531973.2704   20531971.9434
        57.0004         50.0004
  20433133.0814    5572594.90743   4345519.92642  20433134.0664   20433132.6154
        55.0004         49.0004
  22261466.6664   18794952.53943  14641513.25542  22261467.4194   22261468.7564
        51.0004         44.0004
  23833704.3714    9705264.56243   7565890.13042  23833705.7724   23833707.0254
        44.0004         37.0004
  21906556.3054   -1047064.13443   -811083.83742  21906556.5554   21906559.0774
        51.0004         44.0004
  22619873.6924   13606802.47843  10606237.33542  22619874.9834   22619876.1314
        52.0004         43.0004
  23733544.6674   -3558345.13143  -2738826.45542  23733545.5254   23733546.8654
        43.0004         36.0004
  24020069.2564    5797242.15043   4516211.74742  24020072.0804   24020069.8314
        45.0004         35.0004
 04  6 18 16 44 40.0000000  0  9G22G21G18G 6G16G15G26G 3G29
  21394757.9674   -1350058.79043  -1037134.73642  21394758.1914   21394756.0274
        56.0004         49.0004
  20531906.6624   -1633809.46144  -1267357.21542  20531908.6294   20531906.5834
        57.0004         50.0004
  20433644.8724    5575284.80943   4347615.95442  20433646.0564   20433644.6074
        55.0004         49.0004
  22273314.4684   18857204.58343  14690021.27342  22273315.3184   22273314.5114
        52.0004         45.0004
  23838449.9134    9730201.88043   7585321.76242  23838451.0494   23838453.9954
        43.0004         37.0004
  21898190.7294   -1091026.26543   -845340.03042  21898191.1914   21898193.8724
        52.0004         44.0004
  22629272.0804   13656187.12343  10644718.84142  22629273.4894   22629274.0064
        52.0004         43.0004
  23722221.4214   -3617846.04743  -2785190.79942  23722225.2474   23722224.2184
        43.0004         36.0004
  24030692.5894    5853064.35943   4559709.48442  24030691.8274   24030690.2994
        45.0004         35.0004
 04  6 18 16 45  0.0000000  0  9G22G21G18G 6G16G15G26G 3G29
  21388623.0284   -1382295.97244  -1062254.58742  21388623.4024   21388621.6524
        57.0004         49.0004
  20531862.5864   -1634039.32543  -1267536.33742  20531864.3984   20531862.8584
        56.0004         49.0004
  20434187.4264    5578134.30043   4349836.33442  20434188.4244   20434187.1534
        55.0004         50.0004
  22285184.4404   18919585.05943  14738629.37542  22285186.0284   22285185.5914
        52.0004         45.0004
  23843229.8524    9755312.96543   7604888.78342  23843230.2134   23843234.1204
        44.0004         38.0004
  21889832.3264   -1134947.29843   -879564.19142  21889834.4904   21889834.9704
        51.0004         43.0004
  22638712.9534   13705798.47043  10683377.00642  22638713.3414   22638714.4164
        52.0004         43.0004
  23710921.5214   -3677228.50143  -2831462.82242  23710923.1814   23710925.1714
        42.0004         36.0004
  24041342.3314    5909029.90143   4603318.90842  24041346.7484   24041341.4414
        45.0004         34.0004
 04  6 18 16 45 20.0000000  0  9G22G21G18G 6G16G15G26G 3G29
  21382518.1034   -1414376.25943  -1087252.18842  21382518.4764   21382516.5234
        56.0004         49.0004
  20531840.9224   -1634154.99243  -1267626.47342  20531842.3234   20531840.6334
        56.0004         49.0004
  20434761.0804    5581146.61443   4352183.59042  20434762.1504   20434760.2874
        56.0004         50.0004
  22297079.5984   18982096.80943  14787339.74742  22297081.1874   22297081.3444
        51.0004         45.0004
  23848042.1364    9780600.46843   7624593.26342  23848041.8734   23848044.2994
        45.0004         38.0004
  21881483.5924   -1178823.44543   -913753.36042  21881484.7994   21881483.9634
        52.0004         43.0004
  22648197.1114   13755639.07243  10722213.82442  22648197.6394   22648199.5584
        52.0004         43.0004
  23699646.0464   -3736488.27343  -2877639.25942  23699647.4274   23699648.9854
        43.0004         36.0004
  24052019.5884    5965141.27943   4647042.05542  24052023.8744   24052015.6644
        45.0004         34.0004
 04  6 18 16 45 40.0000000  0  9G22G21G18G 6G16G15G26G 3G29
  21376443.2494   -1446301.99443  -1112129.35842  21376443.0534   21376440.8424
        56.0004         49.0004
  20531840.4034   -1634158.88243  -1267629.50342  20531841.8334   20531839.8584
        56.0004         49.0004
  20435364.4224    5584318.88243   4354655.49342  20435365.7384   20435363.7594
        55.0004         50.0004
  22308999.9714   19044736.52443  14836149.85842  22309000.6984   22309001.7054
        52.0004         45.0004
  23852886.5194    9806061.36043   7644432.86042  23852887.6994   23852891.7614
        45.0004         38.0004
  21873143.1114   -1222656.95843   -947909.30742  21873144.9154   21873143.0454
        52.0004         43.0004
  22657724.1804   13805705.72643  10761226.78542  22657726.7254   22657726.5924
        51.0004         42.0004
  23688392.2734   -3795627.11343  -2923721.46242  23688393.7124   23688394.2944
        42.0004         36.0004
  24062725.7614    6021395.48743   4690876.45842  24062727.9384   24062724.7074
        45.0004         35.0004
 04  6 18 16 46  0.0000000  0  9G22G21G18G 6G16G15G26G 3G29
  21370397.2954   -1478073.67944  -1136886.49142  21370397.2554   21370394.7374
        57.0004         48.0004
  20531860.9184   -1634051.02344  -1267545.46942  20531862.8574   20531860.0714
        57.0004         50.0004
  20435998.9544    5587650.57643   4357251.62742  20436000.1634   20435997.6484
        56.0004         50.0004
  22320943.3834   19107503.29243  14885058.96642  22320944.6744   22320945.4224
        51.0004         45.0004
  23857764.2024    9831694.79543   7664406.89242  23857765.1794   23857768.1194
        45.0004         38.0004
  21864809.9974   -1266447.92843   -982032.10042  21864811.4454   21864809.4014
        52.0004         42.0004
  22667294.0264   13855997.26343  10800414.96842  22667295.4614   22667296.9554
        50.0004         42.0004
  23677159.3884   -3854644.83143  -2969709.27142  23677160.9674   23677166.2294
        41.0004         36.0004
  24073457.1324    6077791.43843   4734821.25942  24073459.3144   24073460.5324
        46.0004         36.0004
 04  6 18 16 46 20.0000000  0  9G22G21G18G 6G16G15G26G 3G29
  21364381.3644   -1509688.22743  -1161521.17342  21364381.7144   21364378.4024
        56.0004         48.0004
  20531903.4684   -1633827.95444  -1267371.65142  20531905.0704   20531902.6374
        57.0004         50.0004
  20436663.5254    5591144.24543   4359973.96442  20436664.9404   20436662.9244
        56.0004         50.0004
  22332910.4964   19170399.43543  14934068.90842  22332912.4474   22332914.9994
        50.0004         44.0004
  23862677.4154    9857502.98543   7684517.11842  23862678.0304   23862680.0544
        46.0004         39.0004
  21856485.0494   -1310193.02743  -1016119.14042  21856486.2064   21856486.5394
        51.0004         43.0004
  22676907.5834   13906516.04943  10839780.22742  22676909.1184   22676909.6554
        51.0004         42.0004
  23665953.8364   -3913537.51743  -3015599.64442  23665953.1274   23665955.6204
        43.0004         36.0004
  24084216.2274    6134331.25843   4778878.21842  24084218.9024   24084221.8564
        45.0004         36.0004
 04  6 18 16 46 40.0000000  0  9G22G21G18G 6G16G15G26G 3G29
  21358394.9484   -1541146.44543  -1186034.04442  21358395.2434   21358391.9794
        56.0004         48.0004
  20531967.5274   -1633490.23444  -1267108.50642  20531969.3204   20531967.1974
        57.0004         50.0004
  20437358.8674    5594798.87743   4362821.73242  20437360.3404   20437359.1424
        56.0004         50.0004
  22344903.4274   19233423.57343  14983178.56542  22344904.5264   22344909.3134
        49.0004         44.0004
  23867620.7274    9883484.49743   7704762.36742  23867621.3644   23867624.3784
        46.0004         39.0004
  21848169.0724   -1353892.71143  -1050170.82542  21848169.9414   21848170.2194
        51.0004         43.0004
  22686564.2364   13957260.41643  10879321.24842  22686564.4624   22686567.0064
        50.0004         43.0004
  23654770.6864   -3972305.18443  -3061392.60942  23654770.4684   23654772.2934
        41.0004         35.0004
  24095003.0434    6191013.43843   4823046.11242  24095004.7734   24095006.9914
        45.0004         36.0004
 04  6 18 16 47  0.0000000  0  9G22G21G18G 6G16G15G26G 3G29
  21352436.9564   -1572453.36743  -1210429.02442  21352437.3554   21352434.0794
        56.0004         48.0004
  20532052.6044   -1633042.49244  -1266759.61842  20532054.6074   20532052.6324
        57.0004         50.0004
  20438084.3504    5598609.02943   4365790.68342  20438085.1804   20438084.1094
        55.0004         49.0004
  22356920.6114   19296570.17043  15032383.66842  22356922.4874   22356924.4974
        50.0004         44.0004
  23872598.2394    9909633.65343   7725138.27642  23872597.9934   23872600.3644
        47.0004         39.0004
  21839861.3084   -1397551.78343  -1084190.85742  21839863.1924   21839862.5804
        51.0004         43.0004
  22696262.8354   14008224.58143  10919033.56342  22696265.3164   22696264.7474
        51.0004         43.0004
  23643611.1024   -4030952.09443  -3107091.43342  23643612.0494   23643610.5064
        42.0004         35.0004
  24105814.8984    6247832.29843   4867320.51342  24105817.4094   24105818.1874
        45.0004         36.0004
 04  6 18 16 47 20.0000000  0  9G22G21G18G 6G16G15G26G 3G29
  21346509.1094   -1603605.90243  -1234703.70142  21346508.8654   21346506.0494
        56.0004         48.0004
  20532159.5764   -1632481.64344  -1266322.59642  20532160.8464   20532159.1474
        57.0004         50.0004
  20438838.7814    5602577.36243   4368882.89042  20438840.5954   20438839.0474
        55.0004         49.0004
  22368962.4694   19359841.56343  15081685.99742  22368963.5524   22368964.9024
        51.0004         44.0004
  23877605.3604    9935952.90443   7745646.71442  23877605.9494   23877609.0824
        46.0004         39.0004
  21831562.1784   -1441166.83143  -1118176.57142  21831561.8604   21831563.3554
        51.0004         43.0004
  22706002.9744   14059410.81743  10958918.92642  22706004.7964   22706006.0364
        50.0004         43.0004
  23632472.5364   -4089474.47943  -3152693.24342  23632473.9324   23632471.5344
        41.0004         35.0004
  24116651.6154    6304790.27043   4911703.32942  24116653.6254   24116654.8644
        44.0004         36.0004
 04  6 18 16 47 40.0000000  0  9G22G21G18G 6G16G15G26G 3G29
  21340610.4474   -1634600.77243  -1258855.52842  21340611.1324   21340608.2174
        56.0004         48.0004
  20532288.4104   -1631803.96944  -1265794.54142  20532289.8104   20532287.6584
        57.0004         50.0004
  20439624.4064    5606707.28043   4372101.00942  20439625.9054   20439624.8564
        55.0004         49.0004
  22381027.3984   19423240.38643  15131087.60242  22381027.9364   22381028.5184
        52.0004         45.0004
  23882647.2554    9962444.80543   7766289.67742  23882648.5814   23882650.4894
        46.0004         39.0004
  21823270.8834   -1484734.17943  -1152125.12042  21823271.8784   21823271.4024
        51.0004         43.0004
  22715785.7424   14110821.74643  10998979.36342  22715786.5344   22715787.4524
        50.0004         43.0004
  23621360.5484   -4147868.16043  -3198194.73442  23621360.6104   23621364.9304
        41.0004         35.0004
  24127518.6784    6361889.88443   4956196.50542  24127518.9814   24127520.0414
        44.0004         36.0004
 04  6 18 16 48  0.0000000  0  9G22G21G18G 6G16G15G26G 3G29
  21334742.1584   -1665440.84443  -1282886.73542  21334742.4284   21334739.8544
        56.0004         48.0004
  20532439.0024   -1631012.11944  -1265177.52342  20532440.6904   20532438.2574
        57.0004         50.0004
  20440440.5224    5610995.49643   4375442.46942  20440441.2374   20440440.7994
        54.0004         49.0004
  22393115.2664   19486763.24843  15180585.87242  22393117.8894   22393117.3654
        52.0004         44.0004
  23887721.5944    9989105.87043   7787064.47442  23887721.9774   23887722.0054
        47.0004         39.0004
  21814988.5984   -1528256.54043  -1186038.62942  21814989.2254   21814990.3344
        50.0004         43.0004
  22725611.2114   14162453.63143  11039211.95542  22725613.0654   22725614.9644
        50.0004         44.0004
  23610273.0404   -4206135.22543  -3243597.56942  23610274.7394   23610275.1504
        43.0004         36.0004
  24138409.9644    6419127.66343   5000797.33242  24138409.7014   24138413.6334
        43.0004         35.0004
 04  6 18 16 48 20.0000000  0  9G22G21G18G 6G16G15G26G 3G29
  21328902.4244   -1696129.60343  -1306800.03242  21328902.8264   21328899.6124
        56.0004         48.0004
  20532611.2204   -1630109.05344  -1264473.84342  20532612.6174   20532609.9824
        58.0004         50.0004
  20441285.4724    5615437.82243   4378904.02342  20441286.8354   20441286.2694
        53.0004         48.0004
  22405226.1254   19550405.93743  15230177.49142  22405226.8494   22405228.5694
        51.0004         45.0004
  23892824.4034   10015931.89143   7807967.81542  23892826.6874   23892829.5144
        46.0004         39.0004
  21806714.6754   -1571736.98843  -1219919.49042  21806716.0954   21806715.8214
        50.0004         42.0004
  22735477.8434   14214302.20743  11079613.43742  22735479.3624   22735480.9354
        50.0004         44.0004
  23599209.7854   -4264278.48343  -3288903.96142  23599210.0554   23599209.8064
        44.0004         37.0004
  24149326.0574    6476499.18143   5045502.36842  24149328.6944   24149328.4294
        41.0004         36.0004
 04  6 18 16 48 40.0000000  0  9G22G21G18G 6G16G15G26G 3G29
  21323092.5334   -1726661.39343  -1330591.00442  21323092.8114   21323089.1794
        56.0004         48.0004
  20532805.2324   -1629088.81944  -1263678.87042  20532806.8374   20532804.4694
        58.0004         50.0004
  20442161.4364    5620039.56643   4382489.79242  20442162.3884   20442162.0414
        53.0004         48.0004
  22417360.3364   19614173.32143  15279866.30442  22417361.2534   22417363.1684
        51.0004         44.0004
  23897961.6064   10042927.76643   7829003.47842  23897963.7964   23897965.7024
        45.0004         38.0004
  21798450.6274   -1615169.67443  -1253763.10342  21798450.9514   21798450.2644
        50.0004         42.0004
  22745386.6614   14266372.31243  11120187.52042  22745387.2944   22745387.8034
        49.0004         43.0004
  23588170.3264   -4322291.48243  -3334108.85442  23588170.3084   23588171.7814
        45.0004         38.0004
  24160270.0124    6534009.39243   5090315.51642  24160268.9924   24160272.7154
        42.0004         36.0004
 04  6 18 16 49  0.0000000  0  9G22G21G18G 6G16G15G26G 3G29
  21317312.3434   -1757036.61943  -1354259.99042  21317312.6124   21317309.4904
        56.0004         48.0004
  20533021.2664   -1627951.45744  -1262792.62042  20533022.9294   20533021.3584
        58.0004         51.0004
  20443067.6494    5624800.26143   4386199.42142  20443068.9784   20443067.1984
        53.0004         48.0004
  22429516.6044   19678064.61743  15329651.66042  22429518.0784   22429518.1674
        50.0004         42.0004
  23903131.3844   10070092.68543   7850170.86642  23903131.9094   23903133.7304
        45.0004         38.0004
  21790194.4314   -1658554.59743  -1287569.50742  21790193.8074   21790195.2444
        51.0004         43.0004
  22755335.9484   14318662.85043  11160933.37842  22755338.4084   22755338.6034
        49.0004         43.0004
  23577154.6944   -4380173.76443  -3379211.87542  23577155.8224   23577158.0404
        45.0004         38.0004
  24171240.5784    6591657.40843   5135236.02042  24171241.5784   24171244.3164
        42.0004         36.0004
 04  6 18 16 49 20.0000000  0  9G22G21G18G 6G16G15G26G 3G29
  21311561.4014   -1787257.65943  -1377808.82442  21311561.7034   21311558.3404
        56.0004         48.0004
  20533259.3394   -1626699.32544  -1261816.93842  20533261.0234   20533259.6134
        57.0004         50.0004
  20444003.5414    5629717.17343   4390030.77942  20444004.9244   20444003.8294
        53.0004         48.0004
  22441695.5944   19742076.57643  15379531.03242  22441697.9014   22441699.5764
        47.0004         42.0004
  23908333.0684   10097423.44643   7871467.47942  23908334.1244   23908332.8104
        46.0004         39.0004
  21781946.6504   -1701893.78943  -1321340.28142  21781947.4934   21781948.3644
        50.0004         43.0004
  22765327.3304   14371170.59143  11201848.47342  22765329.2754   22765331.2834
        48.0004         43.0004
  23566165.9674   -4437926.86343  -3424214.23942  23566166.4414   23566167.6544
        47.0004         39.0004
  24182235.6544    6649440.14543   5180261.50242  24182237.8864   24182237.2504
        43.0004         36.0004
 04  6 18 16 49 40.0000000  0  9G22G21G18G 6G16G15G26G 3G29
  21305839.4694   -1817324.29643  -1401237.34742  21305839.7664   21305836.2964
        56.0004         48.0004
  20533519.1784   -1625331.82944  -1260751.36142  20533520.3644   20533519.5054
        57.0004         50.0004
  20444969.2994    5634790.35543   4393983.90842  20444970.4154   20444968.7474
        53.0004         48.0004
  22453901.0824   19806208.87643  15429504.19442  22453900.8994   22453905.1794
        48.0004         42.0004
  23913564.4994   10124919.72343   7892893.08242  23913566.0634   23913570.2074
        45.0004         38.0004
  21773707.7294   -1745186.64543  -1355074.96342  21773709.0924   21773709.5154
        50.0004         43.0004
  22775361.3654   14423895.12543  11242932.49242  22775362.1734   22775365.3454
        49.0004         44.0004
  23555199.7484   -4495549.81643  -3469115.20142  23555200.4294   23555203.5314
        45.0004         39.0004
  24193258.6624    6707356.88343   5225391.38142  24193260.2144   24193261.4934
        43.0004         37.0004
 04  6 18 16 50  0.0000000  0  9G22G21G18G 6G16G15G26G 3G29
  21300147.6064   -1847237.03243  -1424545.94942  21300147.5384   21300143.4634
        56.0004         48.0004
  20533801.3814   -1623849.20044  -1259596.07542  20533802.7014   20533801.8014
        57.0004         50.0004
  20445963.9874    5640018.76843   4398057.98742  20445965.2484   20445964.1774
        53.0004         48.0004
  22466129.1254   19870460.58243  15479570.39642  22466130.3534   22466131.4244
        48.0004         42.0004
  23918826.0684   10152580.33343   7914446.76442  23918826.0524   23918833.5794
        43.0004         38.0004
  21765479.3844   -1788433.39543  -1388773.70642  21765479.2764   21765480.1574
        50.0004         43.0004
  22785435.2454   14476835.03943  11284184.35342  22785437.4164   22785438.9244
        49.0004         44.0004
  23544260.2894   -4553042.45543  -3513914.61842  23544260.3674   23544263.0014
        46.0004         40.0004
  24204305.0814    6765406.67943   5270624.98542  24204306.6054   24204307.4474
        44.0004         38.0004
 04  6 18 16 50 20.0000000  0 10G22G21G18G14G 6G16G15G26G 3G29
  21294482.2324   -1877007.76843  -1447743.90542  21294482.5474   21294478.7864
        56.0004         48.0004
  20534104.1984   -1622262.81344  -1258359.93342  20534105.1474   20534103.3454
        57.0004         50.0004
  20446986.0594    5645390.29343   4402243.59042  20446987.0034   20446985.7254
        53.0004         48.0004
  24673284.1724   -6966971.35153  -5407384.04052  24673283.2414   24673292.1314
        38.0004         35.0004
  22478376.6524   19934819.00243  15529719.75742  22478377.7734   22478377.7694
        50.0004         43.0004
  23924118.3074   10180392.77143   7936118.74742  23924121.0674   23924125.8194
        43.0004         38.0004
  21757255.6684   -1831645.68743  -1422445.60942  21757255.7074   21757256.8884
        50.0004         43.0004
  22795549.5024   14529977.80843  11325594.28542  22795551.2034   22795551.7814
        50.0004         44.0004
  23533341.3194   -4610415.83743  -3558621.11242  23533342.7864   23533345.6064
        47.0004         40.0004
  24215374.3584    6823576.88543   5315952.40642  24215374.0924   24215378.3414
        43.0004         38.0004
 04  6 18 16 50 40.0000000  0  9G22G21G18G 6G16G15G26G 3G29
  21288850.9114   -1906599.99944  -1470802.76242  21288851.2694   21288847.4994
        57.0004         48.0004
  20534432.5214   -1620536.06144  -1257014.42242  20534434.2624   20534432.1944
        57.0004         50.0004
  20448042.1534    5650940.91343   4406568.74142  20448043.7584   20448041.8874
        52.0004         47.0004
  22490652.4654   19999319.95243  15579980.15142  22490652.6894   22490652.0174
        51.0004         43.0004
  23929448.9984   10208392.59043   7957936.76442  23929449.1364   23929452.0144
        44.0004         38.0004
  21749046.8744   -1874786.73243  -1456061.99842  21749046.3544   21749047.6074
        51.0004         43.0004
  22805706.4614   14583358.86243  11367189.87442  22805707.7494   22805709.9624
        50.0004         44.0004
  23522453.8124   -4667633.07443  -3603205.92942  23522453.9884   23522455.8174
        47.0004         40.0004
  24226472.7104    6881903.15943   5361401.43842  24226473.8014   24226475.7674
        42.0004         37.0004
 04  6 18 16 51  0.0000000  0  9G22G21G18G 6G16G15G26G 3G29
  21283246.5304   -1936051.31044  -1493751.80942  21283246.9384   21283243.2414
        57.0004         49.0004
  20534781.0634   -1618705.81644  -1255588.27042  20534782.0634   20534780.4894
        57.0004         50.0004
  20449125.3974    5656633.08243   4411004.19542  20449126.8624   20449124.6554
        52.0004         47.0004
  22502945.6064   20063925.32143  15630321.91242  22502946.4184   22502947.3204
        50.0004         43.0004
  23934806.1244   10236541.81643   7979871.17342  23934806.6884   23934807.3504
        44.0004         38.0004
  21740843.5164   -1917893.64343  -1489651.78642  21740845.3244   21740844.1354
        51.0004         43.0004
  22815902.8474   14636940.06743  11408941.43342  22815904.1324   22815906.2724
        50.0004         44.0004
  23511587.2304   -4724730.52943  -3647697.42642  23511588.9904   23511592.2394
        46.0004         40.0004
  24237590.8924    6940347.31843   5406942.31542  24237595.0434   24237597.8614
        39.0004         36.0004
 04  6 18 16 51 20.0000000  0  9G22G21G18G 6G16G15G26G 3G29
  21277672.2644   -1965346.11444  -1516578.90542  21277672.4724   21277668.5944
        57.0004         49.0004
  20535152.1024   -1616756.54244  -1254069.35742  20535153.1444   20535151.6124
        57.0004         50.0004
  20450238.2444    5662482.05743   4415561.84142  20450239.8054   20450238.3314
        52.0004         46.0004
  22515262.0624   20128650.08543  15680756.72242  22515262.8634   22515263.9124
        50.0004         43.0004
  23940193.1334   10264855.41343   8001933.64542  23940195.8104   23940196.5994
        44.0004         38.0004
  21732650.2114   -1960950.41743  -1523202.50842  21732651.3934   21732651.7884
        51.0004         43.0004
  22826140.0974   14690736.31643  11450860.55242  22826141.6124   22826141.8444
        50.0004         44.0004
  23500749.2144   -4781691.79443  -3692082.76642  23500749.4614   23500751.5174
        45.0004         40.0004
  24248737.7354    6998924.30943   5452586.67542  24248738.2784   24248745.7724
        39.0004         36.0004
 04  6 18 16 51 40.0000000  0 10G22G21G18G14G 6G16G15G26G 3G29
  21272126.1634   -1994490.32344  -1539288.64442  21272126.4014   21272123.0864
        57.0004         49.0004
  20535544.7554   -1614693.91644  -1252462.12142  20535545.5734   20535543.9224
        57.0004         50.0004
  20451379.8884    5668481.20643   4420236.51942  20451381.0754   20451379.3114
        51.0004         46.0004
  24615595.063
        42.000
  22527599.9474   20193487.59243  15731279.39042  22527602.2754   22527601.9704
        50.0004         43.0004
  23945613.4744   10293326.62843   8024118.95742  23945613.6924   23945613.9124
        47.0004         39.0004
  21724464.7014   -2003962.83943  -1556718.64442  21724465.7394   21724465.8964
        51.0004         43.0004
  22836416.3354   14744740.65043  11492941.81742  22836417.6844   22836420.0024
        50.0004         44.0004
  23489934.1204   -4838522.27443  -3736366.23742  23489935.6474   23489937.3854
        46.0004         39.0004
  24259912.8994    7057627.37543   5498329.31142  24259912.5074   24259916.9104
        40.0004         36.0004
 04  6 18 16 52  0.0000000  0 10G22G21G18G14G 6G16G15G26G 3G29
  21266608.6814   -2023483.08844  -1561880.39042  21266608.9704   21266606.2964
        57.0004         49.0004
  20535958.8074   -1612516.59644  -1250765.51442  20535960.2624   20535957.7974
        57.0004         50.0004
  20452549.8224    5674631.36543   4425028.84542  20452550.6334   20452549.6394
        51.0004         46.0004
  24601169.8594   -1347128.77853  -1028247.19152  24601170.1544   24601170.5574
        44.0004         37.0004
  22539960.5754   20258438.12543  15781890.11942  22539961.1504   22539961.9904
        51.0004         44.0004
  23951060.6804   10321955.71643   8046427.27542  23951062.7334   23951061.3044
        47.0004         39.0004
  21716289.7814   -2046929.57243  -1590199.21442  21716289.3554   21716290.3934
        52.0004         43.0004
  22846732.8094   14798953.27243  11535185.38742  22846735.8584   22846735.4574
        50.0004         44.0004
  23479144.8924   -4895220.04543  -3780546.24742  23479145.9004   23479147.0994
        46.0004         39.0004
  24271107.4554    7116456.63543   5544170.28242  24271108.4034   24271112.8374
        41.0004         36.0004
 04  6 18 16 52 20.0000000  0 10G22G21G18G14G 6G16G15G26G 3G29
  21261121.4614   -2052319.02044  -1584349.92442  21261121.5654   21261119.2014
        57.0004         49.0004
  20536396.0134   -1610218.86644  -1248975.08342  20536396.9894   20536394.6964
        57.0004         50.0004
  20453750.5134    5680937.60543   4429942.79842  20453751.4564   20453749.9694
        51.0004         46.0004
  24586744.9814   -1422924.43643  -1087308.64742  24586747.5944   24586747.8814
        45.0004         37.0004
  22552343.2784   20323506.41943  15832592.61142  22552345.0284   22552345.5014
        52.0004         44.0004
  23956539.6584   10350747.23843   8068862.13642  23956541.0184   23956542.0164
        46.0004         39.0004
  21708122.0164   -2089844.99643  -1623639.78042  21708123.8574   21708124.0214
        51.0004         43.0004
  22857089.7244   14853378.66843  11577594.77042  22857092.6254   22857092.4434
        49.0004         43.0004
  23468382.5404   -4951779.10843  -3824618.19242  23468383.2304   23468385.4124
        46.0004         39.0004
  24282327.8604    7175416.96143   5590113.41142  24282329.8144   24282329.8164
        40.0004         36.0004
 04  6 18 16 52 40.0000000  0 10G22G21G18G14G 6G16G15G26G 3G29
  21255663.7384   -2080999.17744  -1606698.07742  21255664.1784   21255661.5954
        57.0004         49.0004
  20536856.2704   -1607801.36844  -1247091.32142  20536857.2124   20536854.5514
        57.0004         50.0004
  20454980.2094    5687398.61643   4434977.35242  20454980.6484   20454980.4784
        50.0004         45.0004
  24572319.4604   -1498714.63343  -1146365.83742  24572322.0384   24572324.6874
        44.0004         37.0004
  22564747.4084   20388690.80043  15883385.55442  22564748.6774   22564749.0874
        52.0004         44.0004
  23962049.3874   10379699.74643   8091422.44242  23962049.7184   23962048.6954
        47.0004         39.0004
  21699964.6194   -2132709.76643  -1657040.86342  21699965.7814   21699966.4984
        50.0004         42.0004
  22867486.9364   14908015.08643  11620168.56842  22867488.4514   22867489.5534
        49.0004         43.0004
  23457646.2744   -5008199.69543  -3868582.25742  23457648.4094   23457647.3774
        46.0004         39.0004
  24293570.4494    7234506.50343   5636157.18842  24293572.1744   24293576.9914
        41.0004         35.0004
 04  6 18 16 53  0.0000000  0 10G22G21G18G14G 6G16G15G26G 3G29
  21250235.7794   -2109524.57444  -1628925.65042  21250235.9284   21250233.7274
        57.0004         49.0004
  20537338.4654   -1605264.84344  -1245114.81842  20537339.7824   20537337.8054
        57.0004         50.0004
  20456237.6264    5694013.11443   4440131.51842  20456238.5224   20456238.5124
        50.0004         45.0004
  24557897.3384   -1574499.41543  -1205418.79642  24557899.8064   24557901.4034
        43.0004         37.0004
  22577174.4154   20453989.69543  15934267.72042  22577175.4844   22577176.0664
        53.0004         45.0004
  23967588.7904   10408811.46943   8114106.80042  23967590.7004   23967588.8874
        47.0004         38.0004
  21691818.5634   -2175524.41543  -1690402.93142  21691818.5634   21691819.5624
        50.0004         42.0004
  22877922.5674   14962860.76143  11662905.43642  22877924.7574   22877925.8294
        48.0004         43.0004
  23446936.6904   -5064481.87743  -3912438.44542  23446937.9994   23446938.9474
        47.0004         39.0004
  24304838.0434    7293723.69743   5682300.43742  24304840.4854   24304844.9934
        40.0004         34.0004
 04  6 18 16 53 20.0000000  0 10G22G21G18G14G 6G16G15G26G 3G29
  21244836.3334   -2137898.21844  -1651034.96942  21244836.4974   21244834.7124
        57.0004         49.0004
  20537843.3834   -1602611.92044  -1243047.60942  20537844.6854   20537842.5274
        57.0004         50.0004
  20457524.3074    5700777.78143   4445402.69142  20457525.6694   20457526.2314
        49.0004         45.0004
  24543475.9444   -1650280.94843  -1264469.25542  24543475.5674   24543481.9134
        42.0004         36.0004
  22589620.8364   20519399.43043  15985236.25042  22589622.0144   22589622.5704
        53.0004         44.0004
  23973158.6314   10438078.78243   8136912.45542  23973159.3874   23973159.4214
        46.0004         38.0004
  21683680.0444   -2218291.75143  -1723728.06642  21683679.9704   21683681.1504
        50.0004         41.0004
  22888398.8744   15017911.95243  11705802.42342  22888400.8944   22888403.1704
        48.0004         43.0004
  23436252.2244   -5120628.05343  -3956188.67242  23436254.4484   23436254.8904
        47.0004         39.0004
  24316130.1574    7353064.80343   5728540.18342  24316132.7874   24316133.4994
        41.0004         34.0004
 04  6 18 16 53 40.0000000  0 10G22G21G18G14G 6G16G15G26G 3G29
  21239466.8334   -2166113.88244  -1673021.19042  21239467.7114   21239465.4004
        57.0004         49.0004
  20538371.9484   -1599836.10644  -1240884.66242  20538373.3064   20538370.9424
        58.0004         50.0004
  20458842.1654    5707698.37943   4450795.36442  20458843.1964   20458843.1084
        48.0004         45.0004
  24529056.9244   -1726052.12743  -1323511.65042  24529057.3624   24529064.0884
        41.0004         36.0004
  22602089.4634   20584925.64043  16036295.53442  22602091.3754   22602091.2264
        52.0004         44.0004
  23978757.2604   10467507.09643   8159843.56242  23978758.9274   23978759.6304
        45.0004         37.0004
  21675551.7924   -2261004.99843  -1757011.09242  21675552.9394   21675551.3214
        48.0004         40.0004
  22898915.7534   15073174.06143  11748863.76842  22898915.9464   22898918.8604
        48.0004         43.0004
  23425594.9344   -5176631.08743  -3999827.37342  23425596.5754   23425594.6364
        46.0004         39.0004
  24327449.6664    7412535.19143   5774880.68142  24327447.1564   24327450.7984
        42.0004         33.0004
 04  6 18 16 54  0.0000000  0 10G22G21G18G14G 6G16G15G26G 3G29
  21234127.0074   -2194178.84444  -1694889.98142  21234127.3654   21234124.4354
        57.0004         49.0004
  20538921.8984   -1596944.25644  -1238631.28842  20538923.4174   20538921.8064
        58.0004         51.0004
  20460188.3884    5714767.51243   4456303.78342  20460189.4744   20460188.5094
        49.0004         45.0004
  24514642.3384   -1801819.40043  -1382551.03242  24514641.4584   24514649.2824
        43.0004         36.0004
  22614579.4734   20650560.47043  16087439.46642  22614580.2434   22614581.5724
        51.0004         43.0004
  23984386.7494   10497088.70743   8182894.10342  23984388.5564   23984389.3034
        45.0004         38.0004
  21667433.7994   -2303671.05343  -1790257.33942  21667433.6004   21667433.5434
        47.0004         39.0004
  22909471.2484   15128639.13743  11792083.28442  22909473.8414   22909472.8434
        50.0004         43.0004
  23414963.3554   -5232497.40143  -4043359.51242  23414964.7874   23414969.1384
        45.0004         39.0004
  24338789.6804    7472127.21843   5821315.99642  24338797.3454   24338787.2274
        43.0004         33.0004
 04  6 18 16 54 20.0000000  0 10G22G21G18G14G 6G16G15G26G 3G29
  21228815.5854   -2222090.52644  -1716639.32842  21228816.0534   21228812.7694
        57.0004         49.0004
  20539494.9764   -1593933.62744  -1236285.36642  20539496.3434   20539494.2564
        58.0004         51.0004
  20461561.7854    5721987.06843   4461929.40142  20461562.6954   20461562.7704
        49.0004         45.0004
  24500225.9894   -1877579.68643  -1441584.95542  24500226.5894   24500232.4964
        45.0004         37.0004
  22627088.7304   20716305.69543  16138669.41542  22627091.0714   22627091.8924
        50.0004         43.0004
  23990047.0914   10526825.39143   8206065.46842  23990047.3944   23990047.0814
        46.0004         38.0004
  21659323.7334   -2346287.18243  -1823464.71142  21659324.9424   21659324.7014
        46.0004         39.0004
  22920064.3184   15184308.77243  11835462.19142  22920067.8444   22920068.8864
        48.0004         42.0004
  23404359.9284   -5288223.76343  -4086782.61442  23404360.8104   23404362.3254
        46.0004         39.0004
  24350153.0354    7531842.37443   5867847.26342  24350157.8074   24350155.2494
        42.0004         32.0004
 04  6 18 16 54 40.0000000  0 10G22G21G18G14G 6G16G15G26G 3G29
  21223533.8254   -2249847.12844  -1738267.83442  21223534.0634   21223530.9484
        57.0004         49.0004
  20540091.1044   -1590802.12644  -1233845.25142  20540092.0364   20540090.5734
        58.0004         51.0004
  20462963.9294    5729358.84143   4467673.63742  20462965.2424   20462965.2754
        48.0004         45.0004
  24485811.9344   -1953329.99043  -1500611.09542  24485813.1604   24485817.9594
        46.0004         38.0004
  22639620.5964   20782162.48943  16189986.32742  22639621.9164   22639624.8484
        49.0004         43.0004
  23995735.4484   10556718.16343   8229358.49442  23995738.2984   23995735.3094
        46.0004         38.0004
  21651223.8454   -2388851.24443  -1856631.51242  21651224.5224   21651226.4354
        45.0004         38.0004
  22930697.4344   15240184.02043  11879001.31842  22930699.0214   22930700.0034
        50.0004         43.0004
  23393781.6354   -5343807.53843  -4130094.61542  23393786.0584   23393781.8884
        45.0004         38.0004
  24361539.112                     5914475.59142                  24361544.6724
        41.000          31.0004
 04  6 18 16 55  0.0000000  0 10G22G21G18G14G 6G16G15G26G 3G29
  21218280.8254   -2277448.56144  -1759775.43242  21218281.3844   21218278.6694
        57.0004         49.0004
  20540709.9524   -1587549.18744  -1231310.50442  20540711.3264   20540709.5894
        58.0004         51.0004
  20464396.6594    5736882.59343   4473536.29942  20464397.6734   20464397.0344
        48.0004         44.0004
  24471398.7074   -2029069.52543  -1559628.82742  24471400.8524   24471405.2934
        47.0004         39.0004
  22652174.3864   20848130.47443  16241389.85742  22652173.6624   22652178.9974
        49.0004         42.0004
  24001451.1284   10586766.54643   8252772.76642  24001453.2364   24001452.6824
        44.0004         37.0004
  21643134.9554   -2431362.71343  -1889757.30742  21643131.7434   21643134.8794
        46.0004         38.0004
  22941369.4874   15296264.21243  11922700.12942  22941371.0664   22941371.2614
        51.0004         44.0004
  23383231.5084   -5399247.82143  -4173294.81742  23383233.6624   23383235.8634
        45.0004         38.0004
  24372947.973
        37.000
 04  6 18 16 55 20.0000000  0  9G22G21G18G14G 6G16G15G26G 3
  21213056.7724   -2304898.76543  -1781165.19442  21213057.2344   21213055.1144
        56.0004         49.0004
  20541351.5584   -1584178.50344  -1228683.99642  20541352.8924   20541350.9374
        58.0004         51.0004
  20465856.8014    5744553.88843   4479513.92942  20465858.6264   20465856.5804
        48.0004         44.0004
  24456987.6674   -2104801.43743  -1618640.62442  24456990.1884   24456995.7814
        48.0004         40.0004
  22664747.2574   20914204.97643  16292876.41042  22664748.4494   22664753.7904
        48.0004         43.0004
  24007199.1124   10616965.81543   8276304.62642  24007202.8434   24007201.4114
        46.0004         37.0004
  21635054.6034   -2473825.12143  -1922844.90142  21635054.5314   21635054.8204
        46.0004         38.0004
  22952078.5654   15352544.60343  11966554.97042  22952081.2124   22952080.7514
        50.0004         43.0004
  23372708.2454   -5454547.74143  -4216385.62942  23372709.0764   23372712.2084
        44.0004         38.0004
 04  6 18 16 55 40.0000000  0  9G22G21G18G14G 6G16G15G26G 3
  21207863.0364   -2332192.04143  -1802432.66242  21207863.3884   21207861.1784
        56.0004         48.0004
  20542015.9294   -1580683.83944  -1225960.89642  20542017.5114   20542015.8964
        57.0004         51.0004
  20467344.2124    5752378.30343   4485610.85742  20467345.0344   20467344.6164
        48.0004         44.0004
  24442578.8854   -2180518.89943  -1677641.13942  24442581.9094   24442586.3764
        48.0004         41.0004
  22677342.0214   20980391.32243  16344450.12142  22677344.3724   22677348.7794
        48.0004         43.0004
  24012975.6034   10647321.29243   8299958.17842  24012976.1154   24012976.1874
        46.0004         38.0004
  21626983.8504   -2516232.21043  -1955889.34442  21626984.3644   21626985.3884
        45.0004         39.0004
  22962827.5114   15409030.33243  12010569.77642  22962830.0114   22962829.3684
        50.0004         43.0004
  23362212.8734   -5509700.81443  -4259362.04642  23362214.7204   23362216.7474
        44.0004         38.0004
 04  6 18 16 56  0.0000000  0  9G22G21G18G14G 6G16G15G26G 3
  21202697.2694   -2359339.38544  -1823586.41742  21202697.4174   21202694.8194
        57.0004         48.0004
  20542702.7774   -1577075.84544  -1223149.47842  20542703.7654   20542702.8064
        57.0004         50.0004
  20468860.6304    5760344.53843   4491818.32742  20468861.1114   20468860.5714
        47.0004         44.0004
  24428171.6594   -2256232.15043  -1736638.39742  24428173.6594   24428179.0874
        49.0004         41.0004
  22689957.9494   21046677.76443  16396101.82142  22689957.9424   22689962.6034
        49.0004         44.0004
  24018779.8214   10677821.16543   8323724.23542  24018782.9404   24018781.6414
        47.0004         38.0004
  21618921.8644   -2558594.70443  -1988899.06842  21618922.5204   21618924.8874
        46.0004         39.0004
  22973613.6354   15465709.40843  12054735.24942  22973614.8474   22973615.0494
        50.0004         43.0004
  23351745.4034   -5564717.10643  -4302231.85042  23351746.5934   23351747.6584
        45.0004         38.0004
 04  6 18 16 56 20.0000000  0  9G22G21G18G14G 6G16G15G26G 3
  21197560.9154   -2386330.14843  -1844618.15942  21197560.9314   21197558.3244
        56.0004         48.0004
  20543413.1824   -1573343.21444  -1220240.94542  20543413.9984   20543412.9814
        57.0004         50.0004
  20470405.6964    5768463.14943   4498144.51342  20470406.2944   20470406.2384
        48.0004         44.0004
  24413767.0604   -2331929.82443  -1795623.49842  24413768.7554   24413774.3404
        48.0004         41.0004
  22702593.2864   21113074.21743  16447839.25042  22702593.9584   22702596.9504
        51.0004         44.0004
  24024612.9464   10708475.32843   8347610.50542  24024612.6494   24024614.4894
        47.0004         38.0004
  21610873.0984   -2600901.62843  -2021865.44542  21610872.5964   21610874.0094
        48.0004         40.0004
  22984437.9304   15522591.59843  12099058.98542  22984438.9934   22984439.7634
        50.0004         43.0004
  23341301.6514   -5619585.36743  -4344986.34642  23341303.1204   23341306.9504
        43.0004         37.0004
 04  6 18 16 56 40.0000000  0 10G22G21G18G14G 6G16G15G26G 3G29
  21192454.4814   -2413167.75944  -1865530.56042  21192454.2064   21192451.6754
        57.0004         48.0004
  20544146.8274   -1569489.46443  -1217238.04142  20544147.5444   20544146.3454
        56.0004         50.0004
  20471979.2074    5776730.28143   4504586.42542  20471980.4834   20471977.6254
        49.0004         44.0004
  24399363.9454   -2407614.48243  -1854598.46442  24399366.0194   24399372.4264
        47.0004         41.0004
  22715247.4834   21179576.66743  16499659.26442  22715249.7014   22715252.1464
        50.0004         44.0004
  24030475.5284   10739279.78943   8371613.90842  24030475.3364   24030476.0374
        48.0004         38.0004
  21602830.4304   -2643156.00443  -2054790.89742  21602832.7844   21602832.9974
        47.0004         39.0004
  22995299.7474   15579672.85043  12143537.85042  22995301.5204   22995301.7664
        50.0004         43.0004
  23330889.6654   -5674308.27443  -4387627.53242  23330890.1824   23330892.2004
        43.0004         37.0004
  24430350.091
        42.000
 04  6 18 16 57  0.0000000  0  9G22G21G18G14G 6G16G15G26G 3
  21187376.9354   -2439851.13044  -1886322.77142  21187376.9274   21187374.0254
        57.0004         48.0004
  20544904.0244   -1565513.23844  -1214139.69042  20544905.0994   20544902.4974
        57.0004         50.0004
  20473581.5734    5785146.84043   4511144.78042  20473582.7274   20473579.4034
        50.0004         44.0004
  24384964.7484   -2483284.04343  -1913561.64642  24384966.7374   24384973.4694
        47.0004         40.0004
  22727923.6934   21246185.72343  16551562.33942  22727925.3934   22727926.1714
        51.0004         44.0004
  24036366.3374   10770235.03943   8395734.80042  24036368.5514   24036365.9954
        48.0004         39.0004
  21594800.1304   -2685356.17843  -2087674.11542  21594801.6984   21594799.5424
        48.0004         39.0004
  23006200.4784   15636953.59943  12188172.16042  23006202.6874   23006202.3234
        51.0004         44.0004
  23320504.7574   -5728883.56643  -4430153.73842  23320505.7874   23320507.3754
        44.0004         38.0004
 04  6 18 16 57 20.0000000  0 10G22G21G18G14G 6G16G15G26G 3G29
  21182327.2394   -2466385.36944  -1906998.78842  21182327.6554   21182325.5054
        57.0004         48.0004
  20545683.2154   -1561419.20244  -1210949.53542  20545684.1504   20545681.8174
        57.0004         50.0004
  20475210.6764    5793707.44743   4517815.38242  20475211.7964   20475208.4414
        50.0004         44.0004
  24370566.8884   -2558942.71743  -1972516.37742  24370569.3284   24370572.9644
        46.0004         39.0004
  22740618.2484   21312895.62943  16603543.98842  22740619.4494   22740619.5424
        51.0004         43.0004
  24042285.1984   10801335.18443   8419968.58042  24042286.3594   24042287.4464
        48.0004         39.0004
  21586778.0754   -2727506.99543  -2120518.89042  21586778.1294   21586781.5964
        47.0004         40.0004
  23017137.6514   15694427.79443  12232957.18942  23017139.3274   23017138.7754
        51.0004         44.0004
  23310143.3254   -5783315.74443  -4472568.41742  23310147.8594   23310150.0014
        42.0004         37.0004
  24453463.4964    -977607.84853   -784114.35752  24453465.7664   24453468.4204
        40.0004         34.0004
 04  6 18 16 57 40.0000000  0 10G22G21G18G14G 6G16G15G26G 3G29
  21177307.9344   -2492763.22544  -1927552.93542  21177308.3454   21177306.2084
        57.0004         49.0004
  20546485.9724   -1557199.55444  -1207661.50342  20546487.0224   20546484.8264
        57.0004         50.0004
  20476868.1324    5802418.85343   4524603.50342  20476869.3174   20476865.6684
        51.0004         45.0004
  24356170.7824   -2634582.40443  -2031456.29642  24356172.9714   24356179.4584
        43.0004         38.0004
  22753333.5254   21379713.09743  16655609.47142  22753334.2034   22753335.3294
        50.0004         43.0004
  24048230.1314   10832586.90143   8444320.48042  24048233.6734   24048232.1564
        47.0004         39.0004
  21578768.7874   -2769600.66943  -2153319.09042  21578769.2564   21578771.1964
        47.0004         39.0004
  23028111.9894   15752101.94343  12277898.03442  23028113.8624   23028115.0124
        50.0004         44.0004
  23299818.4694   -5837596.60443  -4514865.14042  23299817.6244   23299818.9784
        43.0004         37.0004
  24465054.2954    -916695.34643   -736650.11842  24465055.6624   24465065.2654
        39.0004         33.0004
 04  6 18 16 58  0.0000000  0 10G22G21G18G14G 6G16G15G26G 3G29
  21172317.4264   -2518989.09244  -1947988.64942  21172318.0334   21172315.6204
        57.0004         49.0004
  20547311.9274   -1552858.11643  -1204278.56842  20547312.7134   20547310.8514
        56.0004         50.0004
  20478552.9764    5811276.45643   4531505.53442  20478554.4294   20478551.4344
        50.0004         45.0004
  24341776.3774   -2710206.62443  -2090384.15342  24341778.4314   24341786.3584
        42.0004         37.0004
  22766068.2154   21446633.01943  16707754.77142  22766070.0374   22766068.8564
        51.0004         43.0004
  24054206.3874   10863985.05543   8468786.52842  24054207.8894   24054206.4404
        46.0004         38.0004
  21570768.8574   -2811641.20443  -2186077.95942  21570768.7784   21570768.8514
        48.0004         39.0004
  23039125.0354   15809970.88243  12322990.67642  23039127.7474   23039126.3624
        51.0004         44.0004
  23289516.1534   -5891729.90443  -4557046.95342  23289515.3484   23289518.8364
        43.0004         37.0004
  24476667.3594    -855668.14243   -689096.50942  24476669.4724   24476675.3134
        39.0004         33.0004
 04  6 18 16 58 20.0000000  0 10G22G21G18G14G 6G16G15G26G 3G29
  21167355.1304   -2545063.66144  -1968306.47242  21167355.6974   21167353.2304
        57.0004         49.0004
  20548161.2164   -1548395.84743  -1200801.48242  20548162.1024   20548160.2774
        56.0004         50.0004
  20480266.6334    5820279.06443   4538520.54642  20480268.7114   20480265.1824
        50.0004         45.0004
  24327390.4574   -2785815.31943  -2149299.92242  24327391.4934   24327397.7194
        43.0004         37.0004
  22778820.4294   21513654.02043  16759978.82342  22778822.5814   22778822.9164
        50.0004         42.0004
  24060208.3474   10895528.33543   8493365.65542  24060208.7774   24060212.6734
        46.0004         38.0004
  21562779.6134   -2853629.07543  -2218795.73342  21562781.1564   21562777.9414
        47.0004         38.0004
  23050173.1964   15868033.02643  12368233.85242  23050174.7114   23050176.3754
        50.0004         44.0004
  23279244.6114   -5945715.62843  -4599113.71642  23279242.7614   23279244.5014
        44.0004         37.0004
  24488302.2044    -794527.64143   -641454.53842  24488302.3694   24488313.5044
        38.0004         33.0004
 04  6 18 16 58 40.0000000  0 10G22G21G18G14G 6G16G15G26G 3G29
  21162422.0474   -2570985.23744  -1988505.08842  21162422.5854   21162420.3204
        57.0004         49.0004
  20549033.6744   -1543810.36943  -1197228.39242  20549034.2614   20549032.9634
        56.0004         50.0004
  20482006.8704    5829428.14743   4545649.69042  20482008.6334   20482006.5444
        50.0004         45.0004
  24313006.6744   -2861405.89943  -2208201.56942  24313007.4324   24313013.6374
        43.0004         37.0004
  22791593.7294   21580777.18343  16812282.49942  22791595.2994   22791594.3324
        50.0004         41.0004
  24066238.2894   10927217.71043   8518058.62142  24066240.1264   24066241.9594
        44.0004         38.0004
  21554798.3264   -2895562.08243  -2251470.78942  21554801.7594   21554803.3114
        47.0004         38.0004
  23061259.1714   15926289.34743  12413628.33642  23061261.4124   23061261.8374
        51.0004         44.0004
  23268998.8364   -5999551.10143  -4641063.43842  23268997.8254   23268999.2014
        43.0004         37.0004
  24499958.480                     -593723.61852                  24499964.0994
        37.000          32.0004
 04  6 18 16 59  0.0000000  0 10G22G21G18G14G 6G16G15G26G 3G29
  21157519.1814   -2596751.05744  -2008582.34142  21157519.4224   21157517.6544
        57.0004         49.0004
  20549930.1854   -1539098.44143  -1193556.76742  20549931.1104   20549929.4654
        56.0004         50.0004
  20483776.8204    5838726.32343   4552895.02742  20483778.0914   20483775.0374
        51.0004         45.0004
  24298627.1514   -2936974.58943  -2267086.15842  24298627.3094   24298633.9664
        44.0004         38.0004
  22804386.2754   21648004.78943  16864667.53442  22804387.4354   22804388.2364
        49.0004         41.0004
  24072295.8024   10959055.37243   8542867.11842  24072296.9384   24072300.8244
        43.0004         37.0004
  21546831.6444   -2937436.97143  -2284100.54742  21546833.2814   21546832.6514
        47.0004         38.0004
  23072382.1244   15984741.96743  12459175.78242  23072383.3504   23072385.4634
        50.0004         44.0004
  23258781.2064   -6053232.75943  -4682893.25942  23258784.9684   23258785.1484
        41.0004         36.0004
  24511639.110                     -545901.92452                  24511649.5514
        38.000          31.0004
 04  6 18 16 59 20.0000000  0 10G22G21G18G14G 6G16G15G26G 3G29
  21152643.9834   -2622371.93943  -2028546.64342  21152643.8414   21152642.1494
        56.0004         49.0004
  20550848.9414   -1534270.63643  -1189794.84442  20550849.9194   20550848.4024
        56.0004         50.0004
  20485572.2814    5848162.42143   4560247.82842  20485573.8284   20485571.7664
        51.0004         45.0004
  24284250.2894   -3012531.34743  -2325961.44042  24284250.3824   24284256.8374
        45.0004         38.0004
  22817196.9934   21715325.34243  16917125.00642  22817196.8874   22817199.5584
        49.0004         42.0004
  24078378.7044   10991029.64743   8567782.11242  24078379.8884   24078385.7884
        41.0004         37.0004
  21538872.5774   -2979264.10343  -2316693.08142  21538873.7074   21538870.5224
        48.0004         38.0004
  23083540.0374   16043379.07243  12504866.97342  23083542.8164   23083543.4164
        49.0004         44.0004
  23248594.5884   -6106770.55043  -4724610.99142  23248595.6594   23248594.0274
        42.0004         36.0004
  24523338.946
        37.000
 04  6 18 16 59 40.0000000  0 10G22G21G18G14G 6G16G15G26G 3G29
  21147798.0774   -2647834.10043  -2048387.27442  21147798.2134   21147796.6124
        56.0004         49.0004
  20551792.9244   -1529312.84443  -1185931.62042  20551793.5314   20551791.7774
        56.0004         50.0004
  20487397.4504    5857750.14143   4567718.76042  20487398.3984   20487396.7184
        51.0004         45.0004
  24269876.4864   -3088061.59543  -2384816.07542  24269876.4944   24269883.5834
        44.0004         39.0004
  22830029.3674   21782752.02143  16969665.15742  22830029.7084   22830029.3694
        50.0004         42.0004
  24084493.1634   11023153.83543   8592813.90442  24084494.4224   24084497.5084
        42.0004         37.0004
  21530923.5834   -3021029.33843  -2349237.38442  21530923.8854   21530923.7104
        47.0004         38.0004
  23094736.7674   16102213.75043  12550712.14042  23094737.0394   23094739.8124
        50.0004         43.0004
  23238435.3644   -6160149.90343  -4766205.25042  23238436.6464   23238436.6164
        40.0004         35.0004
  24535060.636
        37.000
 04  6 18 17  0  0.0000000  0 10G22G21G18G14G 6G16G15G26G 3G29
  21142981.1514   -2673146.81043  -2068111.45742  21142981.5034   21142979.3694
        56.0004         50.0004
  20552759.1474   -1524233.90843  -1181973.99842  20552760.3394   20552758.6234
        56.0004         50.0004
  20489249.2384    5867479.66943   4575300.20642  20489250.0974   20489248.2384
        52.0004         45.0004
  24255506.2234   -3163573.71443  -2443656.57542  24255508.3034   24255514.1044
        44.0004         38.0004
  22842879.3234   21850274.95343  17022280.32442  22842880.7444   22842880.2064
        50.0004         42.0004
  24090634.3904   11055417.71243   8617954.56242  24090635.1894   24090638.2264
        43.0004         37.0004
  21522986.5354   -3062741.60043  -2381740.40342  21522986.2584   21522984.5864
        46.0004         37.0004
  23105968.6424   16161235.89843  12596703.38242  23105969.8684   23105971.0094
        50.0004         43.0004
  23228307.9464   -6213379.52443  -4807682.89042  23228309.6434   23228309.1614
        41.0004         34.0004
  24546801.713
        35.000
 04  6 18 17  0 20.0000000  0  9G22G21G18G14G 6G16G26G 3G29
  21138194.3894   -2698303.86643  -2087714.35342  21138194.1364   21138192.1354
        56.0004         50.0004
  20553749.4754   -1519027.19443  -1177916.80542  20553750.7684   20553749.1164
        56.0004         50.0004
  20491128.0774    5877357.08743   4582996.88942  20491129.6044   20491127.1654
        52.0004         45.0004
  24241142.3944   -3239060.53043  -2502477.36442  24241142.9424   24241151.1594
        45.0004         38.0004
  22855747.8594   21917899.89243  17074974.97242  22855750.3064   22855749.9294
        50.0004         42.0004
  24096803.6374   11087827.22643   8643208.68642  24096803.2694   24096805.2044
        45.0004         38.0004
  23117236.1764   16220451.12443  12642845.07542  23117237.7714   23117240.6294
        49.0004         43.0004
  23218204.8804   -6266452.09143  -4849038.09542  23218204.6134   23218208.2454
        38.0004         34.0004
  24558564.339
        36.000
 04  6 18 17  0 40.0000000  0  9G22G21G18G14G 6G16G15G26G 3
  21133436.5374   -2723304.81844  -2107195.60742  21133436.9374   21133434.6434
        57.0004         50.0004
  20554764.3564   -1513691.97543  -1173759.49642  20554765.4484   20554764.6814
        55.0004         49.0004
  20493035.5844    5887382.54243   4590808.92342  20493037.2814   20493035.0254
        51.0004         45.0004
  24226782.7194   -3314520.73243  -2561277.44242  24226783.5414   24226791.3544
        44.0004         38.0004
  22868635.5184   21985626.49343  17127748.85942  22868636.2584   22868639.8904
        50.0004         43.0004
  24102998.3004   11120381.90443   8668575.90342  24102999.8194   24102999.5634
        46.0004         38.0004
  21507147.180
        46.000
  23128541.5014   16279858.84143  12689136.75042  23128544.0244   23128544.1664
        50.0004         43.0004
  23208138.2384   -6319366.45853  -4890270.05752  23208134.6754   23208141.2464
        40.0004         34.0004
 04  6 18 17  1  0.0000000  0  9G22G21G18G14G 6G16G15G26G 3
  21128707.2254   -2748161.22444  -2126564.21542  21128707.1584   21128704.9214
        57.0004         50.0004
  20555801.7774   -1508239.43643  -1169510.76542  20555802.7314   20555802.0914
        55.0004         49.0004
  20494969.0114    5897544.13443   4598727.04642  20494970.6014   20494968.3204
        51.0004         45.0004
  24212426.3794   -3389964.90843  -2620065.02242  24212425.6234   24212434.0894
        45.0004         38.0004
  22881539.0544   22053442.57143  17180592.47042  22881541.0184   22881544.5364
        49.0004         42.0004
  24109217.8454   11153069.47243   8694046.64342  24109219.4164   24109220.6884
        47.0004         39.0004
  21499239.533
        44.000
  23139881.1254   16339446.89043  12735568.96042  23139882.3654   23139882.5104
        49.0004         43.0004
  23198094.1654   -6372133.27243  -4931387.04242  23198095.4564   23198098.8784
        38.0004         34.0004
 04  6 18 17  1 20.0000000  0 10G22G21G18G14G 6G16G15G26G 3G29
  21124005.9054   -2772866.03344  -2145814.69642  21124006.1974   21124003.5064
        57.0004         50.0004
  20556863.7074   -1502661.99043  -1165164.72442  20556864.1454   20556863.0864
        55.0004         49.0004
  20496930.3034    5907848.64543   4606756.53342  20496931.2024   20496929.8134
        51.0004         45.0004
  24198073.0694   -3465385.12743  -2678833.92142  24198074.4274   24198080.4414
        44.0004         38.0004
  22894460.6994   22121354.69143  17233510.91742  22894463.1764   22894466.9244
        47.0004         42.0004
  24115464.0424   11185896.54543   8719626.09042  24115465.6004   24115468.6634
        47.0004         39.0004
  21491344.3944   -1246232.24553   -951896.68152  21491345.5194   21491345.5114
        43.0004         37.0004
  23151255.7484   16399221.52243  12782146.55642  23151256.7814   23151260.1474
        49.0004         43.0004
  23188083.2944   -6424744.77753  -4972382.98852  23188086.7964   23188084.5394
        39.0004         34.0004
  24593982.429
        41.000
 04  6 18 17  1 40.0000000  0  9G22G21G18G14G 6G16G15G26G 3
  21119333.9704   -2797417.92344  -2164946.02342  21119333.8444   21119330.9674
        57.0004         50.0004
  20557949.9184   -1496958.05443  -1160720.11042  20557950.0624   20557948.4644
        56.0004         49.0004
  20498918.5284    5918297.21843   4614898.27642  20498920.0254   20498918.4574
        51.0004         44.0004
  24183726.4604   -3540779.23743  -2737582.50042  24183727.8644   24183734.4784
        45.0004         37.0004
  22907402.1214   22189363.61043  17286504.82542  22907403.8874   22907409.2574
        46.0004         41.0004
  24121737.2574   11218863.70443   8745314.73242  24121739.7234   24121741.8954
        46.0004         39.0004
  21483462.5774   -1287658.51543   -984176.90642  21483459.1244   21483462.3184
        40.0004         36.0004
  23162666.7404   16459183.32343  12828869.99542  23162667.7074   23162668.5864
        50.0004         42.0004
  23178102.7664   -6477198.51543  -5013255.98942  23178102.7034   23178105.0384
        39.0004         34.0004
 04  6 18 17  2  0.0000000  0  9G22G21G18G14G 6G16G15G26G 3
  21114690.7204   -2821818.39144  -2183959.35742  21114690.8434   21114687.6974
        58.0004         50.0004
  20559059.2724   -1491128.76243  -1156177.82542  20559059.8944   20559057.7194
        56.0004         49.0004
  20500933.7014    5928887.91643   4623150.76842  20500934.2954   20500932.1594
        51.0004         44.0004
  24169385.1494   -3616147.79143  -2796311.08042  24169386.9894   24169387.3104
        46.0004         37.0004
  22920361.6134   22257467.13843  17339572.45842  22920364.2804   22920368.7504
        46.0004         41.0004
  24128035.5264   11251968.62243   8771110.71042  24128037.8614   24128041.6114
        45.0004         39.0004
  21475589.7084   -1329027.08243  -1016412.10142  21475590.3294   21475590.7244
        39.0004         36.0004
  23174111.6774   16519329.85143  12875737.37442  23174113.4874   23174113.8204
        49.0004         42.0004
  23168149.3634   -6529495.56043  -5054006.90842  23168151.1134   23168153.6544
        40.0004         34.0004
 04  6 18 17  2 20.0000000  0  9G22G21G18G14G 6G16G15G26G 3
  21110076.7524   -2846066.96644  -2202854.32242  21110076.7364   21110073.1494
        57.0004         50.0004
  20560192.1144   -1485173.21943  -1151537.15442  20560193.1914   20560190.8634
        56.0004         49.0004
  20502976.4274    5939621.11843   4631514.29742  20502977.3694   20502976.9394
        51.0004         44.0004
  24155047.2924   -3691489.39243  -2855018.64742  24155050.0744   24155046.0994
        45.0004         36.0004
  22933342.1684   22325665.24143  17392713.76242  22933343.3954   22933345.5704
        48.0004         41.0004
  24134362.5434   11285211.30043   8797014.03242  24134364.3154   24134368.3084
        46.0004         39.0004
  21467729.4524   -1370336.81243  -1048601.48842  21467729.5434   21467730.5534
        42.0004         35.0004
  23185592.3324   16579661.03343  12922748.64742  23185594.7694   23185595.2514
        49.0004         42.0004
  23158228.5104   -6581634.30543  -5094634.43242  23158229.5094   23158230.2704
        41.0004         35.0004
 04  6 18 17  2 40.0000000  0  9G22G21G18G14G 6G16G15G26G 3
  21105490.0014   -2870168.91044  -2221635.03242  21105490.1934   21105486.5864
        57.0004         49.0004
  20561348.0764   -1479096.49243  -1146802.05342  20561349.0754   20561347.3844
        55.0004         49.0004
  20505044.7684    5950491.14543   4639984.47442  20505046.0774   20505044.4324
        51.0004         44.0004
  24140713.9014   -3766808.37243  -2913708.59542  24140716.2384   24140713.6004
        44.0004         36.0004
  22946337.7054   22393952.01043  17445924.12842  22946337.9944   22946339.1464
        48.0004         41.0004
  24140713.5844   11318585.74743   8823020.04042  24140714.7434   24140718.3824
        46.0004         39.0004
  21459876.5504   -1411592.66853  -1080748.97652  21459877.1164   21459878.9544
        39.0004         35.0004
  23197106.3574   16640170.65243  12969898.93142  23197108.8694   23197109.5674
        48.0004         41.0004
  23148338.0434   -6633619.40843  -5135142.28942  23148336.4374   23148339.2744
        44.0004         36.0004
 04  6 18 17  3  0.0000000  0  9G22G21G18G14G 6G16G15G26G 3
  21100932.0504   -2894119.49843  -2240297.80242  21100932.1754   21100928.4844
        56.0004         49.0004
  20562528.5494   -1472893.11143  -1141968.25142  20562529.6344   20562527.5224
        56.0004         49.0004
  20507140.2404    5961502.53543   4648564.77642  20507141.6084   20507139.9764
        51.0004         44.0004
  24126385.3164   -3842099.13443  -2972376.55742  24126386.6084   24126388.8464
        44.0004         36.0004
  22959348.9984   22462331.70443  17499206.88442  22959351.5824   22959349.7194
        49.0004         41.0004
  24147091.1054   11352096.14743   8849131.97542  24147092.5284   24147097.0974
        46.0004         39.0004
  21452042.0294   -1452789.51243  -1112850.41542  21452040.1684   21452038.6064
        40.0004         36.0004
  23208656.0284   16700862.84143  13017191.49142  23208659.2594   23208657.1304
        48.0004         41.0004
  23138477.5824   -6685445.06643  -5175525.90842  23138477.2214   23138478.9944
        46.0004         36.0004
 04  6 18 17  3 20.0000000  0  9G22G21G18G14G 6G16G15G26G 3
  21096402.8494   -2917916.84943  -2258841.17342  21096402.8544   21096400.2354
        56.0004         48.0004
  20563733.3644   -1466561.23043  -1137034.31742  20563734.6654   20563732.8774
        56.0004         49.0004
  20509263.0034    5972656.77643   4657256.39242  20509264.7504   20509263.0784
        51.0004         44.0004
  24112064.5124   -3917359.07643  -3031020.53542  24112064.2704   24112070.2634
        43.0004         36.0004
  22972379.3584   22530805.20843  17552562.72142  22972381.1154   22972381.4974
        49.0004         41.0004
  24153493.8534   11385743.37343   8875350.53142  24153494.8914   24153498.6094
        46.0004         38.0004
  21444208.0054   -1493924.98153  -1144904.05652  21444209.9254   21444209.6274
        37.0004         36.0004
  23220240.2034   16761738.35443  13064626.91042  23220244.0364   23220242.5174
        48.0004         40.0004
  23128643.5064   -6737108.82343  -5215783.35142  23128645.4574   23128644.7994
        46.0004         36.0004
 04  6 18 17  3 40.0000000  0  9G22G21G18G14G 6G16G15G26G 3
  21091902.3454   -2941565.60843  -2277268.76742  21091902.4414   21091899.7684
        56.0004         48.0004
  20564961.8124   -1460104.70143  -1132003.25442  20564962.8604   20564961.8364
        56.0004         49.0004
  20511412.1044    5983949.14643   4666055.64842  20511413.0204   20511410.9464
        51.0004         44.0004
  24097747.3544   -3992591.72343  -3089643.24742  24097745.9494   24097752.6674
        42.0004         37.0004
  22985426.2914   22599367.66143  17605987.88542  22985427.8854   22985429.0774
        49.0004         41.0004
  24159922.9774   11419522.44443   8901671.81942  24159922.9444   24159926.4914
        46.0004         38.0004
  21436395.8654   -1535003.14853  -1176913.03352  21436392.8624   21436394.5884
        40.0004         36.0004
  23231858.2204   16822792.11143  13112201.20742  23231859.7454   23231860.3294
        48.0004         40.0004
  23118844.1714   -6788614.29043  -5255917.44342  23118846.1684   23118844.7164
        46.0004         37.0004
 04  6 18 17  4  0.0000000  0  9G22G21G18G14G 6G16G15G26G 3
  21087430.9094   -2965062.96743  -2295578.37442  21087430.8814   21087428.7894
        56.0004         48.0004
  20566214.4664   -1453520.51543  -1126872.71142  20566215.8114   20566214.9464
        56.0004         49.0004
  20513587.8684    5995382.23443   4674964.54242  20513588.8604   20513587.6514
        51.0004         44.0004
  24083436.8534   -4067793.40543  -3148241.83142  24083438.8164   24083445.9564
        42.0004         38.0004
  22998489.2194   22668021.09043  17659483.96942  22998489.7014   22998493.3894
        48.0004         41.0004
  24166376.1474   11453435.28743   8928097.35042  24166376.7134   24166378.2854
        46.0004         38.0004
  21428592.7874   -1576020.78043  -1208874.81342  21428590.7044   21428590.2914
        42.0004         37.0004
  23243510.3264   16884026.04243  13159915.92642  23243511.2134   23243512.4654
        47.0004         40.0004
  23109072.7094   -6839958.00243  -5295925.52642  23109073.7054   23109076.4924
        46.0004         37.0004
 04  6 18 17  4 20.0000000  0  9G22G21G18G14G 6G16G15G26G 3
  21082988.2474   -2988408.24543  -2313769.47542  21082988.1834   21082986.5874
        55.0004         48.0004
  20567492.6314   -1446807.48143  -1121641.78142  20567493.4264   20567492.5854
        56.0004         50.0004
  20515789.3944    6006956.62443   4683983.54942  20515790.7914   20515789.3904
        51.0004         44.0004
  24069134.1144   -4142962.31543  -3206814.89442  24069133.2854   24069142.5724
        43.0004         38.0004
  23011570.2944   22736765.81743  17713051.16742  23011571.4244   23011576.8124
        46.0004         41.0004
  24172854.0584   11487482.06643   8954627.20142  24172854.1684   24172858.6074
        46.0004         37.0004
  21420798.5724   -1616976.58743  -1240788.40642  21420797.9284   21420794.6224
        44.0004         38.0004
  23255198.2024   16945440.14143  13207771.02742  23255200.2634   23255199.2964
        48.0004         40.0004
  23099334.1024   -6891138.36743  -5335806.31042  23099336.7744   23099336.3174
        47.0004         38.0004
 04  6 18 17  4 40.0000000  0  9G22G21G18G14G 6G16G15G26G 3
  21078574.4434   -3011603.13543  -2331843.39842  21078574.4234   21078572.3574
        55.0004         48.0004
  20568794.2204   -1439966.96944  -1116311.52342  20568795.7154   20568794.1324
        57.0004         50.0004
  20518018.3034    6018669.99743   4693110.84442  20518020.0054   20518018.3044
        50.0004         44.0004
  24054835.4944   -4218099.30743  -3265363.09242  24054835.4864   24054844.2854
        43.0004         39.0004
  23024669.3234   22805599.44843  17766687.67842  23024670.4674   23024676.6294
        46.0004         41.0004
  24179357.1034   11521660.47143   8981259.64342  24179357.0484   24179361.3844
        44.0004         37.0004
  21413011.3264   -1657871.91643  -1272654.86642  21413015.6214   21413016.0834
        43.0004         38.0004
  23266917.6164   17007031.86343  13255764.54342  23266918.7784   23266920.9824
        48.0004         39.0004
  23089624.8564   -6942156.20243  -5375560.44942  23089626.8864   23089629.2794
        47.0004         38.0004
 04  6 18 17  5  0.0000000  0  9G22G21G18G14G 6G16G15G26G 3
  21074189.5954   -3034648.00843  -2349800.42042  21074189.3954   21074187.4824
        56.0004         48.0004
  20570120.3594   -1432998.83744  -1110881.81442  20570121.6424   20570120.1374
        57.0004         50.0004
  20520274.4894    6030521.78743   4702346.00842  20520276.0384   20520272.8744
        51.0004         44.0004
  24040542.0184   -4293203.91243  -3323886.06342  24040543.8684   24040553.1374
        43.0004         39.0004
  23037786.0554   22874520.97543  17820392.68442  23037786.0524   23037791.7374
        47.0004         42.0004
  24185885.3964   11555969.28143   9007993.72742  24185885.5364   24185888.9504
        44.0004         37.0004
  21405240.7594   -1698706.62943  -1304474.11042  21405242.1644   21405242.0084
        41.0004         37.0004
  23278671.7154   17068800.05843  13303895.54142  23278671.7424   23278672.5514
        47.0004         39.0004
  23079947.9804   -6993011.01043  -5415187.53142  23079948.5354   23079949.9894
        47.0004         39.0004
 04  6 18 17  5 20.0000000  0  9G22G21G18G14G 6G16G15G26G 3
  21069832.8654   -3057544.48543  -2367641.81942  21069832.6714   21069830.7244
        56.0004         49.0004
  20571470.5014   -1425904.55044  -1105353.81542  20571471.9224   20571470.1644
        58.0004         50.0004
  20522555.2744    6042509.91143   4711687.39342  20522557.0574   20522556.6044
        50.0004         44.0004
  24026255.8044   -4368276.89443  -3382384.36742  24026256.0804   24026267.3424
        41.0004         39.0004
  23050918.4744   22943528.18943  17874164.44742  23050919.2864   23050922.9664
        48.0004         42.0004
  24192440.6894   11590406.19943   9034827.59042  24192440.9164   24192441.5984
        44.0004         37.0004
  21397479.4044   -1739481.69943  -1336246.91942  21397480.5534   21397485.0584
        40.0004         37.0004
  23290460.1904   17130742.30643  13352162.16442  23290460.1904   23290460.6874
        49.0004         39.0004
  23070301.8424   -7043703.72743  -5454688.33342  23070302.9544   23070303.6894
        46.0004         39.0004
 04  6 18 17  5 40.0000000  0  9G22G21G18G14G 6G16G15G26G 3
  21065504.5364   -3080291.18043  -2385366.49242  21065504.2594   21065502.2574
        56.0004         49.0004
  20572844.6084   -1418682.14444  -1099725.97642  20572846.1884   20572844.8764
        58.0004         50.0004
  20524863.2834    6054635.73943   4721136.09142  20524864.5014   20524862.6414
        50.0004         44.0004
  24011976.6564   -4443315.89043  -3440856.20542  24011976.7434   24011987.7934
        42.0004         39.0004
  23064066.7814   23012621.99543  17928003.66442  23064067.9144   23064072.5494
        49.0004         43.0004
  24199017.2824   11624972.03943   9061761.92742  24199017.7134   24199023.5454
        44.0004         38.0004
  21389731.0194   -1780195.53943  -1367971.98542  21389732.0244   21389736.6074
        36.0004         37.0004
  23302279.8914   17192859.26743  13400564.95142  23302281.3664   23302279.4244
        48.0004         38.0004
  23060686.5224   -7094232.13443  -5494061.08442  23060687.3694   23060688.7614
        46.0004         39.0004
 04  6 18 17  6  0.0000000  0  9G22G21G18G14G 6G16G15G26G 3
  21061204.6704   -3102887.85344  -2402974.27542  21061204.4244   21061201.9694
        57.0004         49.0004
  20574243.4974   -1411331.21144  -1093997.98642  20574245.0184   20574243.6874
        58.0004         50.0004
  20527196.9814    6066899.15343   4730691.98742  20527197.7274   20527197.3304
        51.0004         44.0004
  23997704.4444   -4518319.82543  -3499300.70642  23997703.7074   23997713.6244
        42.0004         39.0004
  23077232.2334   23081801.89143  17981909.97742  23077234.2714   23077235.4414
        49.0004         43.0004
  24205619.9394   11659666.17543   9088796.25842  24205620.2504   24205625.6654
        44.0004         38.0004
  21381999.8164   -1820847.32453  -1399648.65852  21381999.9614   21382001.8854
        42.0004         38.0004
  23314133.6934   17255150.25143  13449103.30642  23314137.5904   23314129.7634
        48.0004         38.0004
  23051102.9224   -7144595.22343  -5533305.03242  23051103.9274   23051104.3874
        46.0004         39.0004
 04  6 18 17  6 20.0000000  0  9G22G21G18G14G 6G16G15G26G 3
  21056932.9364   -3125334.78244  -2420465.36442  21056933.0924   21056930.4254
        57.0004         49.0004
  20575666.7544   -1403851.50344  -1088169.65142  20575668.6264   20575667.0414
        58.0004         50.0004
  20529556.0424    6079299.76343   4740354.79042  20529557.6364   20529557.0404
        50.0004         44.0004
  23983439.2974   -4593288.04843  -3557717.37142  23983439.0324   23983445.7324
        43.0004         38.0004
  23090412.6324   23151066.94443  18035882.64042  23090414.2554   23090415.1364
        49.0004         43.0004
  24212246.0194   11694487.85243   9115929.93142  24212248.6444   24212251.0244
        44.0004         38.0004
  21374276.7424   -1861436.85243  -1431276.85542  21374277.1304   21374276.4264
        43.0004         38.0004
  23326019.5624   17317614.31043  13497776.53342  23326020.4784   23326024.2524
        47.0004         39.0004
  23041549.5314   -7194792.42943  -5572419.70742  23041550.7304   23041554.2704
        44.0004         38.0004
 04  6 18 17  6 40.0000000  0  9G22G21G18G14G 6G16G15G26G 3
  21052689.5214   -3147632.22844  -2437839.98142  21052690.3164   21052687.4304
        57.0004         49.0004
  20577114.6484   -1396242.75444  -1082240.75942  20577116.1874   20577114.6234
        57.0004         50.0004
  20531942.5104    6091837.11943   4750124.15642  20531944.0844   20531940.8974
        50.0004         44.0004
  23969179.6744   -4668219.79843  -3616105.60042  23969180.6734   23969185.1094
        45.0004         38.0004
  23103610.5894   23220416.54843  18089921.17542  23103611.3604   23103611.9644
        50.0004         42.0004
  24218897.4064   11729436.17943   9143162.34042  24218897.2734   24218903.5634
        44.0004         38.0004
  21366565.5994   -1901963.69743  -1462856.17142  21366566.3384   21366563.3204
        45.0004         38.0004
  23337939.5034   17380250.65743  13546584.02342  23337943.3474   23337943.7484
        48.0004         38.0004
  23032029.1194   -7244822.99143  -5611404.52842  23032031.6184   23032034.2924
        43.0004         38.0004
 04  6 18 17  7  0.0000000  0  9G22G21G18G14G 6G16G15G26G 3
  21048474.9304   -3169781.70844  -2455099.28942  21048475.1764   21048472.7644
        57.0004         49.0004
  20578586.4824   -1388506.10044  -1076212.20342  20578588.0734   20578586.8554
        57.0004         50.0004
  20534354.0444    6104509.38743   4759998.66142  20534355.3884   20534353.4834
        49.0004         43.0004
  23954929.4164   -4743115.52443  -3674465.73342  23954929.9804   23954931.1244
        47.0004         39.0004
  23116821.4444   23289848.56843  18144023.93442  23116824.7544   23116825.3704
        49.0004         42.0004
  24225570.1714   11764509.05643   9170491.79042  24225572.3404   24225575.1834
        43.0004         37.0004
  21358864.6074   -1942428.91543  -1494387.51042  21358865.6044   21358864.6744
        44.0004         38.0004
  23349890.1764   17443056.65943  13595523.70342  23349891.5804   23349893.0574
        46.0004         38.0004
  23022539.1334   -7294687.68443  -5650260.09542  23022540.5344   23022544.0834
        43.0004         38.0004
 04  6 18 17  7 20.0000000  0  9G22G21G18G14G 6G16G15G26G 3
  21044288.9414   -3191777.32344  -2472238.71842  21044288.9994   21044286.8174
        57.0004         49.0004
  20580084.2424   -1380635.35144  -1070079.16442  20580085.7284   20580083.7424
        57.0004         49.0004
  20536792.0484    6117321.87843   4769982.40442  20536793.8714   20536792.1784
        49.0004         43.0004
  23940683.9694   -4817968.46643  -3732792.51542  23940686.6614   23940685.2954
        48.0004         39.0004
  23130049.8834   23359368.17443  18198194.94942  23130052.7424   23130055.8934
        48.0004         42.0004
  24232268.8964   11799711.60443   9197922.26842  24232271.3764   24232273.4474
        44.0004         37.0004
  21351177.0654   -1982826.25043  -1525865.94542  21351178.8314   21351177.0214
        45.0004         38.0004
  23361874.8074   17506037.55943  13644599.66342  23361875.7594   23361881.0844
        46.0004         38.0004
  23013085.3904   -7344379.77543  -5688981.14242  23013086.5024   23013088.3764
        44.0004         38.0004
 04  6 18 17  7 40.0000000  0  9G22G21G18G14G 6G16G15G26G 3
  21040130.5244   -3213628.76844  -2489265.79342  21040130.6234   21040128.9394
        57.0004         49.0004
  20581605.5484   -1372639.77444  -1063848.86142  20581606.6764   20581605.3574
        57.0004         49.0004
  20539254.5654    6130264.81143   4780067.81842  20539257.6324   20539255.3624
        48.0004         42.0004
  23926447.9164   -4892787.42843  -3791092.82342  23926448.7254   23926448.2124
        48.0004         39.0004
  23143293.6084   23428965.18943  18252426.27242  23143295.4424   23143301.0884
        48.0004         41.0004
  24238991.6674   11835033.52543   9225445.77342  24238992.7784   24238995.2214
        44.0004         38.0004
  21343501.5224   -2023164.78743  -1557298.56242  21343502.3074   21343501.0634
        44.0004         37.0004
  23373890.2094   17569182.97843  13693803.88342  23373891.3224   23373893.9534
        46.0004         38.0004
  23003657.6084   -7393908.19343  -5727574.69142  23003659.2724   23003662.0654
        43.0004         37.0004
 04  6 18 17  8  0.0000000  0  9G22G21G18G14G 6G16G15G26G 3
  21036001.3344   -3235328.51544  -2506174.67042  21036001.3634   21035999.2234
        57.0004         49.0004
  20583152.4884   -1364511.29444  -1057514.97842  20583153.6724   20583152.6334
        57.0004         50.0004
  20541743.8304    6143345.68943   4790260.71242  20541745.2784   20541743.4614
        48.0004         42.0004
  23912217.1314   -4967563.99143  -3849360.10942  23912218.8474   23912220.3004
        48.0004         40.0004
  23156553.9264   23498646.54843  18306723.33042  23156554.4954   23156559.6664
        47.0004         41.0004
  24245736.2064   11870481.60143   9253067.61042  24245737.7474   24245740.3794
        44.0004         38.0004
  21335836.6724   -2063436.60843  -1588679.17942  21335838.7154   21335838.8454
        41.0004         36.0004
  23385940.1144   17632499.69443  13743141.54342  23385941.1434   23385944.0074
        45.0004         38.0004
  22994267.4754   -7443264.53743  -5766034.13142  22994267.9394   22994268.5344
        44.0004         37.0004
 04  6 18 17  8 20.0000000  0  9G22G21G18G14G 6G16G15G26G 3
  21031900.1074   -3256880.16244  -2522968.14542  21031900.2254   21031897.9074
        57.0004         49.0004
  20584724.0024   -1356253.02844  -1051079.96842  20584725.4264   20584724.3284
        58.0004         50.0004
  20544259.1324    6156560.64143   4800558.07942  20544257.7254   20544259.3494
        48.0004         41.0004
  23897994.2744   -5042300.73043  -3907596.38242  23897995.1584   23898000.1294
        47.0004         40.0004
  23169828.5984   23568408.15043  18361082.91642  23169830.6824   23169834.1614
        47.0004         41.0004
  24252505.6034   11906051.66343   9280784.49142  24252508.1014   24252510.5994
        45.0004         38.0004
  21328182.5884   -2103644.43143  -1620009.95842  21328182.6434   21328185.4374
        39.0004         35.0004
  23398021.0814   17695983.34643  13792609.29542  23398021.9054   23398026.2304
        45.0004         38.0004
  22984906.5254   -7492451.49543  -5804361.61342  22984908.5954   22984910.5324
        43.0004         38.0004
 04  6 18 17  8 40.0000000  0  8G22G21G18G14G 6G16G26G 3
  21027827.2224   -3278284.70244  -2539647.00042  21027827.3094   21027825.0264
        57.0004         49.0004
  20586320.3564   -1347865.90744  -1044544.54442  20586321.5634   20586320.1394
        58.0004         50.0004
  20546798.6414    6169908.25243   4810958.83842  20546800.6654   20546797.8644
        46.0004         41.0004
  23883780.0284   -5116997.71143  -3965801.69242  23883780.8694   23883785.6434
        46.0004         40.0004
  23183119.0994   23638248.37943  18415503.74742  23183118.9324   23183122.0454
        46.0004         39.0004
  24259298.3284   11941742.00443   9308595.12342  24259299.3584   24259303.1654
        44.0004         38.0004
  23410132.8424   17759631.96743  13842205.59742  23410135.7274   23410136.4774
        46.0004         38.0004
  22975580.5814   -7541469.28343  -5842557.25942  22975580.2934   22975581.1584
        44.0004         38.0004
 04  6 18 17  9  0.0000000  0  9G22G21G18G14G 6G16G15G26G 3
  21023782.2344   -3299541.47344  -2556210.69842  21023782.5794   21023779.4784
        57.0004         49.0004
  20587941.1084   -1339348.72244  -1037907.78242  20587942.4964   20587940.9294
        58.0004         51.0004
  20549363.1424    6183388.98543   4821463.31142  20549365.2154   20549365.9314
        46.0004         40.0004
  23869573.6864   -5191653.36943  -4023974.80442  23869574.6984   23869579.4984
        47.0004         41.0004
  23196424.2514   23708167.26843  18469985.87142  23196423.9734   23196426.3944
        46.0004         39.0004
  24266111.3624   11977552.54343   9336499.38542  24266112.9794   24266116.5644
        44.0004         38.0004
  21312920.6314   -2183869.13353  -1682522.80652  21312920.8524   21312918.4804
        39.0004         33.0004
  23422277.4004   17823445.63143  13891930.51942  23422279.2324   23422280.3174
        46.0004         38.0004
  22966283.7204   -7590316.40943  -5880619.92542  22966285.9334   22966284.2574
        44.0004         38.0004
 04  6 18 17  9 20.0000000  0  9G22G21G18G14G 6G16G15G26G 3
  21019765.6414   -3320648.94044  -2572658.04142  21019766.0894   21019763.0924
        58.0004         49.0004
  20589587.1074   -1330699.45744  -1031168.10142  20589588.3534   20589586.5084
        58.0004         51.0004
  20551952.7444    6197003.96143   4832072.38942  20551954.7804   20551955.1714
        44.0004         40.0004
  23855376.4434   -5266265.11843  -4082113.68342  23855376.2614   23855383.1794
        47.0004         41.0004
  23209744.6904   23778165.80143  18524530.06942  23209745.8064   23209746.8174
        46.0004         39.0004
  24272951.0064   12013484.26143   9364498.09042  24272950.9904   24272953.3954
        45.0004         38.0004
  21305304.3064   -2223882.78453  -1713702.23552  21305305.3054   21305305.4674
        38.0004         33.0004
  23434452.2294   17887425.10343  13941784.63542  23434452.9494   23434452.5344
        46.0004         38.0004
  22957022.0604   -7638990.50043  -5918547.76742  22957024.4394   22957022.9984
        45.0004         38.0004
 04  6 18 17  9 40.0000000  0  8G22G21G18G14G 6G16G26G 3
  21015777.2874   -3341608.88744  -2588990.43142  21015777.3704   21015774.5164
        58.0004         49.0004
  20591258.0784   -1321919.66844  -1024326.71842  20591258.9854   20591257.5584
        58.0004         51.0004
  20554569.3874    6210751.11643   4842784.46042  20554570.5144   20554569.6064
        43.0004         39.0004
  23841185.6274   -5340833.80343  -4140219.01442  23841187.0714   23841190.7794
        48.0004         41.0004
  23223080.3264   23848241.61143  18579134.45242  23223079.7064   23223081.8644
        46.0004         39.0004
  24279810.9674   12049534.72043   9392589.30342  24279812.0464   24279811.4724
        46.0004         37.0004
  23446657.3184   17951567.82543  13991765.98442  23446658.9274   23446661.8614
        44.0004         38.0004
  22947792.3514   -7687492.53643  -5956341.54842  22947793.8994   22947794.3314
        44.0004         39.0004
 04  6 18 17 10  0.0000000  0  8G22G21G18G14G 6G16G26G 3
  21011816.7524   -3362421.35944  -2605207.91742  21011817.0054   21011814.1524
        58.0004         49.0004
  20592953.3814   -1313008.71444  -1017383.12242  20592954.7914   20592953.0244
        59.0004         51.0004
  20557209.8384    6224630.54543   4853599.62042  20557209.6574   20557210.5574
        42.0004         39.0004
  23827004.5634   -5415358.69343  -4198290.22142  23827006.2304   23827010.0384
        47.0004         41.0004
  23236429.9114   23918394.21543  18633798.70642  23236430.7774   23236433.8414
        46.0004         39.0004
  24286693.6144   12085703.15543   9420772.42442  24286694.8704   24286695.8714
        46.0004         38.0004
  23458893.5074   18015873.02643  14041873.86142  23458894.9994   23458898.9164
        43.0004         38.0004
  22938595.3394   -7735821.65643  -5994000.57742  22938596.9574   22938597.7244
        44.0004         39.0004
 04  6 18 17 10 20.0000000  0  8G22G21G18G14G 6G16G26G 3
  21007884.7384   -3383085.58644  -2621309.88742  21007884.6924   21007881.6334
        58.0004         49.0004
  20594674.2764   -1303965.36244  -1010336.36642  20594675.5284   20594674.3004
        58.0004         51.0004
  20559875.8864    6238642.77043   4864518.20742  20559876.9544   20559876.7804
        40.0004         38.0004
  23812832.3474   -5489837.92343  -4256325.85242  23812833.9594   23812834.8614
        48.0004         41.0004
  23249793.4764   23988623.65043  18688522.81042  23249797.0624   23249796.3654
        46.0004         40.0004
  24293598.2644   12121989.74343   9449047.60142  24293599.5084   24293600.2654
        46.0004         37.0004
  23471162.8324   18080340.71443  14092108.38042  23471164.2564   23471168.2314
        43.0004         38.0004
  22929432.6594   -7783976.27043  -6031523.62242  22929432.9694   22929433.0334
        45.0004         39.0004
 04  6 18 17 10 40.0000000  0  8G22G21G18G14G 6G16G26G 3
  21003980.2334   -3403602.34344  -2637296.95142  21003980.4774   21003977.6254
        57.0004         49.0004
  20596420.3204   -1294789.98944  -1003186.73542  20596421.6234   20596420.4084
        58.0004         51.0004
  20562567.5514    6252786.74643   4875539.47142  20562568.6334   20562568.9344
        39.0004         38.0004
  23798668.0464   -5564271.11743  -4314325.60742  23798670.6234   23798670.2794
        48.0004         41.0004
  23263173.8444   24058928.77043  18743305.89442  23263174.3694   23263176.9564
        47.0004         40.0004
  24300526.4174   12158392.99143   9477413.69742  24300528.6924   24300527.1544
        46.0004         37.0004
  23483462.7574   18144969.36343  14142468.33142  23483462.0664   23483465.1004
        43.0004         38.0004
  22920300.4574   -7831956.21043  -6068910.56442  22920302.7534   22920304.1264
        44.0004         39.0004
 04  6 18 17 11  0.0000000  0  8G22G21G18G14G 6G16G26G 3
  21000103.7464   -3423974.99944  -2653171.72742  21000103.7924   21000101.4474
        57.0004         50.0004
  20598191.2134   -1285485.77844   -995936.70642  20598192.5284   20598191.1794
        59.0004         51.0004
  20565285.1514   -4760881.39653  -3706539.60952  20565285.0864   20565286.3524
        39.0004         37.0004
  23784512.1284   -5638661.03643  -4372291.62842  23784512.8854   23784513.7134
        48.0004         40.0004
  23276565.7594   24129305.45643  18798144.74942  23276566.9614   23276569.3864
        47.0004         40.0004
  24307474.3474   12194908.69843   9505867.41042  24307475.4784   24307475.9634
        46.0004         37.0004
  23495789.7034   18209754.76343  14192950.44742  23495791.7924   23495794.8714
        42.0004         37.0004
  22911204.3464   -7879764.24443  -6106163.54042  22911204.6184   22911204.7754
        44.0004         39.0004
 04  6 18 17 11 20.0000000  0  8G22G21G18G14G 6G16G26G 3
  20996256.0454   -3444195.45344  -2668927.91742  20996256.3694   20996253.7864
        57.0004         50.0004
  20599988.0604   -1276044.06244   -988579.53742  20599989.4714   20599987.5554
        59.0004         51.0004
  20568028.1824   -4746473.68853  -3695312.85452  20568025.7274   20568027.0024
        39.0004         36.0004
  23770365.7314   -5712998.51943  -4430216.80142  23770364.6344   23770369.7034
        49.0004         40.0004
  23289972.9704   24199761.18443  18853045.16142  23289973.8404   23289976.1794
        48.0004         40.0004
  24314447.3834   12231544.48843   9534414.70042  24314448.0614   24314448.5694
        47.0004         38.0004
  23508148.7974   18274704.14743  14243560.29942  23508152.7104   23508153.0374
        41.0004         36.0004
  22902141.1294   -7927391.36043  -6143275.54242  22902143.2084   22902143.8244
        45.0004         39.0004
 04  6 18 17 11 40.0000000  0  8G22G21G18G14G 6G16G26G 3
  20992436.0884   -3464269.27844  -2684569.84142  20992436.6274   20992433.8094
        57.0004         50.0004
  20601809.8934   -1266470.05844   -981119.28742  20601811.3244   20601809.1404
        59.0004         51.0004
  20570796.5634   -4731936.03453  -3683984.83952  20570793.9444   20570790.9604
        40.0004         36.0004
  23756226.7784   -5787288.14543  -4488104.68342  23756232.5764   23756229.0454
        48.0004         39.0004
  23303394.6474   24270289.86943  18908002.44442  23303394.9754   23303397.9614
        47.0004         40.0004
  24321439.7804   12268294.04743   9563050.63642  24321441.5174   24321444.3394
        46.0004         38.0004
  23520539.4254   18339811.41443  14294293.26242  23520538.7334   23520542.4884
        39.0004         35.0004
  22893112.5794   -7974842.39043  -6180250.35642  22893111.9864   22893113.5104
        44.0004         40.0004
 04  6 18 17 12  0.0000000  0  8G22G21G18G14G 6G16G26G 3
  20988643.8614   -3484195.53844  -2700096.77842  20988644.6304   20988641.6954
        57.0004         50.0004
  20603657.0094   -1256762.43544   -973554.91142  20603658.1894   20603656.3414
        58.0004         50.0004
  20573586.6334   -4717267.40953  -3672554.72052  20573585.9194   20573583.3194
        37.0004         35.0004
  23742099.8444   -5861528.03943  -4545953.79842  23742103.4974   23742104.2334
        48.0004         40.0004
  23316829.9474   24340892.05043  18963016.98242  23316831.4824   23316832.6624
        48.0004         40.0004
  24328455.2724   12305157.63643   9591775.45542  24328457.3184   24328459.4484
        46.0004         38.0004
  23532958.0134   18405076.65043  14345149.25742  23532959.9404   23532960.6874
        39.0004         35.0004
  22884114.9754   -8022115.41243  -6217086.41942  22884116.6324   22884118.6364
        44.0004         39.0004
 04  6 18 17 12 20.0000000  0  7G22G21G14G 6G16G26G 3
  20984879.3194   -3503979.07644  -2715512.50642  20984879.8764   20984876.8994
        57.0004         50.0004
  20605528.8394   -1246925.68344   -965889.91342  20605529.9014   20605528.2034
        58.0004         50.0004
  23727981.8164   -5935721.93243  -4603767.07242  23727984.7924   23727987.5134
        48.0004         40.0004
  23330277.4694   24411562.15743  19018084.46142  23330278.4904   23330280.2494
        48.0004         40.0004
  24335490.7974   12342129.84443   9620584.92442  24335492.8614   24335493.3054
        46.0004         38.0004
  23545407.5724   18470494.20943  14396123.93542  23545409.0204   23545403.4324
        39.0004         34.0004
  22875153.4744   -8069214.34143  -6253786.83342  22875153.2574   22875155.2624
        45.0004         40.0004
 04  6 18 17 12 40.0000000  0  7G22G21G14G 6G16G26G 3
  20981142.0494   -3523614.85244  -2730813.10242  20981142.4174   20981140.3704
        57.0004         50.0004
  20607426.3144   -1236954.05944   -958119.82042  20607427.2904   20607425.8964
        57.0004         50.0004
  23713872.7784   -6009863.89943  -4661539.89142  23713874.0244   23713878.4134
        48.0004         40.0004
  23343739.0134   24482304.78843  19073208.45542  23343738.8204   23343743.8374
        47.0004         40.0004
  24342547.0354   12379215.15643   9649482.52942  24342549.7614   24342551.3084
        44.0004         38.0004
  23557887.3794   18536068.58343  14447220.84742  23557890.8064   23557886.7664
        40.0004         34.0004
  22866224.4014   -8116133.47743  -6290347.16142  22866225.9654   22866227.5894
        44.0004         40.0004
 04  6 18 17 13  0.0000000  0  7G22G21G14G 6G16G26G 3
  20977433.1054   -3543104.43143  -2745999.77042  20977433.5714   20977431.3034
        56.0004         50.0004
  20609349.6224   -1226848.79844   -950245.59442  20609350.3074   20609349.0244
        57.0004         50.0004
  23699774.5544   -6083954.63843  -4719272.80342  23699776.2264   23699780.1714
        48.0004         41.0004
  23357213.2174   24553117.70843  19128387.21242  23357215.2424   23357218.6024
        46.0004         40.0004
  24349621.7084   12416411.28243   9678466.51142  24349621.5284   24349630.1884
        41.0004         37.0004
  23570394.1444   18601797.29543  14498438.00042  23570396.6404   23570396.9314
        40.0004         35.0004
  22857330.2244   -8162873.52543  -6326767.93842  22857332.3324   22857333.7614
        45.0004         40.0004
 04  6 18 17 13 20.0000000  0  7G22G21G14G 6G16G26G 3
  20973753.1964   -3562444.66743  -2761070.06142  20973753.3554   20973750.5774
        56.0004         49.0004
  20611298.5514   -1216606.36543   -942264.47242  20611299.3934   20611298.3224
        56.0004         50.0004
  23685685.0744   -6157989.81243  -4776962.42142  23685686.8804   23685689.1864
        48.0004         41.0004
  23370703.5334   24624003.50243  19183622.78842  23370704.3564   23370708.5284
        46.0004         40.0004
  24356719.9154   12453720.68743   9707538.81042  24356722.6164   24356729.1714
        40.0004         36.0004
  23582931.3914   18667682.83943  14549777.31742  23582934.7104   23582928.8804
        39.0004         34.0004
  22848470.1984   -8209430.37343  -6363045.96142  22848470.8794   22848472.6584
        45.0004         40.0004
 04  6 18 17 13 40.0000000  0  7G22G21G14G 6G16G26G 3
  20970100.6794   -3581640.26044  -2776027.64142  20970100.6684   20970097.9304
        57.0004         49.0004
  20613272.3554   -1206231.34843   -934180.03342  20613273.4034   20613272.3554
        56.0004         50.0004
  23671606.2144   -6231973.40243  -4834611.86442  23671608.3954   23671610.9524
        47.0004         41.0004
  23384205.9224   24694957.01143  19238911.10742  23384207.0944   23384210.9924
        46.0004         40.0004
  24363843.0224   12491137.88343   9736695.07842  24363844.6624   24363849.3444
        41.0004         36.0004
  23595498.2324   18733719.54843  14601234.44042  23595501.9204   23595495.0734
        39.0004         34.0004
  22839645.6384   -8255808.09243  -6399184.38942  22839646.5014   22839646.4824
        45.0004         40.0004
 04  6 18 17 14  0.0000000  0  7G22G21G14G 6G16G26G 3
  20966475.4954   -3600691.56944  -2790872.79342  20966475.6764   20966472.5564
        57.0004         50.0004
  20615272.2864   -1195723.27443   -925991.92342  20615273.0604   20615271.7414
        56.0004         50.0004
  23657536.2504   -6305904.69043  -4892220.56342  23657536.7424   23657541.0644
        46.0004         40.0004
  23397720.7514   24765977.27743  19294251.42742  23397722.3234   23397726.9574
        47.0004         41.0004
  24370986.9094   12528662.01143   9765934.65742  24370986.7754   24370989.6274
        44.0004         37.0004
  23608095.2444   18799906.60043  14652808.74642  23608096.8844   23608096.0194
        40.0004         33.0004
  22830854.6244   -8302006.08643  -6435182.78942  22830855.7714   22830855.1824
        46.0004         40.0004
 04  6 18 17 14 20.0000000  0  7G22G21G14G 6G16G26G 3
  20962877.1354   -3619597.76943  -2805604.86942  20962877.7094   20962875.0214
        56.0004         49.0004
  20617297.7484   -1185081.03343   -917699.26342  20617298.1754   20617296.7824
        56.0004         50.0004
  23643476.4974   -6379781.84543  -4949787.07842  23643479.9414   23643485.7824
        45.0004         40.0004
  23411249.3224   24837064.54243  19349643.96742  23411250.6674   23411255.8114
        48.0004         41.0004
  24378147.5554   12566293.11643   9795257.54942  24378149.7094   24378151.0604
        45.0004         38.0004
  23620719.9724   18866243.84143  14704500.12442  23620724.7324   23620714.4964
        40.0004         32.0004
  22822097.6704   -8348022.71943  -6471039.87042  22822099.2514   22822098.5084
        46.0004         40.0004
 04  6 18 17 14 40.0000000  0  8G22G21G14G 6G16G15G26G 3
  20959309.2244   -3638347.95843  -2820215.38542  20959309.7824   20959307.1694
        56.0004         50.0004
  20619351.4994   -1174293.19343   -909293.15642  20619351.6984   20619349.6194
        56.0004         50.0004
  23629430.1844   -6453593.06343  -5007302.23942  23629432.8984   23629437.8194
        45.0004         39.0004
  23424791.7684   24908229.13043  19405096.75442  23424792.9424   23424799.9234
        48.0004         42.0004
  24385331.1244   12604041.49443   9824671.78542  24385332.3334   24385334.7874
        45.0004         38.0004
  21185227.265
        42.000
  23633370.714     6163116.59552                                  23633369.6044
        37.000          31.0004
  22813377.5684   -8393846.29943  -6506746.51642  22813378.2514   22813379.5914
        47.0004         40.0004
